     2              OBSERVATION DATA    GPS                 RINEX VERSION / TYPE
ASHTORIN 17 - APR - 99 08:32                                PGM / RUN BY / DATE
                                                            COMMENT
Original Marker Name: SIO2                                  COMMENT
Campaign Name: rose canyon fault                            COMMENT
4-Character Station Name: SIO2                              COMMENT
6-Character Antenna Code: DMRCHT                            COMMENT
Vertical Measurement Point: BPA                             COMMENT
Vertical Offset to Rinex Ref. Point: 0.0000                 COMMENT
Radial Measurement Point: RRP                               COMMENT
Radial Offset to Rinex Ref. Point: 0.0000                   COMMENT
Antenna Height from Field Measurement: 0.0000 m             COMMENT
Additional Antenna Identification Info.:                    COMMENT
Turborogue and Ashtech Choke Ring                           COMMENT
Original XYZ: 0.0000 0.0000 0.0000                          COMMENT
New XYZ position is based on association with SCEC monument COMMENT
E1C8P4W3+0401. Position of that monument is believed to be  COMMENT
valid to within 1 m horizontally; vertical accuracy         COMMENT
should be no worse than 3-times this value.                 COMMENT
                                                            COMMENT
Revised Rinex header created by UCSD GPS archive for        COMMENT
GSAC on 03-Sep-1999 (1999:246) 21:38:01 GMT                 COMMENT
For assistance contact dagnew@ucsd.edu or hjohnson@ucsd.edu COMMENT
                                                            COMMENT
SIO LIBRARY WLL - NORTH                                     MARKER NAME
                                                            MARKER NUMBER
SJB SCRIPPS INSTITUTION OF OCEANOGRAPHY                     OBSERVER / AGENCY
755 ASHTECH Z12-XII3 1F501D0                                REC # / TYPE / VERS
409 DORNE-MARGOL. TYPE T                                    ANT # / TYPE
 -2455539.0000 -4767224.0000  3441629.0000                  APPROX POSITION XYZ
        0.0000        0.0000        0.0000                  ANTENNA: DELTA H/E/N
     1     1     0                                          WAVELENGTH FACT L1/2
     7    L1    L2    C1    P1    P2    D1    D2            # / TYPES OF OBSERV
    30                                                      INTERVAL
  1999     4     6    19    50   30.000000                  TIME OF FIRST OBS
  1999     4     6    23    59   30.000000                  TIME OF LAST OBS
                                                            END OF HEADER
 99  4  6 19 50 30.0000000  0  4 24  4  5  9                         0.000000000
   -177149.165 9   -126569.05152         0.000           0.0004          0.0005
        -0.000          -0.000
     28986.818 9     20218.58752         0.000           0.0004          0.0005
        -0.000          -0.000
   -200196.301 9   -144290.18147  22534949.448    22534948.9594   22534956.3774
        -0.000          -0.000
     27643.679 9     19276.28252         0.000           0.0004          0.0005
        -0.000          -0.000
 99  4  6 19 51  0.0000000  0  6 24  4  5  7  8  9                   0.000644932
   -247206.364 9    -11437.71246         0.000           0.0004   21237116.6874
        -0.000          -0.000
     41327.056 9      3851.26247         0.000           0.0004   20551909.5514
        -0.000          -0.000
   -281086.137 9   -207321.16947  22519556.609    22519556.0664   22519563.6604
        -0.000          -0.000
    195582.351 8    139968.42745  22993730.074    22993730.4124   22993739.3424
        -0.000          -0.000
   -214311.746 9   -153774.37647  22330268.104    22330268.2574   22330277.4854
        -0.000          -0.000
     39387.289 9      3666.87447         0.000           0.0004   21335439.9294
        -0.000          -0.000
 99  4  6 19 51 30.0000000  0  6 24  4  5  7  8  9                   0.000000011
  -1330326.685 9   -855427.53448  21030996.359    21030996.9344   21031005.0454
        -0.000          -0.000
   -959328.944 9   -775880.66949  20361483.942    20361484.3684   20361491.0364
        -0.000          -0.000
  -1375412.269 9  -1060042.79947  22311313.281    22311312.7394   22311320.3304
        -0.000          -0.000
   -755354.030 8   -601021.02745  22812771.457    22812772.1164   22812781.4474
        -0.000          -0.000
  -1295390.626 9   -996173.46347  22124547.819    22124545.8264   22124554.9994
        -0.000          -0.000
   -961878.657 9   -776540.37048  21144897.662    21144898.0124   21144905.4344
        -0.000          -0.000
 99  4  6 19 52  0.0000000  0  6 24  4  5  7  8  9                  -0.000000010
  -1396620.194 9   -907084.74348  21018381.332    21018381.4384   21018389.6764
        -0.000          -0.000
   -943064.142 9   -763206.77749  20364579.141    20364579.4454   20364586.1824
        -0.000          -0.000
  -1453286.506 9  -1120723.95547  22296494.533    22296493.8684   22296501.3414
        -0.000          -0.000
   -689916.841 8   -550031.05145  22825224.185    22825223.9564   22825232.6554
        -0.000          -0.000
  -1359623.167 9  -1046224.76047  22112324.103    22112322.7774   22112332.0204
        -0.000          -0.000
   -946274.027 9   -764380.94848  21147867.214    21147867.3664   21147874.8174
        -0.000          -0.000
 99  4  6 19 52 30.0000000  0  6 24  4  5  7  8  9                  -0.000000031
  -1462466.538 9   -958393.51048  21005851.110    21005851.1724   21005859.6554
        -0.000          -0.000
   -926211.402 9   -750074.75349  20367786.091    20367786.3354   20367793.1694
        -0.000          -0.000
  -1531071.684 9  -1181335.73447  22281692.417    22281691.8354   22281699.2884
        -0.000          -0.000
   -624449.909 9   -499017.98745  22837682.470    22837682.2714   22837690.9034
        -0.000          -0.000
  -1423351.343 9  -1095883.05047  22100196.656    22100195.8234   22100205.0444
        -0.000          -0.000
   -930150.686 9   -751817.33748  21150935.462    21150935.6724   21150943.0434
        -0.000          -0.000
 99  4  6 19 53  0.0000000  0  6 24  4  5  7  8  9                  -0.000000059
  -1527871.775 9  -1009358.55748  20993404.967    20993404.9684   20993413.5184
        -0.000          -0.000
   -908767.556 9   -736482.12849  20371105.605    20371105.8274   20371112.5884
        -0.000          -0.000
  -1608763.749 9  -1241874.96847  22266908.009    22266907.5314   22266914.8324
        -0.000          -0.000
   -558948.557 8   -447978.02345  22850147.309    22850147.2124   22850155.4504
        -0.000          -0.000
  -1486575.221 9  -1145148.38047  22088165.286    22088164.7514   22088173.9784
        -0.000          -0.000
   -913511.373 9   -738851.65448  21154101.947    21154102.0904   21154109.4154
        -0.000          -0.000
 99  4  6 19 53 30.0000000  0  6 24  4  5  7  8  9                  -0.000000087
  -1592828.383 9  -1059974.03348  20981044.192    20981044.1454   20981052.7064
        -0.000          -0.000
   -890718.039 9   -722417.56949  20374540.224    20374540.4404   20374547.2574
        -0.000          -0.000
  -1686346.634 9  -1302329.10447  22252144.361    22252144.0114   22252151.2964
        -0.000          -0.000
   -493391.089 9   -396894.36645  22862623.022    22862622.7444   22862630.9314
        -0.000          -0.000
  -1549272.690 9  -1194003.51647  22076234.242    22076233.8214   22076243.0194
        -0.000          -0.000
   -896333.662 9   -725466.44948  21157370.731    21157370.8574   21157378.2864
        -0.000          -0.000
 99  4  6 19 54  0.0000000  0  6 24  4  5  7  8  9                  -0.000000127
  -1657325.203 9  -1110231.23248  20968770.988    20968770.8924   20968779.3574
        -0.000          -0.000
   -872034.603 9   -707859.03349  20378095.328    20378095.6184   20378102.5834
        -0.000          -0.000
  -1763797.381 9  -1362680.28747  22237405.941    22237405.4954   22237412.9864
        -0.000          -0.000
   -427757.845 8   -345751.62645  22875113.037    22875112.6594   22875120.6524
        -0.000          -0.000
  -1611405.825 9  -1242418.92747  22064410.656    22064410.3964   22064419.3154
        -0.000          -0.000
   -878554.259 9   -711612.38748  21160754.117    21160754.1754   21160761.6254
        -0.000          -0.000
 99  4  6 19 54 30.0000000  0  6 24  4  5  7  8  9                  -0.000000142
  -1721354.806 9  -1160124.37048  20956586.676    20956586.5374   20956594.8844
        -0.000          -0.000
   -852756.403 9   -692837.04949  20381763.790    20381764.0784   20381771.0534
        -0.000          -0.000
  -1841116.087 9  -1422928.57647  22222692.440    22222692.0614   22222699.8054
        -0.000          -0.000
   -362060.414 8   -294558.89345  22887614.767    22887614.4644   22887622.8464
        -0.000          -0.000
  -1672982.110 9  -1290400.41047  22052692.916    22052692.7794   22052701.6414
        -0.000          -0.000
   -860162.549 9   -697281.21148  21164253.958    21164254.0024   21164261.4604
        -0.000          -0.000
 99  4  6 19 55  0.0000000  0  6 24  4  5  7  8  9                  -0.000000129
  -1784934.702 9  -1209667.08048  20944487.905    20944487.7434   20944495.9814
        -0.000          -0.000
   -832937.532 9   -677393.76249  20385535.315    20385535.6274   20385542.3894
        -0.000          -0.000
  -1918328.400 9  -1483093.96747  22207999.386    22207999.0834   22208006.8004
        -0.000          -0.000
   -296351.492 8   -243357.20745  22900119.015    22900118.6474   22900126.9064
        -0.000          -0.000
  -1734043.388 9  -1337980.61047  22041073.255    22041073.1634   22041082.0654
        -0.000          -0.000
   -841199.694 9   -682504.99548  21167862.453    21167862.5334   21167869.9934
        -0.000          -0.000
 99  4  6 19 55 30.0000000  0  6 24  4  5  7  8  9                  -0.000000117
  -1848065.952 9  -1258860.19848  20932474.387    20932474.2594   20932482.3594
        -0.000          -0.000
   -812586.606 9   -661535.89149  20389408.111    20389408.3564   20389414.9874
        -0.000          -0.000
  -1995447.271 9  -1543186.55547  22193324.205    22193323.8414   22193331.5484
        -0.000          -0.000
   -230670.228 8   -192177.02745  22912617.971    22912617.3064   22912625.7844
        -0.000          -0.000
  -1794605.343 9  -1385171.71047  22029548.647    22029548.5614   22029557.5174
        -0.000          -0.000
   -821686.074 9   -667299.60048  21171575.919    21171575.9734   21171583.3494
        -0.000          -0.000
 99  4  6 19 56  0.0000000  0  6 24  4  5  7  8  9                  -0.000000116
  -1910736.985 9  -1307694.69748  20920548.438    20920548.2964   20920556.4224
        -0.000          -0.000
   -791703.877 9   -645263.61849  20393381.962    20393382.2354   20393388.8134
        -0.000          -0.000
  -2072459.907 9  -1603196.33647  22178669.302    22178668.8974   22178676.5514
        -0.000          -0.000
   -165031.449 8   -141030.02445  22925108.407    22925107.5794   22925116.8904
        -0.000          -0.000
  -1854676.157 9  -1431980.11947  22018117.435    22018117.3854   22018126.4724
        -0.000          -0.000
   -801638.390 9   -651678.05248  21175390.992    21175390.9824   21175398.3184
        -0.000          -0.000
 99  4  6 19 56 30.0000000  0  6 24  4  5  7  8  9                  -0.000000124
  -1972902.656 9  -1356135.40948  20908718.573    20908718.4754   20908726.6704
        -0.000          -0.000
   -770236.433 9   -628535.73849  20397467.186    20397467.4574   20397473.9774
        -0.000          -0.000
  -2149313.024 9  -1663081.82647  22164044.785    22164044.2824   22164051.8844
        -0.000          -0.000
    -99397.893 8    -89887.08745  22937597.842    22937597.0724   22937606.8404
        -0.000          -0.000
  -1914226.870 9  -1478383.25547  22006785.233    22006785.2194   22006794.4824
        -0.000          -0.000
   -781046.021 9   -635632.08948  21179309.608    21179309.6394   21179316.9864
        -0.000          -0.000
 99  4  6 19 57  0.0000000  0  6 24  4  5  7  8  9                  -0.000000188
  -2034580.450 9  -1404195.96548  20896981.577    20896981.4814   20896989.7084
        -0.000          -0.000
   -748158.802 9   -611332.39049  20401668.572    20401668.8284   20401675.2964
        -0.000          -0.000
  -2226009.197 9  -1722845.02247  22149449.988    22149449.5154   22149457.1654
        -0.000          -0.000
    -33765.305 8    -38744.92145  22950087.378    22950086.6564   22950096.3074
        -0.000          -0.000
  -1973258.062 9  -1524381.55547  21995552.193    21995552.0664   21995561.3544
        -0.000          -0.000
   -759918.843 9   -619169.37948  21183330.113    21183330.0964   21183337.3544
        -0.000          -0.000
 99  4  6 19 57 30.0000000  0  6 24  4  5  7  8  9                  -0.000000260
  -2095701.171 9  -1451822.43548  20885350.670    20885350.5934   20885358.8974
        -0.000          -0.000
   -725383.187 9   -593585.14549  20406002.708    20406002.8994   20406009.4324
        -0.000          -0.000
  -2302474.672 9  -1782428.47747  22134899.130    22134898.6284   22134906.3434
        -0.000          -0.000
     31963.982 8     12472.64845  22962595.373    22962594.7964   22962604.0904
        -0.000          -0.000
  -2031678.117 9  -1569903.67147  21984435.378    21984435.2324   21984444.4854
        -0.000          -0.000
   -738167.561 9   -602220.35448  21187469.384    21187469.3304   21187476.4974
        -0.000          -0.000
 99  4  6 19 58  0.0000000  0  6 24  4  5  7  8  9                  -0.000000328
  -2156279.660 9  -1499026.38848  20873822.976    20873822.8834   20873831.2194
        -0.000          -0.000
   -701917.931 9   -575300.52249  20410467.834    20410468.0674   20410474.7144
        -0.000          -0.000
  -2378725.919 9  -1841844.99147  22120388.894    22120388.3844   22120396.2814
        -0.000          -0.000
     97811.648 8     63782.45845  22975125.408    22975125.0334   22975134.2894
        -0.000          -0.000
  -2089499.914 9  -1614959.60247  21973432.563    21973432.2894   21973441.4554
        -0.000          -0.000
   -715797.870 9   -584789.45048  21191726.207    21191726.0944   21191733.3434
        -0.000          -0.000
 99  4  6 19 58 30.0000000  0  6 24  4  5  7  8  9                  -0.000000380
  -2216323.023 9  -1545813.37348  20862397.051    20862396.9634   20862405.2904
        -0.000          -0.000
   -677775.773 9   -556488.45149  20415061.992    20415062.2264   20415068.8014
        -0.000          -0.000
  -2454784.277 9  -1901111.18747  22105915.252    22105914.8044   22105922.8874
        -0.000          -0.000
    163783.547 8    115189.01945  22987679.157    22987678.9494   22987688.5184
        -0.000          -0.000
  -2146732.754 9  -1659556.57647  21962541.796    21962541.4484   21962550.4784
        -0.000          -0.000
   -692814.635 9   -566880.47548  21196099.696    21196099.6554   21196106.9674
        -0.000          -0.000
 99  4  6 19 59  0.0000000  0  6 24  4  5  7  8  9                  -0.000000380
  -2275857.771 9  -1592204.01648  20851067.810    20851067.7464   20851076.1154
        -0.000          -0.000
   -653031.250 9   -537206.99849  20419770.684    20419770.9074   20419777.5594
        -0.000          -0.000
  -2530700.842 9  -1960266.91147  22091468.705    22091468.2854   22091476.4714
        -0.000          -0.000
    229837.753 8    166659.77445  23000249.403    23000249.1584   23000258.3694
        -0.000          -0.000
  -2203412.681 9  -1703722.75747  21951756.234    21951755.7164   21951764.7124
        -0.000          -0.000
   -669250.257 9   -548518.65748  21200583.858    21200583.8114   21200591.2334
        -0.000          -0.000
 99  4  6 19 59 30.0000000  0  6 24  4  5  7  8  9                  -0.000000341
  -2334927.896 9  -1638232.62048  20839827.119    20839827.0484   20839835.3424
        -0.000          -0.000
   -627767.625 9   -517521.05649  20424578.096    20424578.3194   20424585.0674
        -0.000          -0.000
  -2606543.376 9  -2019364.94147  22077036.206    22077035.8764   22077044.0414
        -0.000          -0.000
    295905.890 7    218141.31545  23012821.674    23012821.3374   23012830.8054
        -0.000          -0.000
  -2259593.221 9  -1747499.77147  21941065.460    21941064.9674   21941073.9664
        -0.000          -0.000
   -645166.969 9   -529752.49948  21205166.748    21205166.7484   21205174.2084
        -0.000          -0.000
 99  4  6 20  0  0.0000000  0  6 24  4  5  7  8  9                  -0.000000287
  -2393572.561 9  -1683929.70248  20828667.405    20828667.2944   20828675.5734
        -0.000          -0.000
   -602038.927 9   -497472.71349  20429474.036    20429474.2294   20429481.0124
        -0.000          -0.000
  -2682364.831 9  -2078446.55047  22062607.764    22062607.4754   22062615.5904
        -0.000          -0.000
    361931.941 7    269590.12245  23025385.848    23025385.2794   23025395.2254
        -0.000          -0.000
  -2315332.373 9  -1790932.86147  21930458.745    21930458.2204   21930467.2704
        -0.000          -0.000
   -620624.975 9   -510628.89048  21209837.031    21209836.9854   21209844.4914
        -0.000          -0.000
 99  4  6 20  0 30.0000000  0  6 24  4  5  7  8  9                  -0.000000238
  -2451801.018 9  -1729302.46848  20817586.768    20817586.6654   20817595.0194
        -0.000          -0.000
   -575850.027 9   -477065.78949  20434457.633    20434457.8294   20434464.5434
        -0.000          -0.000
  -2758147.263 9  -2137497.75147  22048186.761    22048186.4494   22048194.5514
        -0.000          -0.000
    427896.193 8    320990.83545  23037938.427    23037937.5774   23037947.8944
        -0.000          -0.000
  -2370611.888 9  -1834007.78247  21919939.409    21919938.8924   21919947.9034
        -0.000          -0.000
   -595617.764 9   -491142.77948  21214595.926    21214595.8414   21214603.2774
        -0.000          -0.000
 99  4  6 20  1  0.0000000  0  6 24  4  5  7  8  9                  -0.000000208
  -2509608.261 9  -1774347.02048  20806586.405    20806586.3104   20806594.6214
        -0.000          -0.000
   -549175.416 9   -456280.37349  20439533.680    20439533.8854   20439540.5034
        -0.000          -0.000
  -2833864.570 9  -2196498.19247  22033778.191    22033777.9834   22033785.9444
        -0.000          -0.000
    493807.193 7    372349.96545  23050481.069    23050480.0854   23050490.5254
        -0.000          -0.000
  -2425396.801 9  -1876697.30847  21909514.056    21909513.5794   21909522.4574
        -0.000          -0.000
   -570127.461 9   -471280.23748  21219446.616    21219446.4934   21219453.9034
        -0.000          -0.000
 99  4  6 20  1 30.0000000  0  6 24  4  5  7  8  9                  -0.000000209
  -2566957.590 9  -1819034.75448  20795673.192    20795673.1154   20795681.3794
        -0.000          -0.000
   -521935.850 9   -435054.73149  20444717.243    20444717.4574   20444724.0474
        -0.000          -0.000
  -2909446.976 9  -2255393.53047  22019395.524    22019395.2104   22019402.9104
        -0.000          -0.000
    559719.242 8    423709.91345  23063023.911    23063023.0384   23063032.9444
        -0.000          -0.000
  -2479625.544 9  -1918953.44047  21899194.620    21899194.1234   21899202.7914
        -0.000          -0.000
   -544100.236 9   -450999.31648  21224399.394    21224399.3444   21224406.7274
        -0.000          -0.000
 99  4  6 20  2  0.0000000  0  6 24  4  5  7  8  9                  -0.000000241
  -2623809.859 9  -1863335.15849  20784854.599    20784854.5054   20784862.7444
        -0.000          -0.000
   -494071.558 9   -413342.30349  20450019.609    20450019.8364   20450026.5194
        -0.000          -0.000
  -2984821.180 9  -2314126.63247  22005052.468    22005052.0694   22005059.6224
        -0.000          -0.000
    625673.531 8    475102.77945  23075575.157    23075574.8404   23075583.9394
        -0.000          -0.000
  -2533256.649 9  -1960743.90247  21888988.943    21888988.4094   21888996.9014
        -0.000          -0.000
   -517490.302 9   -430264.33848  21229463.172    21229463.0984   21229470.3714
        -0.000          -0.000
 99  4  6 20  2 30.0000000  0  7 24  4 30  5  7  8  9               -0.000000274
  -2680112.924 9  -1907207.62148  20774140.400    20774140.3024   20774148.6204
        -0.000          -0.000
   -465535.702 9   -391106.56949  20455449.804    20455450.0374   20455456.6944
        -0.000          -0.000
  -1165636.178 8   -894933.85352         0.000           0.0004          0.0005
        -0.000          -0.000
  -3059924.621 9  -2372648.74947  21990760.818    21990760.4034   21990767.9634
        -0.000          -0.000
    691715.350 8    526563.89845  23088142.846    23088142.3224   23088151.4164
        -0.000          -0.000
  -2586233.367 9  -2002024.43747  21878907.830    21878907.3484   21878915.6764
        -0.000          -0.000
   -490235.241 9   -409026.66648  21234649.678    21234649.6184   21234656.8284
        -0.000          -0.000
 99  4  6 20  3  0.0000000  0  7 24  4 30  5  7  8  9               -0.000000304
  -2735889.190 9  -1950669.60448  20763526.371    20763526.3004   20763534.6964
        -0.000          -0.000
   -436379.907 9   -368387.78049  20460997.783    20460998.0564   20461004.8414
        -0.000          -0.000
  -1262439.494 8   -723603.79742         0.000           0.0004          0.0004
        -0.000          -0.000
  -3134802.081 9  -2430994.77047  21976512.145    21976511.6784   21976519.3174
        -0.000          -0.000
    757813.924 8    578069.23045  23100721.002    23100720.3734   23100729.6944
        -0.000          -0.000
  -2638604.854 9  -2042833.36647  21868941.919    21868941.3974   21868949.5484
        -0.000          -0.000
   -462380.160 9   -387321.43748  21239950.367    21239950.3084   21239957.5854
        -0.000          -0.000
 99  4  6 20  3 30.0000000  0  7 24  4 30  5  7  8  9               -0.000000327
  -2791134.261 9  -1993717.65048  20753013.548    20753013.4884   20753021.7664
        -0.000          -0.000
   -406602.657 9   -345184.73549  20466664.158    20466664.4434   20466671.3404
        -0.000          -0.000
  -1359285.130 8   -799068.41652         0.000           0.0004          0.0005
        -0.000          -0.000
  -3209450.944 9  -2489162.66347  21962306.783    21962306.2834   21962314.0784
        -0.000          -0.000
    823973.653 8    629622.20044  23113311.097    23113310.3584   23113319.6464
        -0.000          -0.000
  -2690374.638 9  -2083173.44447  21859090.368    21859089.9164   21859097.8684
        -0.000          -0.000
   -433923.665 9   -365147.59448  21245365.383    21245365.3104   21245372.8364
        -0.000          -0.000
 99  4  6 20  4  0.0000000  0  7 24  4 30  5  7  8  9               -0.000000322
  -2845842.303 9  -2036347.23448  20742602.912    20742602.8054   20742611.0544
        -0.000          -0.000
   -376222.621 9   -321511.97049  20472445.408    20472445.6614   20472452.4834
        -0.000          -0.000
  -1456194.556 7   -874584.28252         0.000           0.0004          0.0005
        -0.000          -0.000
  -3283892.274 9  -2547168.86447  21948140.789    21948140.4894   21948148.3164
        -0.000          -0.000
    890194.800 7    681222.96144  23125912.471    23125911.8534   23125921.1514
        -0.000          -0.000
  -2741547.845 9  -2123048.64947  21849352.431    21849351.9394   21849359.6964
        -0.000          -0.000
   -404874.414 9   -342511.85048  21250893.166    21250893.1634   21250900.8044
        -0.000          -0.000
 99  4  6 20  4 30.0000000  0  7 24  4 30  5  7  8  9               -0.000000289
  -2900078.530 9  -2078609.18048  20732281.899    20732281.8604   20732290.1784
        -0.000          -0.000
   -345328.335 9   -297438.50249  20478324.403    20478324.6514   20478331.5534
        -0.000          -0.000
  -1553221.911 8   -701292.69342         0.000           0.0004          0.0004
        -0.000          -0.000
  -3358210.181 9  -2605078.89147  21933998.623    21933998.3184   21934006.0424
        -0.000          -0.000
    956417.887 7    732825.24754  23138514.009    23138513.4744          0.0005
        -0.000          -0.000
  -2792181.683 9  -2162503.55847  21839716.946    21839716.5794   21839724.3564
        -0.000          -0.000
   -375302.969 9   -319469.20648  21256520.556    21256520.5264   21256528.0124
        -0.000          -0.000
 99  4  6 20  5  0.0000000  0  7 24  4 30  5  7  8  9               -0.000000230
  -2953860.763 9  -2120517.35948  20722047.440    20722047.3954   20722055.7514
        -0.000          -0.000
   -313934.443 9   -272975.73049  20484298.514    20484298.7954   20484305.6124
        -0.000          -0.000
  -1650372.069 8   -776992.74342         0.000           0.0004          0.0004
        -0.000          -0.000
  -3432428.454 9  -2662911.27147  21919875.611    21919875.1964   21919882.8214
        -0.000          -0.000
   1022643.755 7    784429.32254  23151115.999    23151114.5954          0.0005
        -0.000          -0.000
  -2842289.655 9  -2201548.72147  21830181.653    21830181.2904   21830189.1574
        -0.000          -0.000
   -345248.843 9   -296050.43548  21262239.851    21262239.7574   21262247.0604
        -0.000          -0.000
 99  4  6 20  5 30.0000000  0  7 24  4 30  5  7  8  9               -0.000000175
  -3007217.697 9  -2162094.13548  20711893.894    20711893.8344   20711902.2804
        -0.000          -0.000
   -282061.020 9   -248139.29949  20490363.966    20490364.2164   20490370.9254
        -0.000          -0.000
  -1747641.816 7   -852782.98952         0.000           0.0004          0.0005
        -0.000          -0.000
  -3506572.558 9  -2720685.85247  21905766.803    21905766.2334   21905773.7294
        -0.000          -0.000
   1088844.105 8    836013.88644  23163713.750    23163712.4544   23163722.9274
        -0.000          -0.000
  -2891897.919 9  -2240204.50447  21820741.442    21820741.1554   21820749.0474
        -0.000          -0.000
   -314746.177 9   -272282.16948  21268044.362    21268044.2504   21268051.6064
        -0.000          -0.000
 99  4  6 20  6  0.0000000  0  7 24  4 30  5  7  8  9               -0.000000113
  -3060134.555 9  -2203327.99549  20701824.157    20701824.1254   20701832.5704
        -0.000          -0.000
   -249727.908 9   -222944.66849  20496516.941    20496517.1664   20496523.7314
        -0.000          -0.000
  -1845013.727 8   -676683.44442         0.000           0.0004          0.0004
        -0.000          -0.000
  -3580646.526 9  -2778405.78547  21891671.070    21891670.4024   21891677.8344
        -0.000          -0.000
   1155011.203 8    887572.64544  23176305.027    23176303.4384   23176313.9764
        -0.000          -0.000
  -2941021.529 9  -2278482.63247  21811393.551    21811393.3074   21811401.2444
        -0.000          -0.000
   -283798.140 9   -248166.85148  21273933.581    21273933.4724   21273940.9084
        -0.000          -0.000
 99  4  6 20  6 30.0000000  0  7 24  4 30  5  7  8  9               -0.000000075
  -3112593.783 9  -2244205.26749  20691841.596    20691841.5364   20691849.9294
        -0.000          -0.000
   -216918.164 9   -197378.63849  20502760.447    20502760.6644   20502767.2264
        -0.000          -0.000
  -1942460.597 8   -752617.53442         0.000           0.0004          0.0004
        -0.000          -0.000
  -3654627.592 9  -2836053.33647  21877592.692    21877592.1384   21877599.5304
        -0.000          -0.000
   1221141.460 7    939102.61444  23188889.256    23188887.6384   23188898.6864
        -0.000          -0.000
  -2989665.050 9  -2316386.66447  21802136.933    21802136.7354   21802144.7734
        -0.000          -0.000
   -252411.071 9   -223709.44348  21279906.407    21279906.2574   21279913.6054
        -0.000          -0.000
 99  4  6 20  7  0.0000000  0  7 24  4 30  5  7  8  9               -0.000000092
  -3164569.581 9  -2284705.84149  20681950.918    20681950.8444   20681959.2564
        -0.000          -0.000
   -183591.446 9   -171409.76749  20509102.209    20509102.4644   20509109.0364
        -0.000          -0.000
  -2039969.739 8   -828606.09052         0.000           0.0004          0.0005
        -0.000          -0.000
  -3728482.357 9  -2893602.47047  21863538.486    21863537.9874   21863545.2654
        -0.000          -0.000
   1287237.414 8    990605.76444  23201467.317    23201465.7664   23201476.0674
        -0.000          -0.000
  -3037810.056 9  -2353902.24947  21792975.280    21792975.0074   21792983.1014
        -0.000          -0.000
   -220560.798 9   -198891.09848  21285967.191    21285967.0624   21285974.4624
        -0.000          -0.000
 99  4  6 20  7 30.0000000  0  7 24  4 30  5  7  8  9               -0.000000126
  -3215970.535 9  -2324758.47948  20672169.588    20672169.4854   20672177.9424
        -0.000          -0.000
   -149666.598 9   -144974.84049  20515557.820    20515558.0654   20515564.6284
        -0.000          -0.000
  -2137460.038 8    899517.392 1         0.000           0.000           0.000
        -0.000          -0.000
  -3802104.013 9  -2950969.94947  21849528.588    21849528.1474   21849535.4484
        -0.000          -0.000
   1353364.443 7   1042133.19944  23214050.858    23214049.9354   23214060.0594
        -0.000          -0.000
  -3085355.866 9  -2390950.91547  21783927.542    21783927.3114   21783935.4704
        -0.000          -0.000
   -188144.179 9   -173631.43248  21292135.763    21292135.7214   21292143.1904
        -0.000          -0.000
 99  4  6 20  8  0.0000000  0  7 24  4 30  5  7  8  9               -0.000000158
  -3266780.830 9  -2364350.87449  20662500.667    20662500.6384   20662509.0484
        -0.000          -0.000
   -115125.812 9   -118059.95949  20522130.673    20522130.9344   20522137.4724
        -0.000          -0.000
  -2234929.230 8   -728739.41942         0.000           0.0004          0.0004
        -0.000          -0.000
  -3875465.924 9  -3008135.01347  21835568.145    21835567.7414   21835575.1034
        -0.000          -0.000
   1419542.068 8   1093700.01344  23226644.382    23226643.8684   23226652.7134
        -0.000          -0.000
  -3132270.808 9  -2427507.99947  21774999.979    21774999.7514   21775007.8704
        -0.000          -0.000
   -155139.944 9   -147913.89448  21298416.190    21298416.1744   21298423.8474
        -0.000          -0.000
 99  4  6 20  8 30.0000000  0  7 24  4 30  5  7  8  9               -0.000000197
  -3317050.518 9  -2403522.00549  20652934.778    20652934.6914   20652943.0104
        -0.000          -0.000
    -80003.795 9    -90692.15549  20528814.118    20528814.3684   20528820.9624
        -0.000          -0.000
  -2332418.689 8   -804707.37052         0.000           0.0004          0.0005
        -0.000          -0.000
  -3948595.613 9  -3065119.15547  21821652.018    21821651.6254   21821658.9744
        -0.000          -0.000
   1485750.941 7   1145291.19144  23239244.138    23239243.7934   23239252.2314
        -0.000          -0.000
  -3178566.294 9  -2463582.39147  21766190.387    21766190.1104   21766198.1554
        -0.000          -0.000
   -121584.820 9   -121767.09248  21304801.572    21304801.5334   21304809.2834
        -0.000          -0.000
 99  4  6 20  9  0.0000000  0  7 24  4 30  5  7  8  9               -0.000000225
  -3366822.179 9  -2442305.07448  20643463.488    20643463.4284   20643471.6154
        -0.000          -0.000
    -44335.143 9    -62898.39949  20535601.437    20535601.6794   20535608.4704
        -0.000          -0.000
  -2429954.804 8   -880711.66452         0.000           0.0004          0.0005
        -0.000          -0.000
  -4021517.384 9  -3121941.27247  21807775.559    21807775.1124   21807782.4034
        -0.000          -0.000
   1551980.454 7   1196898.55344  23251847.166    23251846.8414   23251855.6674
        -0.000          -0.000
  -3224238.745 9  -2499171.32147  21757499.175    21757498.9374   21757506.9774
        -0.000          -0.000
    -87483.755 9    -95194.86848  21311290.881    21311290.8504   21311298.4774
        -0.000          -0.000
 99  4  6 20  9 30.0000000  0  7 24  4 30  5  7  8  9               -0.000000215
  -3416119.862 9  -2480718.80948  20634082.335    20634082.2824   20634090.5084
        -0.000          -0.000
     -8155.073 9    -34706.14149  20542486.271    20542486.5124   20542493.3154
        -0.000          -0.000
  -2527555.737 8   -703795.73142         0.000           0.0004          0.0004
        -0.000          -0.000
  -4094269.745 9  -3178631.38247  21793931.234    21793930.7264   21793937.9894
        -0.000          -0.000
   1618233.212 8   1248524.02954  23264454.725    23264455.2194          0.0005
        -0.000          -0.000
  -3269321.697 9  -2534300.86847  21748920.225    21748919.9764   21748928.0364
        -0.000          -0.000
    -52857.567 9    -68213.46848  21317880.176    21317880.0794   21317887.5164
        -0.000          -0.000
 99  4  6 20 10  0.0000000  0  7 24  4 30  5  7  8  9               -0.000000180
  -3464968.581 9  -2518782.70248  20624786.643    20624786.5574   20624794.8384
        -0.000          -0.000
     28509.364 9     -6136.46549  20549463.449    20549463.6524   20549470.3624
        -0.000          -0.000
  -2625245.627 8   -779919.39352         0.000           0.0004          0.0005
        -0.000          -0.000
  -4166900.763 9  -3235226.95247  21780109.858    21780109.4544   21780116.6784
        -0.000          -0.000
   1684491.79117   1300154.00553         0.000           0.0005          0.0005
        -0.000          -0.000
  -3313863.189 9  -2569008.51747  21740444.296    21740444.0244   21740452.0484
        -0.000          -0.000
    -17741.470 9    -40850.32948  21324562.457    21324562.4134   21324569.9474
        -0.000          -0.000
 99  4  6 20 10 30.0000000  0  7 24  4 30  5  7  8  9               -0.000000134
  -3513370.456 9  -2556498.39348  20615575.998    20615575.9044   20615584.1904
        -0.000          -0.000
     65645.997 9     22801.15949  20556530.437    20556530.6004   20556537.2564
        -0.000          -0.000
  -2723024.629 8   -856112.46152         0.000           0.0004          0.0005
        -0.000          -0.000
  -4239427.383 9  -3291741.16547  21766308.466    21766308.1184   21766315.2814
        -0.000          -0.000
   1750734.97318   1351772.00854         0.000           0.0005          0.0005
        -0.000          -0.000
  -3357875.544 9  -2603303.83447  21732068.979    21732068.7324   21732076.7624
        -0.000          -0.000
     17855.071 9    -13112.80548  21331336.293    21331336.2434   21331343.9434
        -0.000          -0.000
 99  4  6 20 11  0.0000000  0  7 24  4 30  5  7  8  9               -0.000000124
  -3561340.183 9  -2593877.35748  20606447.622    20606447.5634   20606455.8554
        -0.000          -0.000
    103243.827 9     52098.16549  20563685.065    20563685.2674   20563691.9534
        -0.000          -0.000
  -2820918.961 8   -676827.04242         0.000           0.0004          0.0004
        -0.000          -0.000
  -4311873.308 9  -3348192.49947  21752522.494    21752522.1024   21752529.3644
        -0.000          -0.000
   1816920.19116   -569063.23142         0.000           0.0005          0.0004
        -0.000          -0.000
  -3401396.234 9  -2637216.03547  21723787.285    21723787.0554   21723795.0654
        -0.000          -0.000
     53908.245 9     14980.52148  21338197.124    21338197.0134   21338204.8044
        -0.000          -0.000
 99  4  6 20 11 30.0000000  0  7 24  4 30  5  7  8  9               -0.000000119
  -3608776.788 9  -2630840.90549  20597420.794    20597420.6724   20597428.9204
        -0.000          -0.000
    141388.077 9     81820.93949  20570943.710    20570943.9124   20570950.6184
        -0.000          -0.000
  -2918852.214 8   -753139.43952         0.000           0.0004          0.0005
        -0.000          -0.000
  -4384160.684 9  -3404520.28847  21738766.484    21738766.1054   21738773.4544
        -0.000          -0.000
   1883122.324 7   -517477.31152         0.000           0.0004          0.0005
        -0.000          -0.000
  -3444360.228 9  -2670694.46447  21715611.597    21715611.3654   21715619.3414
        -0.000          -0.000
     90490.155 9     43485.85848  21345158.541    21345158.4144   21345166.1774
        -0.000          -0.000
 99  4  6 20 12  0.0000000  0  7 24  4 30  5  7  8  9               -0.000000123
  -3655659.391 9  -2667372.76248  20588499.244    20588499.1394   20588507.3964
        -0.000          -0.000
    180100.089 9    111986.12549  20578310.435    20578310.6024   20578317.2614
        -0.000          -0.000
  -3016807.751 8   -829468.83452         0.000           0.0004          0.0005
        -0.000          -0.000
  -4456252.126 9  -3460695.38347  21725047.820    21725047.4434   21725054.8574
        -0.000          -0.000
   1949346.421 7   -465874.06252         0.000           0.0004          0.0005
        -0.000          -0.000
  -3486719.302 9  -2703701.52547  21707551.050    21707550.7454   21707558.7074
        -0.000          -0.000
    127609.872 9     72410.26648  21352222.362    21352222.2044   21352229.9104
        -0.000          -0.000
 99  4  6 20 12 30.0000000  0  7 24  4 30  5  7  8  9               -0.000000138
  -3701983.527 9  -2703469.45748  20579684.079    20579683.9614   20579692.1494
        -0.000          -0.000
    219398.869 9    142608.54349  20585788.778    20585788.9554   20585795.5744
        -0.000          -0.000
  -3114773.562 8   -649137.70742         0.000           0.0004          0.0004
        -0.000          -0.000
  -4528120.266 9  -3516696.49247  21711371.682    21711371.2814   21711378.7734
        -0.000          -0.000
   2015597.56218   -414249.80554         0.000           0.0005          0.0005
        -0.000          -0.000
  -3528446.544 9  -2736216.24647  21699610.571    21699610.2334   21699618.3304
        -0.000          -0.000
    165287.611 9    101769.48648  21359392.264    21359392.1604   21359399.7394
        -0.000          -0.000
 99  4  6 20 13  0.0000000  0  7 24  4 30  5  7  8  9               -0.000000162
  -3747756.780 9  -2739136.86548  20570973.800    20570973.6614   20570981.7574
        -0.000          -0.000
    259291.005 9    173693.30249  20593379.844    20593380.0604   20593386.8744
        -0.000          -0.000
  -3212757.096 8   -725488.15352         0.000           0.0004          0.0005
        -0.000          -0.000
  -4599755.239 9  -3572515.92448  21697739.858    21697739.5374   21697747.2254
        -0.000          -0.000
   2081890.36417   -362593.23754         0.000           0.0005          0.0005
        -0.000          -0.000
  -3569548.959 9  -2768244.10147  21691788.789    21691788.5184   21691796.7294
        -0.000          -0.000
    203516.646 9    131558.28848  21366667.019    21366666.9044   21366674.4764
        -0.000          -0.000
 99  4  6 20 13 30.0000000  0  6 24  4 30  5  8  9                  -0.000000194
  -3792758.082 9  -2774202.77949  20562410.456    20562410.2694   20562418.1484
        -0.000          -0.000
    299995.485 9    205411.07649  20601125.583    20601125.8184   20601132.7334
        -0.000          -0.000
  -3310528.862 8   -801673.94344         0.000           0.0004   24821222.6354
        -0.000          -0.000
  -4670932.439 9  -3627978.65248  21684195.325    21684194.9944   21684202.8184
        -0.000          -0.000
  -3609791.674 9  -2799602.05247  21684130.616    21684130.3794   21684138.7644
        -0.000          -0.000
    242516.582 9    161947.80148  21374088.293    21374088.2474   21374095.9364
        -0.000          -0.000
 99  4  6 20 14  0.0000000  0  6 24  4 30  5  8  9                   0.000000072
  -3837359.447 9  -2808957.05649  20553923.216    20553922.9754   20553930.7484
        -0.000          -0.000
    341146.899 9    237477.10949  20608956.277    20608956.5564   20608963.5844
        -0.000          -0.000
  -3408440.371 8   -877968.54345  24802582.006    24802582.5894   24802589.4374
        -0.000          -0.000
  -4741994.900 9  -3683351.95848  21670672.608    21670672.2264   21670680.1754
        -0.000          -0.000
  -3649529.564 9  -2830566.62747  21676568.597    21676568.3844   21676577.0124
        -0.000          -0.000
    281930.855 9    192660.17748  21381588.512    21381588.4944   21381596.3144
        -0.000          -0.000
 99  4  6 20 14 30.0000000  0  6 24  4 30  5  8  9                   0.000000148
  -3881639.864 9  -2843461.23448  20545496.755    20545496.5194   20545504.4654
        -0.000          -0.000
    382671.430 9    269833.88249  20616858.100    20616858.4264   20616865.4754
        -0.000          -0.000
  -3506563.068 8   -954427.70145  24783909.812    24783909.6264   24783918.5694
        -0.000          -0.000
  -4813013.488 9  -3738691.10148  21657158.128    21657157.7724   21657165.7554
        -0.000          -0.000
  -3688861.178 9  -2861214.63247  21669084.202    21669083.9554   21669092.5014
        -0.000          -0.000
    321682.639 9    223635.54448  21389153.028    21389153.0084   21389160.9384
        -0.000          -0.000
 99  4  6 20 15  0.0000000  0  6 24  4 30  5  8  9                   0.000000107
  -3925453.928 9  -2877602.00848  20537159.011    20537158.8114   20537166.9924
        -0.000          -0.000
    424681.468 9    302568.98749  20624852.375    20624852.6424   20624859.7414
        -0.000          -0.000
  -3604760.444 8  -1030945.08245  24765223.184    24765223.2934   24765231.3214
        -0.000          -0.000
  -4883857.304 9  -3793894.04648  21643676.821    21643676.5744   21643684.6064
        -0.000          -0.000
  -3727654.689 9  -2891443.33447  21661702.208    21661701.9364   21661710.3484
        -0.000          -0.000
    361887.195 9    254963.70748  21396803.712    21396803.7414   21396811.7254
        -0.000          -0.000
 99  4  6 20 15 30.0000000  0  6 24  4 30  5  8  9                   0.000000000
  -3968705.720 9  -2911304.67249  20528928.459    20528928.2894   20528936.4374
        -0.000          -0.000
    467242.606 9    335733.51949  20632951.490    20632951.7754   20632958.9004
        -0.000          -0.000
  -3702932.355 8  -1107442.63145  24746541.699    24746541.8564   24746549.8954
        -0.000          -0.000
  -4954440.164 9  -3848893.63348  21630245.404    21630245.1134   21630253.1404
        -0.000          -0.000
  -3765813.798 9  -2921177.70147  21654441.071    21654440.6824   21654448.9104
        -0.000          -0.000
    402636.905 9    286716.68148  21404558.304    21404558.3024   21404566.2334
        -0.000          -0.000
 99  4  6 20 16  0.0000000  0  6 24  4 30  5  8  9                  -0.000000163
  -4011270.544 9  -2944472.03149  20520828.703    20520828.5264   20520836.5924
        -0.000          -0.000
    510466.825 9    369414.72149  20641176.873    20641177.1504   20641184.2124
        -0.000          -0.000
  -3800963.463 8  -1183830.45245  24727887.128    24727887.3904   24727895.2284
        -0.000          -0.000
  -5024640.260 9  -3903594.98348  21616886.813    21616886.4814   21616894.4384
        -0.000          -0.000
  -3803223.076 9  -2950327.78047  21647322.331    21647321.9614   21647330.0914
        -0.000          -0.000
    444054.309 9    318989.93748  21412439.906    21412439.8964   21412447.8354
        -0.000          -0.000
 99  4  6 20 16 30.0000000  0  6 24  4 30  5  8  9                  -0.000000250
  -4053217.765 9  -2977158.13749  20512846.425    20512846.2424   20512854.2414
        -0.000          -0.000
    554274.875 9    403550.85849  20649513.361    20649513.5994   20649520.6114
        -0.000          -0.000
  -3898935.146 9  -1260171.92145  24709243.617    24709243.8474   24709252.1634
        -0.000          -0.000
  -5094550.570 9  -3958070.50848  21603583.314    21603582.9814   21603590.6964
        -0.000          -0.000
  -3839949.524 9  -2978945.78647  21640333.579    21640333.2094   21640341.2834
        -0.000          -0.000
    486059.950 9    351721.55148  21420433.468    21420433.3834   21420441.3194
        -0.000          -0.000
 99  4  6 20 17  0.0000000  0  6 24  4 30  5  8  9                  -0.000000268
  -4094701.269 9  -3009482.90249  20504952.254    20504952.0874   20504960.2654
        -0.000          -0.000
    598500.150 9    438012.11149  20657929.144    20657929.3934   20657936.3614
        -0.000          -0.000
  -3997000.546 8  -1336586.46545  24690581.731    24690582.1364   24690591.1364
        -0.000          -0.000
  -5164340.691 9  -4012452.38448  21590302.930    21590302.4654   21590309.8554
        -0.000          -0.000
  -3876139.428 9  -3007145.70647  21633446.904    21633446.5264   21633454.4954
        -0.000          -0.000
    528503.842 9    384794.65048  21428510.178    21428510.0914   21428518.1894
        -0.000          -0.000
 99  4  6 20 17 30.0000000  0  6 24  4 30  5  8  9                  -0.000000174
  -4135839.836 9  -3041538.87649  20497123.763    20497123.5874   20497131.9114
        -0.000          -0.000
    643052.721 9    472728.40649  20666407.326    20666407.5444   20666414.4264
        -0.000          -0.000
  -4095272.171 8  -1413161.65745  24671881.141    24671881.5114   24671890.8934
        -0.000          -0.000
  -5234122.945 9  -4066828.10948  21577023.835    21577023.3784   21577030.7274
        -0.000          -0.000
  -3911903.610 9  -3035013.89747  21626641.343    21626640.8684   21626648.7584
        -0.000          -0.000
    571276.512 9    418123.94248  21436649.488    21436649.4064   21436657.6694
        -0.000          -0.000
 99  4  6 20 18  0.0000000  0  6 24  4 30  5  8  9                  -0.000000044
  -4176726.952 9  -3073398.92749  20489343.075    20489342.9234   20489351.3324
        -0.000          -0.000
    687847.005 9    507633.03049  20674931.480    20674931.6734   20674938.5324
        -0.000          -0.000
  -4193854.924 8  -1489979.30945  24653121.556    24653121.9094   24653130.9674
        -0.000          -0.000
  -5303993.494 9  -4121272.65848  21563727.805    21563727.4024   21563734.8424
        -0.000          -0.000
  -3947336.717 9  -3062624.10847  21619898.652    21619898.1364   21619905.9384
        -0.000          -0.000
    614269.165 9    451624.65748  21444830.656    21444830.6924   21444838.8474
        -0.000          -0.000
 99  4  6 20 18 30.0000000  0  6 24  4 30  5  8  9                   0.000000029
  -4217351.559 9  -3105054.42648  20481612.442    20481612.3354   20481620.6224
        -0.000          -0.000
    732889.113 9    542730.77249  20683502.759    20683502.9794   20683509.8244
        -0.000          -0.000
  -4292721.551 9  -1567018.17445  24634307.402    24634308.0744   24634317.3904
        -0.000          -0.000
  -5373936.872 9  -4175773.94548  21550418.054    21550417.6264   21550425.0784
        -0.000          -0.000
  -3982427.985 9  -3089967.93947  21613220.832    21613220.3494   21613228.2894
        -0.000          -0.000
    657480.024 9    485295.40248  21453053.680    21453053.6794   21453061.6734
        -0.000          -0.000
 99  4  6 20 19  0.0000000  0  6 24  4 30  5  8  9                   0.000000024
  -4257502.212 9  -3136340.61049  20473972.125    20473972.0044   20473980.0164
        -0.000          -0.000
    778387.260 9    578183.87049  20692160.823    20692161.0054   20692167.8324
        -0.000          -0.000
  -4391660.839 9  -1644113.63645  24615479.897    24615480.5274   24615489.4534
        -0.000          -0.000
  -5443731.158 9  -4230159.07048  21537136.646    21537136.1714   21537143.5534
        -0.000          -0.000
  -4016978.249 9  -3116890.23247  21606646.153    21606645.6914   21606653.6104
        -0.000          -0.000
    701103.395 9    519287.58248  21461355.097    21461355.0434   21461363.0374
        -0.000          -0.000
 99  4  6 20 19 30.0000000  0  6 24  4 30  5  8  9                  -0.000000013
  -4296994.757 9  -3167113.99049  20466456.976    20466456.8474   20466464.6724
        -0.000          -0.000
    824512.048 9    614125.25749  20700938.032    20700938.2694   20700945.0414
        -0.000          -0.000
  -4490488.499 9  -1721122.07845  24596673.806    24596674.2864   24596682.9794
        -0.000          -0.000
  -5513189.940 9  -4284282.77048  21523919.038    21523918.5424   21523925.9464
        -0.000          -0.000
  -4050806.220 9  -3143249.68747  21600208.993    21600208.4674   21600216.3894
        -0.000          -0.000
    745317.922 9    553740.40048  21469768.682    21469768.6994   21469776.8924
        -0.000          -0.000
 99  4  6 20 20  0.0000000  0  6 24  4 30  5  8  9                  -0.000000099
  -4335759.671 9  -3197320.36349  20459080.161    20459080.0244   20459087.8854
        -0.000          -0.000
    871309.082 9    650590.47349  20709843.285    20709843.5344   20709850.1924
        -0.000          -0.000
  -4589131.253 9  -1797986.48745  24577902.823    24577903.1524   24577911.6694
        -0.000          -0.000
  -5582233.424 9  -4338082.85448  21510780.405    21510779.9674   21510787.3604
        -0.000          -0.000
  -4083839.257 9  -3168989.71847  21593922.932    21593922.4394   21593930.4154
        -0.000          -0.000
    790204.825 9    588717.13248  21478310.304    21478310.3354   21478318.6544
        -0.000          -0.000
 99  4  6 20 20 30.0000000  0  6 24  4 30  5  8  9                  -0.000000196
  -4373511.489 9  -3226737.31248  20451896.110    20451896.0074   20451903.8344
        -0.000          -0.000
    919065.064 9    687802.91949  20718931.027    20718931.2624   20718937.9244
        -0.000          -0.000
  -4687290.978 9  -1874474.48845  24559223.819    24559224.1634   24559232.4994
        -0.000          -0.000
  -5650556.066 9  -4391321.23448  21497779.136    21497778.6474   21497785.9694
        -0.000          -0.000
  -4115784.902 9  -3193882.42847  21587843.778    21587843.3574   21587851.3064
        -0.000          -0.000
    836066.492 9    624453.43948  21487037.502    21487037.5334   21487045.6624
        -0.000          -0.000
 99  4  6 20 21  0.0000000  0  6 24  4 30  5  8  9                  -0.000000095
  -4410912.267 9  -3255880.74049  20444778.970    20444778.8744   20444786.7154
        -0.000          -0.000
    967126.547 9    725253.42449  20728076.776    20728077.0214   20728083.7944
        -0.000          -0.000
  -4785638.509 9  -1951108.78945  24540509.100    24540509.3094   24540517.9364
        -0.000          -0.000
  -5718821.033 9  -4444514.68048  21484788.718    21484788.2104   21484795.4884
        -0.000          -0.000
  -4147304.453 9  -3218443.11047  21581845.782    21581845.3204   21581853.5094
        -0.000          -0.000
    882238.131 9    660431.28248  21495823.807    21495823.7214   21495831.7164
        -0.000          -0.000
 99  4  6 20 21 30.0000000  0  6 24  4 30  5  8  9                  -0.000000041
  -4447833.248 9  -3284650.29449  20437753.207    20437753.1184   20437760.8864
        -0.000          -0.000
   1015612.020 9    763034.30449  20737303.268    20737303.5134   20737310.3224
        -0.000          -0.000
  -4884050.278 8  -2027793.21745  24521781.489    24521781.8954   24521791.2074
        -0.000          -0.000
  -5786900.085 9  -4497563.25748  21471833.572    21471833.1404   21471840.5244
        -0.000          -0.000
  -4178274.816 9  -3242575.86347  21575952.274    21575951.7994   21575960.2464
        -0.000          -0.000
    928852.961 9    696754.47748  21504694.388    21504694.2704   21504702.3114
        -0.000          -0.000
 99  4  6 20 22  0.0000000  0  6 24  4 30  5  8  9                  -0.000000012
  -4484210.674 9  -3312996.30549  20430830.848    20430830.7204   20430838.5124
        -0.000          -0.000
   1064607.573 9    801212.64749  20746626.796    20746627.0394   20746633.7564
        -0.000          -0.000
  -4982475.322 8  -2104487.94745  24503051.306    24503051.8214   24503061.6384
        -0.000          -0.000
  -5854715.318 9  -4550406.27548  21458928.694    21458928.3034   21458935.8414
        -0.000          -0.000
  -4208626.113 9  -3266226.21547  21570176.693    21570176.1984   21570184.7604
        -0.000          -0.000
    975970.189 9    733469.13048  21513660.428    21513660.3934   21513668.5594
        -0.000          -0.000
 99  4  6 20 22 30.0000000  0  6 24  4 30  5  8  9                   0.000000018
  -4520025.529 9  -3340903.93749  20424015.480    20424015.3194   20424023.1694
        -0.000          -0.000
   1114137.899 9    839807.69449  20756052.165    20756052.4244   20756058.9324
        -0.000          -0.000
  -5080895.876 9  -2181179.18345  24484322.122    24484322.7964   24484332.5374
        -0.000          -0.000
  -5922263.170 9  -4603040.92648  21446074.718    21446074.3424   21446081.8884
        -0.000          -0.000
  -4238344.064 9  -3289383.06947  21564521.784    21564521.2124   21564529.5954
        -0.000          -0.000
   1023583.606 9    770570.42748  21522721.120    21522721.0604   21522729.0814
        -0.000          -0.000
 99  4  6 20 23  0.0000000  0  6 24  4 30  5  8  9                   0.000000061
  -4555287.634 9  -3368380.85849  20417305.108    20417304.9944   20417313.0304
        -0.000          -0.000
   1164188.981 9    878808.52748  20765576.667    20765576.8504   20765583.3194
        -0.000          -0.000
  -5179324.913 8  -2257877.05345  24465591.505    24465592.2044   24465601.8194
        -0.000          -0.000
  -5989577.884 9  -4655493.91848  21433265.125    21433264.7504   21433272.1614
        -0.000          -0.000
  -4267433.846 9  -3312050.42347  21558986.369    21558985.7544   21558993.9044
        -0.000          -0.000
   1071677.120 9    808045.84148  21531873.121    21531873.0444   21531880.9064
        -0.000          -0.000
 99  4  6 20 23 30.0000000  0  6 24  4 30  5  8  9                   0.000000087
  -4590028.847 9  -3395451.90249  20410693.944    20410693.8814   20410701.9874
        -0.000          -0.000
   1214717.408 9    918181.31948  20775191.775    20775191.9644   20775198.5794
        -0.000          -0.000
  -5277789.372 9  -2334602.49845  24446854.049    24446854.7054   24446864.5454
        -0.000          -0.000
  -6056686.083 9  -4707785.99648  21420494.810    21420494.4404   21420501.7914
        -0.000          -0.000
  -4295911.065 9  -3334240.46847  21553567.415    21553566.8264   21553574.8134
        -0.000          -0.000
   1120235.335 9    845883.35248  21541113.542    21541113.4484   21541121.2944
        -0.000          -0.000
 99  4  6 20 24  0.0000000  0  6 24  4 30  5  8  9                   0.000000110
  -4624257.305 9  -3422123.39949  20404180.531    20404180.4704   20404188.4554
        -0.000          -0.000
   1265734.402 9    957934.80948  20784899.871    20784900.0834   20784906.8204
        -0.000          -0.000
  -5376275.157 9  -2411344.56545  24428112.578    24428113.3894   24428123.1854
        -0.000          -0.000
  -6123588.345 9  -4759917.60148  21407763.610    21407763.2744   21407770.7064
        -0.000          -0.000
  -4323761.971 9  -3355942.45947  21548267.608    21548266.9854   21548274.8794
        -0.000          -0.000
   1169250.951 9    884077.27648  21550440.814    21550440.7614   21550448.7294
        -0.000          -0.000
 99  4  6 20 24 30.0000000  0  6 24  4 30  5  8  9                   0.000000127
  -4658017.014 9  -3448429.62149  20397756.308    20397756.2074   20397764.1584
        -0.000          -0.000
   1317178.590 9    998021.16948  20794689.286    20794689.5164   20794696.2474
        -0.000          -0.000
  -5474811.567 9  -2488126.09445  24409361.925    24409362.8184   24409372.1844
        -0.000          -0.000
  -6190334.036 9  -4811927.20848  21395062.325    21395061.9374   21395069.5304
        -0.000          -0.000
  -4351036.357 9  -3377195.26147  21543077.449    21543076.7694   21543084.5894
        -0.000          -0.000
   1218678.244 9    922591.98048  21559846.566    21559846.5294   21559854.5504
        -0.000          -0.000
 99  4  6 20 25  0.0000000  0  6 24  4 30  5  8  9                   0.000000134
  -4691296.889 9  -3474361.96049  20391423.379    20391423.2724   20391431.2764
        -0.000          -0.000
   1369061.860 9   1038449.66248  20804562.281    20804562.5114   20804569.2094
        -0.000          -0.000
  -5573384.272 9  -2564935.91045  24390604.682    24390605.3954   24390614.5094
        -0.000          -0.000
  -6256891.599 9  -4863790.20748  21382396.773    21382396.3454   21382404.1074
        -0.000          -0.000
  -4377719.099 9  -3397987.00247  21537999.791    21537999.1544   21538006.8794
        -0.000          -0.000
   1268547.661 9    961451.21848  21569336.515    21569336.4394   21569344.4724
        -0.000          -0.000
 99  4  6 20 25 30.0000000  0  6 24  4 30  5  8  9                   0.000000117
  -4724091.207 9  -3499915.93549  20385182.781    20385182.6824   20385190.7874
        -0.000          -0.000
   1421391.942 9   1079226.33648  20814520.316    20814520.5574   20814527.3274
        -0.000          -0.000
  -5671984.003 8  -2641766.76545  24371841.819    24371842.4154   24371851.6734
        -0.000          -0.000
  -6323230.128 9  -4915482.54348  21369772.817    21369772.4054   21369780.3424
        -0.000          -0.000
  -4403816.414 9  -3418322.58347  21533033.526    21533032.9224   21533040.7254
        -0.000          -0.000
   1318857.871 9   1000653.91248  21578910.337    21578910.2814   21578918.2134
        -0.000          -0.000
 99  4  6 20 26  0.0000000  0  7 24  4 30  5  8  9 10                0.000000085
  -4756388.651 9  -3525082.74549  20379036.631    20379036.5274   20379044.7484
        -0.000          -0.000
   1474171.029 9   1120352.88048  20824563.816    20824564.0544   20824570.8604
        -0.000          -0.000
  -5770606.720 9  -2718615.53045  24353074.003    24353074.7984   24353084.2414
        -0.000          -0.000
  -6389344.747 9  -4967000.41148  21357191.443    21357191.1044   21357199.0574
        -0.000          -0.000
  -4429332.377 9  -3438205.14347  21528177.931    21528177.4034   21528185.3054
        -0.000          -0.000
   1369606.796 9   1040198.47348  21588567.574    21588567.5164   21588575.5424
        -0.000          -0.000
   -714882.218 8   -543670.18652         0.000           0.0004          0.0005
        -0.000          -0.000
 99  4  6 20 26 30.0000000  0  7 24  4 30  5  8  9 10                0.000000050
  -4788160.797 9  -3549840.22049  20372990.345    20372990.3134   20372998.5964
        -0.000          -0.000
   1527408.872 9   1161836.90748  20834694.792    20834695.0304   20834701.7474
        -0.000          -0.000
  -5869233.111 9  -2795467.22945  24334305.825    24334306.6504   24334316.0754
        -0.000          -0.000
  -6455215.088 9  -5018327.92348  21344656.744    21344656.4324   21344664.2994
        -0.000          -0.000
  -4454253.877 9  -3457624.50847  21523435.668    21523435.0764   21523443.0234
        -0.000          -0.000
   1420820.694 9   1080105.34248  21598313.277    21598313.2294   21598321.2884
        -0.000          -0.000
   -808917.79418   -616944.11344         0.000           0.0005   24247815.3444
        -0.000          -0.000
 99  4  6 20 27  0.0000000  0  7 24  4 30  5  8  9 10                0.000000015
  -4819448.820 9  -3574220.46349  20367036.415    20367036.3844   20367044.6794
        -0.000          -0.000
   1581068.018 9   1203649.22149  20844905.999    20844906.2314   20844912.8194
        -0.000          -0.000
  -5967903.241 9  -2872352.90845  24315529.862    24315530.5194   24315539.4844
        -0.000          -0.000
  -6520875.593 9  -5069491.92048  21332161.891    21332161.5624   21332169.4884
        -0.000          -0.000
  -4478617.638 9  -3476609.25347  21518799.482    21518798.8664   21518806.8094
        -0.000          -0.000
   1472452.320 9   1120337.71548  21608138.510    21608138.4674   21608146.5244
        -0.000          -0.000
   -903025.713 8   -690274.50745  24229889.879    24229888.0984   24229903.2494
        -0.000          -0.000
 99  4  6 20 27 30.0000000  0  7 24  4 30  5  8  9 10               -0.000000021
  -4850195.519 9  -3598178.90349  20361185.574    20361185.5254   20361193.7444
        -0.000          -0.000
   1635193.130 9   1245824.62949  20855205.881    20855206.0814   20855212.5834
        -0.000          -0.000
  -6066563.558 8  -2949230.94745  24296755.568    24296756.0864   24296764.8914
        -0.000          -0.000
  -6586282.710 9  -5120458.47548  21319715.333    21319714.9984   21319722.8134
        -0.000          -0.000
  -4502376.873 9  -3495122.93447  21514278.218    21514277.6354   21514285.4444
        -0.000          -0.000
   1524538.229 9   1160924.08248  21618050.164    21618050.1254   21618058.2444
        -0.000          -0.000
   -997170.690 8   -763633.79245  24211974.221    24211971.9614   24211987.6234
        -0.000          -0.000
 99  4  6 20 28  0.0000000  0  7 24  4 30  5  8  9 10               -0.000000036
  -4880385.776 9  -3621703.74849  20355440.559    20355440.5024   20355448.6314
        -0.000          -0.000
   1689801.368 9   1288376.49348  20865597.515    20865597.7374   20865604.2254
        -0.000          -0.000
  -6165190.096 9  -3026082.70245  24277987.530    24277987.8804   24277996.7974
        -0.000          -0.000
  -6651423.024 9  -5171217.13348  21307319.639    21307319.2494   21307326.8604
        -0.000          -0.000
  -4525503.554 9  -3513143.72947  21509877.376    21509876.8024   21509884.5104
        -0.000          -0.000
   1577097.332 9   1201879.17048  21628051.735    21628051.7314   21628060.0054
        -0.000          -0.000
  -1091323.045 8   -836998.87545  24194057.127    24194055.1464   24194071.2984
        -0.000          -0.000
 99  4  6 20 28 30.0000000  0  7 24  4 30  5  8  9 10               -0.000000036
  -4910048.535 9  -3644817.54449  20349795.932    20349795.8894   20349803.9144
        -0.000          -0.000
   1744878.306 9   1331293.56548  20876078.299    20876078.5414   20876085.0594
        -0.000          -0.000
  -6263796.059 9  -3102918.42545  24259223.258    24259223.6004   24259232.7234
        -0.000          -0.000
  -6716308.374 9  -5221777.11348  21294972.505    21294972.0874   21294979.4734
        -0.000          -0.000
  -4548023.255 9  -3530691.55748  21505591.996    21505591.4194   21505599.1424
        -0.000          -0.000
   1630103.323 9   1243182.47248  21638138.326    21638138.3884   21638146.7014
        -0.000          -0.000
  -1185493.636 8   -910378.13745  24176136.480    24176135.0204   24176152.2874
        -0.000          -0.000
 99  4  6 20 29  0.0000000  0  7 24  4 30  5  8  9 10               -0.000000034
  -4939196.573 9  -3667530.28249  20344249.215    20344249.1594   20344257.1844
        -0.000          -0.000
   1800412.722 9   1374567.11548  20886646.133    20886646.3964   20886652.9504
        -0.000          -0.000
  -6362397.546 9  -3179750.69745  24240459.909    24240460.3094   24240469.3414
        -0.000          -0.000
  -6780945.531 9  -5272143.70848  21282672.572    21282672.1224   21282679.4434
        -0.000          -0.000
  -4569946.850 9  -3547774.88448  21501419.995    21501419.4174   21501427.3314
        -0.000          -0.000
   1683541.352 9   1284822.43348  21648307.334    21648307.3984   21648315.5174
        -0.000          -0.000
  -1279702.562 8   -983787.27745  24158209.067    24158208.0004   24158225.0134
        -0.000          -0.000
 99  4  6 20 29 30.0000000  0  7 24  4 30  5  8  9 10               -0.000000010
  -4967782.918 9  -3689805.32549  20338809.367    20338809.3154   20338817.4184
        -0.000          -0.000
   1856428.045 9   1418215.42148  20897305.596    20897305.8364   20897312.3404
        -0.000          -0.000
  -6460959.096 9  -3256551.80045  24221704.254    24221704.6234   24221713.5224
        -0.000          -0.000
  -6845295.390 9  -5322286.42948  21270427.244    21270426.7604   21270434.0784
        -0.000          -0.000
  -4591239.239 9  -3564366.36048  21497368.106    21497367.5724   21497375.6184
        -0.000          -0.000
   1737451.575 9   1326830.33948  21658566.432    21658566.4064   21658574.2894
        -0.000          -0.000
  -1373909.521 8  -1057194.80645  24140282.082    24140280.8834   24140297.6954
        -0.000          -0.000
 99  4  6 20 30  0.0000000  0  7 24  4 30  5  8  9 10                0.000000004
  -4995854.411 9  -3711679.17549  20333467.589    20333467.5434   20333475.5624
        -0.000          -0.000
   1912879.320 9   1462203.41348  20908047.920    20908048.0904   20908054.6284
        -0.000          -0.000
  -6559526.654 8  -3333357.59245  24202947.463    24202947.6984   24202956.6514
        -0.000          -0.000
  -6909398.741 9  -5372237.07048  21258228.755    21258228.2854   21258235.6054
        -0.000          -0.000
  -4611940.498 9  -3580497.22048  21493428.588    21493428.1104   21493436.2874
        -0.000          -0.000
   1791794.416 9   1369175.36148  21668907.757    21668907.6574   21668915.5554
        -0.000          -0.000
  -1468150.400 8  -1130628.82045  24122347.805    24122346.8974   24122364.4724
        -0.000          -0.000
 99  4  6 20 30 30.0000000  0  7 24  4 30  5  8  9 10                0.000000007
  -5023382.920 9  -3733129.93249  20328229.310    20328229.1904   20328237.0374
        -0.000          -0.000
   1969770.947 9   1506534.53748  20918873.811    20918874.0354   20918880.8044
        -0.000          -0.000
  -6658090.544 8  -3410160.53345  24184191.188    24184191.5034   24184200.3774
        -0.000          -0.000
  -6973247.808 9  -5421989.54248  21246078.658    21246078.1764   21246085.4914
        -0.000          -0.000
  -4632040.713 9  -3596159.72748  21489603.398    21489603.0184   21489611.3164
        -0.000          -0.000
   1846578.195 9   1411863.96548  21679332.821    21679332.7604   21679340.7714
        -0.000          -0.000
  -1562425.162 8  -1204089.31345  24104407.640    24104406.6964   24104424.3674
        -0.000          -0.000
 99  4  6 20 31  0.0000000  0  7 24  4 30  5  8  9 10                0.000000009
  -5050340.424 9  -3754135.74449  20323099.529    20323099.3914   20323107.1694
        -0.000          -0.000
   2027123.332 9   1551224.68248  20929787.570    20929787.7804   20929794.6234
        -0.000          -0.000
  -6756637.677 9  -3486950.41045  24165438.173    24165438.4564   24165447.4274
        -0.000          -0.000
  -7036823.363 9  -5471528.91148  21233980.575    21233980.1224   21233987.4084
        -0.000          -0.000
  -4651498.689 9  -3611321.79348  21485900.671    21485900.3604   21485908.5414
        -0.000          -0.000
   1901817.917 9   1454907.84248  21689844.685    21689844.6134   21689852.6204
        -0.000          -0.000
  -1656709.184 8  -1277556.96545  24086465.774    24086464.8384   24086482.2444
        -0.000          -0.000
 99  4  6 20 31 30.0000000  0  7 24  4 30  5  8  9 10                0.000000009
  -5076752.173 9  -3774716.29749  20318073.490    20318073.3414   20318081.0634
        -0.000          -0.000
   2084923.887 9   1596264.06548  20940786.596    20940786.8054   20940793.6014
        -0.000          -0.000
  -6855178.808 8  -3563735.59245  24146686.657    24146686.8364   24146695.6004
        -0.000          -0.000
  -7100142.281 9  -5520868.30148  21221931.358    21221930.9134   21221938.3134
        -0.000          -0.000
  -4670310.925 9  -3625980.69948  21482320.977    21482320.6184   21482328.7464
        -0.000          -0.000
   1957500.669 9   1498296.92348  21700440.703    21700440.6384   21700448.7634
        -0.000          -0.000
  -1751002.222 8  -1351031.62945  24068522.404    24068521.3114   24068538.5054
        -0.000          -0.000
 99  4  6 20 32  0.0000000  0  7 24  4 30  5  8  9 10               -0.000000000
  -5102642.250 9  -3794890.34849  20313146.650    20313146.5224   20313154.2664
        -0.000          -0.000
   2143164.836 9   1641646.60648  20951869.352    20951869.5734   20951876.3694
        -0.000          -0.000
  -6953726.287 9  -3640525.76945  24127933.832    24127934.0984   24127942.5134
        -0.000          -0.000
  -7163224.893 9  -5570023.55248  21209927.083    21209926.6444   21209934.1004
        -0.000          -0.000
  -4688479.958 9  -3640138.39348  21478863.508    21478863.1624   21478871.2504
        -0.000          -0.000
   2013601.815 9   1542012.03648  21711116.365    21711116.3474   21711124.5144
        -0.000          -0.000
  -1845314.372 8  -1424521.26545  24050574.858    24050573.8364   24050591.2554
        -0.000          -0.000
 99  4  6 20 32 30.0000000  0  7 24  4 30  5  8  9 10                0.000000013
  -5127977.081 9  -3814631.74249  20308325.395    20308325.3094   20308333.1814
        -0.000          -0.000
   2201879.287 9   1687398.11748  20963042.186    20963042.4584   20963049.3444
        -0.000          -0.000
  -7052238.264 8  -3717288.22645  24109187.660    24109187.8274   24109196.2234
        -0.000          -0.000
  -7226029.105 9  -5618961.86248  21197975.723    21197975.3074   21197982.7834
        -0.000          -0.000
  -4705956.342 9  -3653756.34848  21475537.938    21475537.5654   21475545.5494
        -0.000          -0.000
   2070159.288 9   1586082.73548  21721878.930    21721878.8964   21721887.1274
        -0.000          -0.000
  -1939594.468 8  -1497985.93045  24032633.370    24032632.7554   24032649.7814
        -0.000          -0.000
 99  4  6 20 33  0.0000000  0  7 24  4 30  5  8  9 10               -0.000000002
  -5152850.959 9  -3834013.95549  20303591.897    20303591.8664   20303599.7854
        -0.000          -0.000
   2260979.062 9   1733449.87548  20974288.456    20974288.7524   20974295.6864
        -0.000          -0.000
  -7150803.746 9  -3794092.41445  24090431.381    24090431.5114   24090439.7314
        -0.000          -0.000
  -7288629.132 9  -5667741.08248  21186063.338    21186062.9544   21186070.3324
        -0.000          -0.000
  -4722815.305 9  -3666893.23148  21472329.859    21472329.4854   21472337.2144
        -0.000          -0.000
   2127099.288 9   1630451.49948  21732714.252    21732714.1854   21732722.4884
        -0.000          -0.000
  -2033912.710 8  -1571480.27145  24014684.995    24014684.2304   24014700.9994
        -0.000          -0.000
 99  4  6 20 33 30.0000000  0  7 24  4 30  5  8  9 10               -0.000000005
  -5177184.622 9  -3852975.21749  20298961.447    20298961.3714   20298969.2774
        -0.000          -0.000
   2320510.504 9   1779837.97848  20985617.048    20985617.3294   20985624.1394
        -0.000          -0.000
  -7249346.279 9  -3870878.71545  24071679.404    24071679.4034   24071687.8764
        -0.000          -0.000
  -7350946.562 9  -5716300.09648  21174204.830    21174204.4434   21174211.6374
        -0.000          -0.000
  -4739014.439 9  -3679515.92548  21469247.550    21469247.0494   21469254.4744
        -0.000          -0.000
   2184490.044 9   1675171.51748  21743635.264    21743635.2444   21743643.7174
        -0.000          -0.000
  -2128202.754 8  -1644952.71445  23996742.074    23996741.3124   23996758.2134
        -0.000          -0.000
 99  4  6 20 34  0.0000000  0  7 24  4 30  5  8  9 10               -0.000000039
  -5201004.781 9  -3871536.34549  20294428.635    20294428.5004   20294436.5044
        -0.000          -0.000
   2380421.322 9   1826521.70248  20997017.829    20997018.0974   20997024.7754
        -0.000          -0.000
  -7347911.134 9  -3947682.41345  24052923.089    24052923.0784   24052931.5724
        -0.000          -0.000
  -7413008.577 9  -5764660.08648  21162394.878    21162394.4994   21162401.6244
        -0.000          -0.000
  -4754627.884 9  -3691682.24348  21466276.419    21466275.8974   21466283.2914
        -0.000          -0.000
   2242283.672 9   1720205.44748  21754633.173    21754633.1314   21754641.4284
        -0.000          -0.000
  -2222521.032 8  -1718447.14145  23978793.731    23978792.8484   23978809.6114
        -0.000          -0.000
 99  4  6 20 34 30.0000000  0  7 24  4 30  5  8  9 10               -0.000000051
  -5224222.349 9  -3889627.91649  20290010.418    20290010.3184   20290018.3164
        -0.000          -0.000
   2440793.506 9   1873564.93348  21008506.350    21008506.6034   21008513.2174
        -0.000          -0.000
  -7446412.184 9  -4024436.40945  24034178.694    24034178.7554   24034187.6604
        -0.000          -0.000
  -7474716.861 9  -5812744.45448  21150652.138    21150651.7984   21150658.8624
        -0.000          -0.000
  -4769594.037 9  -3703344.19648  21463428.436    21463427.8784   21463435.3394
        -0.000          -0.000
   2300566.970 9   1765620.93748  21765724.239    21765724.1724   21765732.3264
        -0.000          -0.000
  -2316784.161 8  -1791898.60045  23960855.758    23960854.9964   23960871.1504
        -0.000          -0.000
 99  4  6 20 35  0.0000000  0  7 24  4 30  5  8  9 10               -0.000000060
  -5246856.662 9  -3907265.01849  20285703.162    20285703.1004   20285711.0494
        -0.000          -0.000
   2501608.239 9   1920953.00848  21020079.006    21020079.2524   21020085.8884
        -0.000          -0.000
  -7544866.647 9  -4101154.08446  24015443.455    24015443.5844   24015452.3054
        -0.000          -0.000
  -7536088.808 9  -5860566.72248  21138973.411    21138973.0844   21138979.9934
        -0.000          -0.000
  -4783961.069 9  -3714539.28248  21460694.401    21460693.8914   21460701.4794
        -0.000          -0.000
   2359296.825 9   1811384.40148  21776900.250    21776900.1464   21776908.2784
        -0.000          -0.000
  -2411019.021 8  -1865328.04745  23942923.226    23942922.3414   23942938.1594
        -0.000          -0.000
 99  4  6 20 35 30.0000000  0  7 24  4 30  5  8  9 10               -0.000000060
  -5268925.899 9  -3924461.78549  20281503.511    20281503.4074   20281511.2934
        -0.000          -0.000
   2562866.237 9   1968686.50248  21031736.004    21031736.2624   21031742.9164
        -0.000          -0.000
  -7643265.123 9  -4177828.11846  23996719.058    23996719.1564   23996727.5144
        -0.000          -0.000
  -7597137.053 9  -5908136.76248  21127356.316    21127356.0064   21127362.7434
        -0.000          -0.000
  -4797748.285 9  -3725282.58448  21458070.727    21458070.2574   21458078.0404
        -0.000          -0.000
   2418443.655 9   1857472.78348  21788155.518    21788155.4344   21788163.4934
        -0.000          -0.000
  -2505235.834 8  -1938743.37145  23924994.112    23924993.2914   23925008.8894
        -0.000          -0.000
 99  4  6 20 36  0.0000000  0  7 24  4 30  5  8  9 10               -0.000000038
  -5290437.600 9  -3941224.11049  20277409.922    20277409.8514   20277417.6254
        -0.000          -0.000
   2624587.657 9   2016781.08348  21043481.284    21043481.5314   21043488.1684
        -0.000          -0.000
  -7741595.518 9  -4254449.08446  23978007.616    23978007.5114   23978015.7354
        -0.000          -0.000
  -7657870.478 9  -5955461.48748  21115799.178    21115798.8174   21115805.5394
        -0.000          -0.000
  -4810931.366 9  -3735555.12348  21455562.039    21455561.6044   21455569.4194
        -0.000          -0.000
   2478009.791 9   1903887.87748  21799490.551    21799490.5264   21799498.6524
        -0.000          -0.000
  -2599421.850 8  -2012134.74145  23907070.801    23907070.1314   23907085.7074
        -0.000          -0.000
 99  4  6 20 36 30.0000000  0  7 24  4 30  5  8  9 10               -0.000000021
  -5311442.777 9  -3957591.73449  20273412.764    20273412.6984   20273420.4884
        -0.000          -0.000
   2686735.720 9   2065208.11648  21055307.801    21055308.0234   21055314.6694
        -0.000          -0.000
  -7839895.138 9  -4331046.11146  23959301.778    23959301.6814   23959309.6604
        -0.000          -0.000
  -7718348.232 9  -6002586.98548  21104290.667    21104290.2444   21104297.0754
        -0.000          -0.000
  -4823528.969 9  -3745371.45648  21453164.620    21453164.1944   21453172.1774
        -0.000          -0.000
   2537953.709 9   1950597.36048  21810897.609    21810897.5604   21810905.7334
        -0.000          -0.000
  -2693624.041 8  -2085538.70645  23889144.283    23889143.6904   23889159.4174
        -0.000          -0.000
 99  4  6 20 37  0.0000000  0  7 24  4 30  5  8  9 10               -0.000000004
  -5331951.929 9  -3973572.85149  20269510.093    20269510.0004   20269517.6544
        -0.000          -0.000
   2749314.484 9   2113970.76948  21067216.265    21067216.4594   21067223.1404
        -0.000          -0.000
  -7938158.662 9  -4407614.98746  23940602.734    23940602.6264   23940610.6334
        -0.000          -0.000
  -7778581.382 9  -6049521.89348  21092828.651    21092828.2094   21092835.1904
        -0.000          -0.000
  -4835517.720 9  -3754713.35348  21450882.978    21450882.7034   21450890.8284
        -0.000          -0.000
   2598278.187 9   1997603.38348  21822377.176    21822377.0834   21822385.3184
        -0.000          -0.000
  -2787842.805 9  -2158955.61245  23871214.869    23871214.2924   23871229.8354
        -0.000          -0.000
 99  4  6 20 37 30.0000000  0  7 24  4 30  5  8  9 10                0.000000025
  -5351928.884 9  -3989139.27949  20265708.638    20265708.5524   20265716.0964
        -0.000          -0.000
   2812348.901 9   2163088.47348  21079211.329    21079211.5254   21079218.3354
        -0.000          -0.000
  -8036369.783 9  -4484143.03246  23921913.665    23921913.5944   23921921.5574
        -0.000          -0.000
  -7838543.697 9  -6096245.75748  21081418.077    21081417.6884   21081424.8494
        -0.000          -0.000
  -4846849.668 9  -3763543.44748  21448726.528    21448726.2864   21448734.5114
        -0.000          -0.000
   2659023.014 9   2044936.95348  21833936.471    21833936.3404   21833944.7804
        -0.000          -0.000
  -2882042.317 8  -2232357.46245  23853289.402    23853288.9614   23853303.7154
        -0.000          -0.000
 99  4  6 20 38  0.0000000  0  7 24  4 30  5  8  9 10                0.000000029
  -5371406.598 9  -4004316.68449  20262002.176    20262002.0984   20262009.5944
        -0.000          -0.000
   2875789.757 9   2212522.87948  21091283.666    21091283.8884   21091290.7914
        -0.000          -0.000
  -8134577.285 9  -4560668.26946  23903225.127    23903225.0634   23903233.1264
        -0.000          -0.000
  -7898265.446 9  -6142782.17848  21070053.295    21070052.9964   21070060.2474
        -0.000          -0.000
  -4857562.481 9  -3771891.09848  21446688.293    21446687.9274   21446696.0234
        -0.000          -0.000
   2720156.211 9   2092573.14348  21845569.625    21845569.5474   21845578.0164
        -0.000          -0.000
  -2976262.204 8  -2305775.22045  23835359.542    23835358.9974   23835374.0574
        -0.000          -0.000
 99  4  6 20 38 30.0000000  0  7 24  4 30  5  8  9 10                0.000000022
  -5390374.582 9  -4019096.90549  20258392.655    20258392.5674   20258400.1694
        -0.000          -0.000
   2939645.198 9   2262280.34248  21103434.996    21103435.2264   21103442.1324
        -0.000          -0.000
  -8232763.454 8  -4637176.91146  23884540.500    23884540.5574   23884548.8054
        -0.000          -0.000
  -7957719.418 9  -6189109.93148  21058739.587    21058739.2984   21058746.5434
        -0.000          -0.000
  -4867647.549 9  -3779749.60048  21444769.403    21444768.9254   21444776.9384
        -0.000          -0.000
   2781689.093 9   2140520.77348  21857278.897    21857278.7814   21857287.2594
        -0.000          -0.000
  -3070473.452 8  -2379186.28645  23817430.966    23817430.2574   23817446.1264
        -0.000          -0.000
 99  4  6 20 39  0.0000000  0  7 24  4 30  5  8  9 10                0.000000013
  -5408841.203 9  -4033486.45149  20254878.479    20254878.4294   20254886.1494
        -0.000          -0.000
   3003880.169 9   2312333.55148  21115658.603    21115658.8144   21115665.6004
        -0.000          -0.000
  -8330937.155 9  -4713675.81446  23865858.517    23865858.6204   23865866.7654
        -0.000          -0.000
  -8016909.962 9  -6235232.41348  21047475.994    21047475.6764   21047482.9544
        -0.000          -0.000
  -4877123.654 9  -3787133.59048  21442966.170    21442965.7344   21442973.6864
        -0.000          -0.000
   2843603.466 9   2188765.66048  21869060.809    21869060.7844   21869069.2614
        -0.000          -0.000
  -3164657.278 8  -2452575.95145  23799508.123    23799507.4054   23799523.1654
        -0.000          -0.000
 99  4  6 20 39 30.0000000  0  7 24  4 30  5  8  9 10                0.000000015
  -5426779.122 9  -4047464.02549  20251465.074    20251464.9824   20251472.7334
        -0.000          -0.000
   3068504.080 9   2362689.82248  21127956.065    21127956.2704   21127963.0984
        -0.000          -0.000
  -8429072.922 9  -4790145.14746  23847183.933    23847184.1084   23847191.9334
        -0.000          -0.000
  -8075808.344 9  -6281127.23948  21036267.891    21036267.5754   21036274.9054
        -0.000          -0.000
  -4885979.294 9  -3794034.10148  21441280.859    21441280.5114   21441288.3654
        -0.000          -0.000
   2905912.730 9   2237318.26648  21880918.125    21880917.9854   21880926.4784
        -0.000          -0.000
  -3258779.731 8  -2525917.76045  23781596.986    23781596.3144   23781611.8544
        -0.000          -0.000
 99  4  6 20 40  0.0000000  0  7 24  4 30  5  8  9 10                0.000000025
  -5444210.446 9  -4061046.85149  20248148.032    20248147.9594   20248155.6254
        -0.000          -0.000
   3133494.898 9   2413332.00148  21140323.345    21140323.5594   21140330.4384
        -0.000          -0.000
  -8527170.341 8  -4866584.59046  23828516.453    23828516.5124   23828524.4144
        -0.000          -0.000
  -8134426.377 9  -6326803.60848  21025113.161    21025112.8474   21025120.1384
        -0.000          -0.000
  -4894239.148 9  -3800470.35348  21439708.926    21439708.5994   21439716.4424
        -0.000          -0.000
   2968606.425 9   2286170.43648  21892848.355    21892848.2464   21892856.8454
        -0.000          -0.000
  -3352855.379 8  -2599223.12345  23763694.796    23763694.1974   23763709.6724
        -0.000          -0.000
 99  4  6 20 40 30.0000000  0  7 24  4 30  5  8  9 10                0.000000031
  -5461157.862 9  -4074252.60749  20244923.006    20244922.8924   20244930.5814
        -0.000          -0.000
   3198822.129 9   2464236.31648  21152754.595    21152754.8334   21152761.8604
        -0.000          -0.000
  -8625252.894 9  -4943012.45746  23809851.536    23809851.6534   23809859.7014
        -0.000          -0.000
  -8192798.075 9  -6372288.03048  21014005.316    21014005.0374   21014012.3364
        -0.000          -0.000
  -4901922.860 9  -3806457.68048  21438246.600    21438246.3314   21438254.2214
        -0.000          -0.000
   3031659.484 9   2335302.61348  21904847.034    21904846.8804   21904855.4634
        -0.000          -0.000
  -3446896.692 8  -2672501.76345  23745799.111    23745798.4364   23745813.6984
        -0.000          -0.000
 99  4  6 20 41  0.0000000  0  7 24  4 30  5  8  9 10                0.000000047
  -5477575.347 9  -4087045.43049  20241798.715    20241798.6454   20241806.4434
        -0.000          -0.000
   3264532.558 9   2515439.21848  21165258.738    21165258.9964   21165266.1194
        -0.000          -0.000
  -8723283.087 9  -5019399.56546  23791196.370    23791196.6584   23791205.1064
        -0.000          -0.000
  -8250868.601 9  -6417537.77048  21002954.869    21002954.5574   21002961.8674
        -0.000          -0.000
  -4908977.529 9  -3811954.83648  21436903.990    21436903.7804   21436911.8334
        -0.000          -0.000
   3095119.043 9   2384751.55548  21916922.904    21916922.8404   21916931.4974
        -0.000          -0.000
  -3540874.797 8  -2745731.14945  23727915.349    23727914.7974   23727929.9994
        -0.000          -0.000
 99  4  6 20 41 30.0000000  0  7 24  4 30  5  8  9 10                0.000000050
  -5493486.076 9  -4099443.38049  20238770.962    20238770.9104   20238778.7464
        -0.000          -0.000
   3330616.308 9   2566933.03048  21177834.051    21177834.3604   21177841.3564
        -0.000          -0.000
  -8821282.948 9  -5095763.01846  23772547.350    23772547.7484   23772556.2554
        -0.000          -0.000
  -8308654.810 9  -6462565.96848  20991958.646    20991958.2794   20991965.4694
        -0.000          -0.000
  -4915431.267 9  -3816983.74248  21435675.966    21435675.7704   21435683.9604
        -0.000          -0.000
   3158949.357 9   2434489.38248  21929069.415    21929069.4214   21929078.0694
        -0.000          -0.000
  -3634835.379 9  -2818946.85745  23710035.255    23710034.5754   23710049.7024
        -0.000          -0.000
 99  4  6 20 42  0.0000000  0  7 24  4 30  5  8  9 10                0.000000041
  -5508868.392 9  -4111429.57049  20235843.798    20235843.7574   20235851.5484
        -0.000          -0.000
   3397077.999 9   2618721.34048  21190481.491    21190481.7454   21190488.5624
        -0.000          -0.000
  -8919241.205 9  -5172094.04346  23753906.450    23753906.8334   23753915.3794
        -0.000          -0.000
  -8366145.436 9  -6507363.83948  20981018.605    20981018.2234   20981025.2794
        -0.000          -0.000
  -4921270.134 9  -3821533.52248  21434564.945    21434564.7194   21434573.0134
        -0.000          -0.000
   3223164.131 9   2484526.80248  21941289.199    21941289.2414   21941297.8234
        -0.000          -0.000
  -3728765.078 8  -2892138.50445  23692160.918    23692160.0204   23692175.0914
        -0.000          -0.000
 99  4  6 20 42 30.0000000  0  7 24  4 30  5  8  9 10                0.000000034
  -5523700.890 9  -4122987.33749  20233021.208    20233021.1814   20233028.9154
        -0.000          -0.000
   3463948.916 9   2670828.51948  21203206.640    21203206.8754   21203213.7054
        -0.000          -0.000
  -9017132.641 9  -5248373.02046  23735278.181    23735278.6494   23735286.9434
        -0.000          -0.000
  -8423312.116 9  -6551909.28748  20970140.126    20970139.6954   20970146.7624
        -0.000          -0.000
  -4926457.194 9  -3825575.40048  21433578.076    21433577.7434   21433585.9624
        -0.000          -0.000
   3287770.454 9   2534869.31148  21953583.544    21953583.5604   21953592.1374
        -0.000          -0.000
  -3822642.565 8  -2965289.48545  23674296.247    23674295.4074   23674310.3594
        -0.000          -0.000
 99  4  6 20 43  0.0000000  0  7 24  4 30  5  8  9 10                0.000000023
  -5537983.421 9  -4134116.55649  20230303.286    20230303.2234   20230310.9294
        -0.000          -0.000
   3531225.365 9   2723251.70448  21216008.948    21216009.2124   21216016.0804
        -0.000          -0.000
  -9114960.628 9  -5324602.51246  23716662.033    23716662.5964   23716670.8074
        -0.000          -0.000
  -8480148.014 9  -6596196.98048  20959324.476    20959324.1324   20959331.2974
        -0.000          -0.000
  -4931008.263 9  -3829121.70648  21432712.345    21432711.8624   21432719.8294
        -0.000          -0.000
   3352753.115 9   2585505.08648  21965949.560    21965949.4504   21965958.0444
        -0.000          -0.000
  -3916474.016 8  -3038404.55945  23656440.169    23656439.4894   23656454.5334
        -0.000          -0.000
 99  4  6 20 43 30.0000000  0  7 24  4 30  5  8  9 10                0.000000012
  -5551712.785 9  -4144814.74149  20227690.598    20227690.5514   20227698.1764
        -0.000          -0.000
   3598892.388 9   2775979.23848  21228885.697    21228885.9584   21228892.7694
        -0.000          -0.000
  -9212727.611 9  -5400784.50346  23698057.651    23698058.0964   23698066.3514
        -0.000          -0.000
  -8536667.253 9  -6640237.93448  20948569.196    20948568.8684   20948576.1804
        -0.000          -0.000
  -4934946.180 9  -3832190.22648  21431963.078    21431962.5614   21431970.4554
        -0.000          -0.000
   3418097.058 9   2636422.35748  21978384.045    21978383.9914   21978392.6354
        -0.000          -0.000
  -4010241.664 8  -3111469.94845  23638596.270    23638595.8114   23638610.9124
        -0.000          -0.000
 99  4  6 20 44  0.0000000  0  7 24  4 30  5  8  9 10                0.000000009
  -5564886.390 9  -4155079.87149  20225183.719    20225183.6774   20225191.2904
        -0.000          -0.000
   3666954.721 9   2829014.80148  21241837.601    21241837.8124   21241844.6584
        -0.000          -0.000
  -9310430.602 9  -5476916.65046  23679465.329    23679465.7874   23679474.1684
        -0.000          -0.000
  -8592856.570 9  -6684021.80248  20937876.795    20937876.4404   20937883.7804
        -0.000          -0.000
  -4938252.561 9  -3834766.64348  21431333.871    21431333.3274   21431341.2484
        -0.000          -0.000
   3483822.609 9   2687636.99248  21990891.239    21990891.2034   21990899.8694
        -0.000          -0.000
  -4103921.732 9  -3184467.05645  23620769.414    23620768.9124   23620783.6544
        -0.000          -0.000
 99  4  6 20 44 30.0000000  0  7 24  4 30  5  8  9 10                0.000000018
  -5577511.721 9  -4164917.76649  20222781.136    20222781.1204   20222788.7264
        -0.000          -0.000
   3735417.176 9   2882362.14348  21254865.571    21254865.8234   21254872.6964
        -0.000          -0.000
  -9408060.243 9  -5552991.60646  23660887.056    23660887.6184   23660895.8124
        -0.000          -0.000
  -8648703.150 9  -6727538.60048  20927249.529    20927249.1874   20927256.5144
        -0.000          -0.000
  -4940921.189 9  -3836846.11048  21430825.978    21430825.4684   21430833.4514
        -0.000          -0.000
   3549937.925 9   2739155.35248  22003472.663    22003472.5934   22003481.2534
        -0.000          -0.000
  -4197514.921 9  -3257396.50146  23602959.138    23602958.6324   23602973.0874
        -0.000          -0.000
 99  4  6 20 45  0.0000000  0  7 24  4 30  5  8  9 10                0.000000026
  -5589607.674 9  -4174343.16149  20220479.386    20220479.3434   20220486.9534
        -0.000          -0.000
   3804245.194 9   2935994.34348  21267963.121    21267963.3454   21267970.2924
        -0.000          -0.000
  -9505633.019 9  -5629022.22346  23642319.904    23642320.2834   23642328.0154
        -0.000          -0.000
  -8704233.235 9  -6770808.78148  20916682.557    20916682.2024   20916689.4814
        -0.000          -0.000
  -4942984.973 9  -3838454.27148  21430433.090    21430432.6414   21430440.7514
        -0.000          -0.000
   3616427.647 9   2790965.45148  22016125.425    22016125.2344   22016133.9474
        -0.000          -0.000
  -4291030.359 8  -3330265.36246  23585163.292    23585162.8134   23585177.4094
        -0.000          -0.000
 99  4  6 20 45 30.0000000  0  7 24  4 30  5  8  9 10                0.000000039
  -5601184.311 9  -4183363.89649  20218276.448    20218276.3694   20218284.0094
        -0.000          -0.000
   3873440.550 9   2989912.78848  21281130.503    21281130.7204   21281137.7754
        -0.000          -0.000
  -9603134.610 9  -5704997.42246  23623765.833    23623766.2574   23623773.8824
        -0.000          -0.000
  -8759444.817 9  -6813830.77748  20906176.197    20906175.8254   20906183.0414
        -0.000          -0.000
  -4944422.031 9  -3839574.08948  21430159.440    21430159.1104   21430167.2304
        -0.000          -0.000
   3683307.475 9   2843079.52948  22028852.311    22028852.1134   22028860.9064
        -0.000          -0.000
  -4384472.509 9  -3403077.11046  23567381.551    23567380.9724   23567395.4714
        -0.000          -0.000
 99  4  6 20 46  0.0000000  0  7 24  4 30  5  8  9 10                0.000000049
  -5612265.463 9  -4191998.54349  20216167.802    20216167.7384   20216175.3274
        -0.000          -0.000
   3942989.433 9   3044106.70048  21294365.130    21294365.3884   21294372.4794
        -0.000          -0.000
  -9700567.000 9  -5780918.66046  23605224.890    23605225.3834   23605233.1744
        -0.000          -0.000
  -8814347.239 9  -6856611.87348  20895728.692    20895728.3084   20895735.4474
        -0.000          -0.000
  -4945235.524 9  -3840208.01348  21430004.527    21430004.2574   21430012.3544
        -0.000          -0.000
   3750571.709 9   2895493.13848  22041652.521    22041652.2614   22041660.9284
        -0.000          -0.000
  -4477870.105 9  -3475854.14646  23549608.515    23549607.9464   23549622.2424
        -0.000          -0.000
 99  4  6 20 46 30.0000000  0  7 24  4 30  5  8  9 10                0.000000054
  -5622852.607 9  -4200248.24349  20214153.213    20214153.0934   20214160.6854
        -0.000          -0.000
   4012890.890 9   3098575.35048  21307666.851    21307667.1894   21307674.2194
        -0.000          -0.000
  -9797929.478 8  -5856785.47946  23586696.957    23586697.5404   23586705.7164
        -0.000          -0.000
  -8868940.395 9  -6899151.98548  20885340.010    20885339.5804   20885346.6914
        -0.000          -0.000
  -4945443.606 9  -3840370.17448  21429965.043    21429964.7844   21429972.7814
        -0.000          -0.000
   3818202.013 9   2948191.99948  22054522.210    22054522.0324   22054530.5154
        -0.000          -0.000
  -4571221.854 9  -3548595.49246  23531844.020    23531843.3654   23531857.6364
        -0.000          -0.000
 99  4  6 20 47  0.0000000  0  7 24  4 30  5  8  9 10                0.000000060
  -5632925.029 9  -4208096.86249  20212236.471    20212236.3604   20212243.9824
        -0.000          -0.000
   4083155.900 9   3153327.29148  21321037.974    21321038.2724   21321045.2424
        -0.000          -0.000
  -9895219.819 9  -5932596.03346  23568182.765    23568183.5264   23568191.8004
        -0.000          -0.000
  -8923200.948 9  -6941432.91248  20875014.521    20875014.0794   20875021.1964
        -0.000          -0.000
  -4945032.219 9  -3840049.64148  21430043.654    21430043.2504   21430051.2134
        -0.000          -0.000
   3886193.872 9   3001172.59848  22067460.772    22067460.5654   22067468.9284
        -0.000          -0.000
  -4664501.694 9  -3621280.75546  23514093.045    23514092.4134   23514106.7154
        -0.000          -0.000
 99  4  6 20 47 30.0000000  0  7 24  4 30  5  8  9 10                0.000000046
  -5642491.372 9  -4215551.13349  20210415.995    20210415.9104   20210423.5444
        -0.000          -0.000
   4153763.925 9   3208346.51548  21334474.373    21334474.6204   21334481.5354
        -0.000          -0.000
  -9992465.078 9  -6008371.53046  23549677.543    23549678.4064   23549686.9124
        -0.000          -0.000
  -8977121.605 9  -6983449.00048  20864753.670    20864753.2524   20864760.2954
        -0.000          -0.000
  -4944016.236 9  -3839257.99048  21430237.128    21430236.6564   21430244.7064
        -0.000          -0.000
   3954531.311 9   3054422.46748  22080464.812    22080464.6534   22080473.1674
        -0.000          -0.000
  -4757721.635 9  -3693919.33446  23496353.737    23496353.1934   23496367.3034
        -0.000          -0.000
 99  4  6 20 48  0.0000000  0  7 24  4 30  5  8  9 10                0.000000026
  -5651500.554 9  -4222571.25649  20208701.613    20208701.5174   20208709.1494
        -0.000          -0.000
   4224749.824 9   3263660.17848  21347982.574    21347982.8194   21347989.7864
        -0.000          -0.000
 -10089641.495 9  -6084093.30446  23531185.853    23531186.5384   23531195.3254
        -0.000          -0.000
  -9030661.158 9  -7025168.11848  20854565.357    20854564.9454   20854571.9054
        -0.000          -0.000
  -4942371.117 9  -3837976.09848  21430550.136    21430549.6894   21430557.8534
        -0.000          -0.000
   4023239.918 9   3107961.55548  22093539.688    22093539.5104   22093547.9574
        -0.000          -0.000
  -4850834.951 9  -3766474.80546  23478634.738    23478634.1814   23478648.1614
        -0.000          -0.000
 99  4  6 20 48 30.0000000  0  7 24  4 30  5  8  9 10                0.000000004
  -5659937.457 9  -4229145.45149  20207096.139    20207096.0094   20207103.6074
        -0.000          -0.000
   4296130.306 9   3319281.30848  21361565.870    21361566.1254   21361573.1664
        -0.000          -0.000
 -10186741.929 9  -6159755.90646  23512708.236    23512708.9704   23512717.8604
        -0.000          -0.000
  -9083805.484 9  -7066579.26748  20844452.293    20844451.9264   20844458.9304
        -0.000          -0.000
  -4940081.079 9  -3836191.68448  21430985.788    21430985.4184   21430993.5984
        -0.000          -0.000
   4092322.918 9   3161792.40148  22106685.770    22106685.6014   22106694.0134
        -0.000          -0.000
  -4943820.912 9  -3838931.08146  23460939.829    23460939.2904   23460953.2894
        -0.000          -0.000
 99  4  6 20 49  0.0000000  0  7 24  4 30  5  8  9 10               -0.000000024
  -5667811.497 9  -4235281.05049  20205597.725    20205597.5864   20205605.1664
        -0.000          -0.000
   4367882.764 9   3375192.29148  21375219.929    21375220.1934   21375227.2844
        -0.000          -0.000
 -10283763.560 9  -6235357.11146  23494245.402    23494246.3124   23494254.9874
        -0.000          -0.000
  -9136570.423 9  -7107694.78948  20834411.445    20834411.0184   20834418.1204
        -0.000          -0.000
  -4937136.066 9  -3833896.89848  21431546.275    21431545.9294   21431554.0174
        -0.000          -0.000
   4161782.551 9   3215916.71448  22119903.656    22119903.4594   22119911.7534
        -0.000          -0.000
  -5036691.996 9  -3911297.86346  23443266.875    23443266.3454   23443280.2274
        -0.000          -0.000
 99  4  6 20 49 30.0000000  0  7 24  4 30  5  8  9 10               -0.000000049
  -5675134.311 9  -4240987.11949  20204204.173    20204204.0414   20204211.5954
        -0.000          -0.000
   4440009.488 9   3431394.90048  21388945.143    21388945.4214   21388952.5534
        -0.000          -0.000
 -10380691.500 9  -6310885.27246  23475800.312    23475801.2514   23475810.0484
        -0.000          -0.000
  -9188975.253 9  -7148529.71148  20824439.041    20824438.6314   20824445.8254
        -0.000          -0.000
  -4933544.743 9  -3831098.49148  21432229.782    21432229.4264   21432237.4404
        -0.000          -0.000
   4231618.468 9   3270334.22148  22133193.206    22133192.9494   22133201.2094
        -0.000          -0.000
  -5129452.327 9  -3983578.35646  23425615.113    23425614.4864   23425628.2694
        -0.000          -0.000
 99  4  6 20 50  0.0000000  0  7 24  4 30  5  8  9 10               -0.000000056
  -5681937.732 9  -4246288.47049  20202909.492    20202909.4174   20202916.9824
        -0.000          -0.000
   4512500.681 9   3487881.51748  21402739.748    21402740.0214   21402747.1444
        -0.000          -0.000
 -10477518.850 9  -6386335.08246  23457374.626    23457375.4984   23457384.3794
        -0.000          -0.000
  -9241062.317 9  -7189117.02048  20814527.190    20814526.8034   20814533.9824
        -0.000          -0.000
  -4929315.264 9  -3827802.81948  21433034.688    21433034.2794   21433042.3524
        -0.000          -0.000
   4301795.435 9   3325017.49048  22146547.435    22146547.2444   22146555.5914
        -0.000          -0.000
  -5222108.315 9  -4055777.53646  23407983.027    23407982.3424   23407996.1194
        -0.000          -0.000
 99  4  6 20 50 30.0000000  0  7 24  4 30  5  8  9 10               -0.000000048
  -5688269.536 9  -4251222.32849  20201704.612    20201704.4914   20201712.1194
        -0.000          -0.000
   4585308.118 9   3544614.57548  21416594.645    21416594.8804   21416601.9784
        -0.000          -0.000
 -10574256.829 9  -6461715.24746  23438965.864    23438966.6914   23438975.7344
        -0.000          -0.000
  -9292866.248 9  -7229483.69148  20804669.350    20804668.8784   20804675.9924
        -0.000          -0.000
  -4924476.189 9  -3824032.12948  21433955.540    21433955.0724   21433963.2794
        -0.000          -0.000
   4372271.270 9   3379933.63548  22159958.544    22159958.3404   22159966.8244
        -0.000          -0.000
  -5314681.072 9  -4127911.89946  23390366.554    23390365.9574   23390379.8014
        -0.000          -0.000
 99  4  6 20 51  0.0000000  0  7 24  4 30  5  8  9 10               -0.000000013
  -5694111.697 9  -4255774.64049  20200592.866    20200592.7714   20200600.4534
        -0.000          -0.000
   4658428.545 9   3601591.50448  21430509.002    21430509.2074   21430516.3564
        -0.000          -0.000
 -10670885.091 9  -6537009.91446  23420578.103    23420578.8504   23420587.9894
        -0.000          -0.000
  -9344379.527 9  -7269623.88848  20794866.722    20794866.2444   20794873.2704
        -0.000          -0.000
  -4919032.684 9  -3819790.47348  21434991.302    21434990.9444   21434999.0944
        -0.000          -0.000
   4443049.227 9   3435085.20448  22173426.959    22173426.7774   22173435.5694
        -0.000          -0.000
  -5407148.321 9  -4199964.01046  23372770.451    23372769.8084   23372783.5354
        -0.000          -0.000
 99  4  6 20 51 30.0000000  0  7 24  4 30  5  8  9 10                0.000000006
  -5699514.092 9  -4259984.27049  20199564.872    20199564.7134   20199572.4584
        -0.000          -0.000
   4731819.872 9   3658779.54148  21444474.764    21444475.0094   21444482.2504
        -0.000          -0.000
 -10767469.481 9  -6612270.40846  23402198.754    23402199.4554   23402208.6654
        -0.000          -0.000
  -9395657.677 9  -7309580.86248  20785108.829    20785108.3494   20785115.3904
        -0.000          -0.000
  -4913057.567 9  -3815134.56748  21436128.532    21436128.0974   21436136.0364
        -0.000          -0.000
   4514064.305 9   3490421.52248  22186940.594    22186940.5004   22186949.3574
        -0.000          -0.000
  -5499569.822 9  -4271980.47546  23355183.148    23355182.4054   23355196.1794
        -0.000          -0.000
 99  4  6 20 52  0.0000000  0  7 24  4 30  5  8  9 10                0.000000034
  -5704402.373 9  -4263793.29849  20198634.501    20198634.3774   20198642.1904
        -0.000          -0.000
   4805552.952 9   3716233.84748  21458505.537    21458505.8664   21458513.1494
        -0.000          -0.000
 -10863954.346 9  -6687453.32546  23383837.989    23383838.7764   23383848.2684
        -0.000          -0.000
  -9446622.853 9  -7349293.98048  20775410.339    20775409.9534   20775417.0034
        -0.000          -0.000
  -4906483.743 9  -3810012.13848  21437379.571    21437379.1114   21437386.9404
        -0.000          -0.000
   4585384.510 9   3545995.62148  22200512.434    22200512.3354   22200521.1824
        -0.000          -0.000
  -5591885.228 9  -4343914.26246  23337615.925    23337615.1464   23337628.8724
        -0.000          -0.000
 99  4  6 20 52 30.0000000  0  7 24  4 30  5  8  9 10                0.000000051
  -5708764.794 9  -4267192.57549  20197804.364    20197804.2514   20197811.9944
        -0.000          -0.000
   4879624.953 9   3773952.26748  21472600.995    21472601.3474   21472608.5614
        -0.000          -0.000
 -10960353.660 9  -6762569.61446  23365493.406    23365494.4654   23365503.9644
        -0.000          -0.000
  -9497253.933 9  -7388746.75748  20765775.551    20765775.1834   20765782.1854
        -0.000          -0.000
  -4899324.513 9  -3804433.53748  21438741.765    21438741.3884   21438749.3034
        -0.000          -0.000
   4657023.310 9   3601817.97948  22214144.854    22214144.8474   22214153.6754
        -0.000          -0.000
  -5684103.311 9  -4415772.25046  23320067.161    23320066.4644   23320080.0904
        -0.000          -0.000
 99  4  6 20 53  0.0000000  0  7 24  4 30  5  8  9 10                0.000000048
  -5712586.810 9  -4270170.75549  20197077.100    20197076.9754   20197084.6924
        -0.000          -0.000
   4954057.472 9   3831951.60948  21486765.015    21486765.3724   21486772.6364
        -0.000          -0.000
 -11056679.429 9  -6837628.54846  23347163.266    23347164.0954   23347173.7034
        -0.000          -0.000
  -9547537.747 9  -7427928.93348  20756206.923    20756206.5274   20756213.5404
        -0.000          -0.000
  -4891578.741 9  -3798397.89948  21440215.608    21440215.2784   21440223.3714
        -0.000          -0.000
   4728992.382 9   3657897.71248  22227840.162    22227840.1074   22227849.0614
        -0.000          -0.000
  -5776221.098 9  -4487552.06646  23302537.529    23302536.8604   23302550.4504
        -0.000          -0.000
 99  4  6 20 53 30.0000000  0  7 24  4 30  5  8  9 10                0.000000042
  -5715844.037 9  -4272708.83849  20196457.207    20196457.1044   20196464.8204
        -0.000          -0.000
   5028890.481 9   3890263.01648  21501005.203    21501005.6344   21501012.9104
        -0.000          -0.000
 -11152907.648 9  -6912611.51546  23328851.568    23328852.2824   23328861.9894
        -0.000          -0.000
  -9597418.200 9  -7466796.80048  20746714.999    20746714.5494   20746721.6484
        -0.000          -0.000
  -4883193.575 9  -3791864.02048  21441811.203    21441810.8734   21441819.0814
        -0.000          -0.000
   4801336.635 9   3714269.77248  22241606.653    22241606.6864   22241615.9104
        -0.000          -0.000
  -5868199.869 9  -4559223.58446  23285034.479    23285033.7174   23285047.1994
        -0.000          -0.000
 99  4  6 20 54  0.0000000  0  7 24  4 30  5  8  9 10                0.000000034
  -5718570.386 9  -4274833.24949  20195938.328    20195938.2934   20195945.9524
        -0.000          -0.000
   5104075.361 9   3948848.58148  21515312.485    21515312.9394   21515320.2064
        -0.000          -0.000
 -11249049.888 9  -6987527.46546  23310556.058    23310556.7774   23310566.7464
        -0.000          -0.000
  -9646901.192 9  -7505354.96948  20737298.641    20737298.2074   20737305.4194
        -0.000          -0.000
  -4874190.248 9  -3784848.46648  21443524.515    21443524.2174   21443532.4314
        -0.000          -0.000
   4874038.524 9   3770920.49848  22255441.362    22255441.4484   22255450.8284
        -0.000          -0.000
  -5960025.897 9  -4630776.08246  23267560.272    23267559.5054   23267572.8814
        -0.000          -0.000
 99  4  6 20 54 30.0000000  0  7 24  4 30  5  8  9 10                0.000000014
  -5720807.926 9  -4276576.77149  20195512.655    20195512.5884   20195520.1124
        -0.000          -0.000
   5179553.976 9   4007663.07848  21529675.744    21529676.1554   21529683.3884
        -0.000          -0.000
 -11345131.224 9  -7062395.98346  23292272.608    23292273.3044   23292283.1214
        -0.000          -0.000
  -9696018.698 9  -7543628.33948  20727951.874    20727951.4284   20727958.6324
        -0.000          -0.000
  -4864599.712 9  -3777375.33148  21445349.588    21445349.3034   21445357.5814
        -0.000          -0.000
   4947062.666 9   3827822.34548  22269337.517    22269337.5884   22269347.0424
        -0.000          -0.000
  -6051717.578 9  -4702223.92946  23250111.739    23250111.0334   23250124.3154
        -0.000          -0.000
 99  4  6 20 55  0.0000000  0  7 24  4 30  5  8  9 10                0.000000002
  -5722539.615 9  -4277926.12549  20195183.161    20195183.0664   20195190.5734
        -0.000          -0.000
   5255344.217 9   4066720.36848  21544098.238    21544098.6014   21544105.8074
        -0.000          -0.000
 -11441119.038 9  -7137191.60346  23274007.138    23274007.6394   23274017.2144
        -0.000          -0.000
  -9744741.581 9  -7581594.20848  20718680.213    20718679.7564   20718686.8544
        -0.000          -0.000
  -4854390.532 9  -3769420.15948  21447292.405    21447292.0794   21447300.3604
        -0.000          -0.000
   5020432.662 9   3884993.66948  22283299.441    22283299.5124   22283309.0244
        -0.000          -0.000
  -6143241.948 9  -4773541.32246  23232694.966    23232694.2424   23232707.5124
        -0.000          -0.000
 99  4  6 20 55 30.0000000  0  7 24  4 30  5  8  9 10               -0.000000010
  -5723790.748 9  -4278901.01449  20194944.979    20194944.9014   20194952.4424
        -0.000          -0.000
   5331413.253 9   4125994.89748  21558573.700    21558574.0504   21558581.2324
        -0.000          -0.000
 -11537020.192 9  -7211919.66346  23255758.058    23255758.4734   23255767.7524
        -0.000          -0.000
  -9793082.651 9  -7619262.56248  20709481.235    20709480.7454   20709487.8684
        -0.000          -0.000
  -4843583.503 9  -3760999.12948  21449348.889    21449348.5754   21449356.8714
        -0.000          -0.000
   5094118.702 9   3942411.28647  22297321.541    22297321.5864   22297330.9944
        -0.000          -0.000
  -6234615.131 9  -4844740.95046  23215306.980    23215306.2894   23215319.4274
        -0.000          -0.000
 99  4  6 20 56  0.0000000  0  7 24  4 30  5  8  9 10               -0.000000010
  -5724550.628 9  -4279493.10449  20194800.295    20194800.2414   20194807.9004
        -0.000          -0.000
   5407772.185 9   4185495.32148  21573104.287    21573104.6114   21573111.7974
        -0.000          -0.000
 -11632803.996 9  -7286556.30846  23237531.248    23237531.5814   23237540.6204
        -0.000          -0.000
  -9841048.593 9  -7656638.61648  20700353.564    20700353.1244   20700360.2194
        -0.000          -0.000
  -4832173.880 9  -3752108.53648  21451520.100    21451519.7624   21451527.9794
        -0.000          -0.000
   5168112.706 9   4000068.87047  22311402.244    22311402.3274   22311411.5894
        -0.000          -0.000
  -6325837.498 9  -4915823.07846  23197947.609    23197946.9764   23197960.0074
        -0.000          -0.000
 99  4  6 20 56 30.0000000  0  7 24  4 30  5  8  9 10                0.000000001
  -5724801.308 9  -4279688.42249  20194752.539    20194752.4544   20194760.1964
        -0.000          -0.000
   5484458.539 9   4245250.90148  21587697.099    21587697.4484   21587704.6844
        -0.000          -0.000
 -11728454.957 9  -7361089.45146  23219329.803    23219330.0324   23219338.7724
        -0.000          -0.000
  -9888624.633 9  -7693710.84748  20691300.112    20691299.7114   20691306.7984
        -0.000          -0.000
  -4820132.551 9  -3742725.70848  21453811.477    21453811.1064   21453819.2444
        -0.000          -0.000
   5242412.787 9   4057964.94647  22325541.312    22325541.3094   22325550.3084
        -0.000          -0.000
  -6416921.039 8  -4986797.00746  23180614.772    23180614.1954   23180627.0584
        -0.000          -0.000
 99  4  6 20 57  0.0000000  0  7 24  4 30  5  8  9 10                0.000000001
  -5724573.416 9  -4279510.82349  20194795.881    20194795.8144   20194803.4964
        -0.000          -0.000
   5561455.052 9   4305248.12448  21602349.162    21602349.4254   21602356.6524
        -0.000          -0.000
 -11824007.428 9  -7435545.83446  23201146.967    23201146.9904   23201155.7184
        -0.000          -0.000
  -9935842.854 9  -7730504.25348  20682314.765    20682314.3924   20682321.3504
        -0.000          -0.000
  -4807496.980 9  -3732879.83348  21456216.070    21456215.7114   21456223.6974
        -0.000          -0.000
   5316970.143 9   4116061.49247  22339729.164    22339729.1384   22339738.2254
        -0.000          -0.000
  -6507894.488 9  -5057685.18346  23163302.977    23163302.3604   23163315.2014
        -0.000          -0.000
 99  4  6 20 57 30.0000000  0  7 24  4 30  5  8  9 10               -0.000000011
  -5723855.334 9  -4278951.25149  20194932.580    20194932.4794   20194940.1454
        -0.000          -0.000
   5638762.982 9   4365488.03348  21617060.440    21617060.6604   21617067.8974
        -0.000          -0.000
 -11919460.662 9  -7509924.88946  23182982.734    23182982.8654   23182991.5064
        -0.000          -0.000
  -9982724.746 9  -7767035.57748  20673393.490    20673393.0784   20673399.9164
        -0.000          -0.000
  -4794266.686 9  -3722570.53948  21458733.899    21458733.4984   21458741.3614
        -0.000          -0.000
   5391775.611 9   4174351.38047  22353964.185    22353964.1934   22353973.3494
        -0.000          -0.000
  -6598758.913 9  -5128488.38746  23146011.870    23146011.2204   23146024.2084
        -0.000          -0.000
 99  4  6 20 58  0.0000000  0  7 24  4 30  5  8  9 10               -0.000000026
  -5722632.169 9  -4277998.11149  20195165.328    20195165.2584   20195172.9034
        -0.000          -0.000
   5716387.417 9   4425974.55848  21631831.963    21631832.1154   21631839.5034
        -0.000          -0.000
 -12014804.648 9  -7584218.83646  23164839.066    23164839.3064   23164848.0324
        -0.000          -0.000
 -10029271.649 9  -7803305.86848  20664535.870    20664535.4504   20664542.3024
        -0.000          -0.000
  -4780427.201 9  -3711786.54648  21461367.557    21461367.0954   21461374.9504
        -0.000          -0.000
   5466849.246 9   4232850.21847  22368250.326    22368250.2824   22368259.5524
        -0.000          -0.000
  -6689493.519 9  -5199190.40646  23128745.469    23128744.8444   23128757.8264
        -0.000          -0.000
 99  4  6 20 58 30.0000000  0  7 24  4 30  5  8  9 10               -0.000000037
  -5720871.025 9  -4276625.76849  20195500.528    20195500.4064   20195508.0154
        -0.000          -0.000
   5794332.719 9   4486711.10548  21646664.383    21646664.5764   21646672.1094
        -0.000          -0.000
 -12110028.059 9  -7658418.81246  23146718.241    23146718.6914   23146727.4574
        -0.000          -0.000
 -10075455.091 9  -7839292.94548  20655747.356    20655746.9644   20655753.9234
        -0.000          -0.000
  -4765962.415 9  -3700515.31648  21464119.991    21464119.6504   21464127.5334
        -0.000          -0.000
   5542227.029 9   4291586.07047  22382594.486    22382594.3924   22382603.6144
        -0.000          -0.000
  -6780056.859 9  -5269758.98246  23111511.633    23111511.1144   23111523.9604
        -0.000          -0.000
 99  4  6 20 59  0.0000000  0  7 24  4 30  5  8  9 10               -0.000000053
  -5718576.785 9  -4274838.03549  20195937.102    20195936.9644   20195944.5754
        -0.000          -0.000
   5872572.602 9   4547677.20548  21661552.855    21661553.1094   21661560.7364
        -0.000          -0.000
 -12205147.665 9  -7732537.91246  23128617.313    23128617.8014   23128626.6464
        -0.000          -0.000
 -10121302.207 9  -7875017.96348  20647022.912    20647022.5644   20647029.5844
        -0.000          -0.000
  -4750898.942 9  -3688777.57048  21466986.540    21466986.1654   21466994.0314
        -0.000          -0.000
   5617904.893 9   4350555.74847  22396995.699    22396995.5524   22397004.7754
        -0.000          -0.000
  -6870451.809 9  -5340196.36246  23094309.810    23094309.2634   23094322.1004
        -0.000          -0.000
 99  4  6 20 59 30.0000000  0  7 24  4 30  5  8  9 10               -0.000000073
  -5715737.303 9  -4272625.43149  20196477.441    20196477.3304   20196484.8854
        -0.000          -0.000
   5951104.414 9   4608870.78348  21676496.987    21676497.2244   21676504.8814
        -0.000          -0.000
 -12300147.963 9  -7806564.04846  23110539.167    23110539.8264   23110548.5024
        -0.000          -0.000
 -10166797.795 9  -7910469.05649  20638365.421    20638365.0674   20638372.0534
        -0.000          -0.000
  -4735228.130 9  -3676566.57548  21469968.703    21469968.2704   21469976.0934
        -0.000          -0.000
   5693907.229 9   4409778.24547  22411458.469    22411458.3604   22411467.6494
        -0.000          -0.000
  -6960676.101 9  -5410500.78246  23077140.613    23077140.0194   23077152.7794
        -0.000          -0.000
 99  4  6 21  0  0.0000000  0  7 24  4 30  5  8  9 10               -0.000000067
  -5712317.966 9  -4269960.99949  20197128.063    20197127.9594   20197135.5714
        -0.000          -0.000
   6029968.406 9   4670323.19748  21691504.355    21691504.6144   21691512.2594
        -0.000          -0.000
 -12394984.133 9  -7880462.29846  23092492.352    23092493.0994   23092501.6654
        -0.000          -0.000
 -10211877.070 9  -7945595.75449  20629787.192    20629786.8264   20629793.7494
        -0.000          -0.000
  -4718912.996 9  -3663853.50748  21473073.328    21473072.9014   21473080.7494
        -0.000          -0.000
   5770274.805 9   4469285.36247  22425990.865    22425990.7504   22425999.9424
        -0.000          -0.000
  -7050670.580 9  -5480626.11846  23060015.031    23060014.4544   23060027.2684
        -0.000          -0.000
 99  4  6 21  0 30.0000000  0  7 24  4 30  5  8  9 10               -0.000000075
  -5708379.215 9  -4266891.82849  20197877.550    20197877.4414   20197885.0324
        -0.000          -0.000
   6109122.713 9   4732001.83148  21706567.112    21706567.3464   21706574.8084
        -0.000          -0.000
 -12489708.272 9  -7954273.23146  23074467.009    23074467.7384   23074476.2134
        -0.000          -0.000
 -10256573.326 9  -7980424.00249  20621281.766    20621281.4444   20621288.3384
        -0.000          -0.000
  -4702024.248 9  -3650693.46648  21476287.153    21476286.7664   21476294.5454
        -0.000          -0.000
   5846942.339 9   4529026.19647  22440580.282    22440580.1394   22440589.2314
        -0.000          -0.000
  -7140501.372 9  -5550623.90446  23042920.781    23042920.1584   23042932.9054
        -0.000          -0.000
 99  4  6 21  1  0.0000000  0  7 24  4 30  5  8  9 10               -0.000000089
  -5703915.396 9  -4263413.51549  20198726.939    20198726.8524   20198734.4724
        -0.000          -0.000
   6188588.316 9   4793923.03148  21721689.112    21721689.3374   21721696.5944
        -0.000          -0.000
 -12584298.900 9  -8027980.15846  23056466.920    23056467.7104   23056476.0714
        -0.000          -0.000
 -10300864.654 9  -8014936.71749  20612853.544    20612853.1584   20612859.9614
        -0.000          -0.000
  -4684544.753 9  -3637073.10148  21479613.362    21479612.9734   21479620.7354
        -0.000          -0.000
   5923917.891 9   4589007.05247  22455228.275    22455228.1294   22455237.1484
        -0.000          -0.000
  -7230164.543 9  -5620491.08746  23025858.282    23025857.6304   23025870.3044
        -0.000          -0.000
 99  4  6 21  1 30.0000000  0  7 24  4 30  5  8  9 10               -0.000000087
  -5698904.373 9  -4259508.81849  20199680.511    20199680.4324   20199688.0644
        -0.000          -0.000
   6268387.296 9   4856104.00448  21736874.508    21736874.7344   21736881.7824
        -0.000          -0.000
 -12678718.134 9  -8101553.54246  23038499.554    23038500.3094   23038508.6404
        -0.000          -0.000
 -10344694.272 9  -8049089.65849  20604513.053    20604512.6334   20604519.4564
        -0.000          -0.000
  -4666449.296 9  -3622972.77248  21483056.849    21483056.4794   21483064.2914
        -0.000          -0.000
   6001232.759 9   4649252.31047  22469940.732    22469940.6434   22469949.6244
        -0.000          -0.000
  -7319615.090 9  -5690192.51846  23008836.221    23008835.5464   23008848.1624
        -0.000          -0.000
 99  4  6 21  2  0.0000000  0  7 24  4 30  5  8  9 10               -0.000000090
  -5693400.224 9  -4255219.86149  20200727.978    20200727.8774   20200735.4844
        -0.000          -0.000
   6348476.560 9   4918511.17448  21752115.059    21752115.2644   21752122.2174
        -0.000          -0.000
 -12773006.920 9  -8175025.26446  23020557.012    23020557.8304   23020566.0634
        -0.000          -0.000
 -10388099.385 9  -8082911.81349  20596253.158    20596252.8014   20596259.8134
        -0.000          -0.000
  -4647785.555 9  -3608429.62748  21486608.505    21486608.1314   21486616.0164
        -0.000          -0.000
   6078825.723 9   4709714.25047  22484706.296    22484706.2114   22484715.1344
        -0.000          -0.000
  -7408888.397 9  -5759755.91046  22991847.765    22991847.1354   22991859.7344
        -0.000          -0.000
 99  4  6 21  2 30.0000000  0  7 24  4 30  5  8  9 10               -0.000000101
  -5687407.247 9  -4250549.99649  20201868.325    20201868.2384   20201875.8884
        -0.000          -0.000
   6428859.986 9   4981147.57948  21767411.434    21767411.7044   21767418.6304
        -0.000          -0.000
 -12867157.615 9  -8248389.38546  23002640.661    23002641.3734   23002649.7384
        -0.000          -0.000
 -10431078.638 9  -8116402.13349  20588074.547    20588074.1634   20588081.2264
        -0.000          -0.000
  -4628541.166 9  -3593434.03548  21490270.622    21490270.1864   21490278.1114
        -0.000          -0.000
   6156695.899 9   4770392.21947  22499524.798    22499524.6334   22499533.5434
        -0.000          -0.000
  -7497996.981 9  -5829190.89946  22974890.781    22974890.0754   22974902.5974
        -0.000          -0.000
 99  4  6 21  3  0.0000000  0  7 24  4 30  5  8  9 10               -0.000000109
  -5680929.310 9  -4245502.24949  20203100.978    20203100.9244   20203108.6084
        -0.000          -0.000
   6509522.931 9   5044001.79548  21782761.022    21782761.2884   21782768.2064
        -0.000          -0.000
 -12961164.673 9  -8321641.57746  22984751.623    22984752.3974   22984760.8984
        -0.000          -0.000
 -10473648.204 9  -8149573.20649  20579973.939    20579973.5014   20579980.4734
        -0.000          -0.000
  -4608703.096 9  -3577975.84248  21494045.540    21494045.1824   21494053.2064
        -0.000          -0.000
   6234837.038 9   4831281.29947  22514394.578    22514394.4694   22514403.4454
        -0.000          -0.000
  -7586923.131 9  -5898483.79146  22957968.552    22957967.7304   22957980.4234
        -0.000          -0.000
 99  4  6 21  3 30.0000000  0  7 24  4 30  5  8  9 10               -0.000000099
  -5673974.538 9  -4240082.93049  20204424.366    20204424.3084   20204432.0434
        -0.000          -0.000
   6590475.263 9   5107081.49748  21798165.713    21798165.9844   21798172.9354
        -0.000          -0.000
 -13055018.028 9  -8394773.99246  22966891.895    22966892.6214   22966901.1134
        -0.000          -0.000
 -10515807.029 9  -8182424.22549  20571951.340    20571950.9454   20571957.8764
        -0.000          -0.000
  -4588274.814 9  -3562057.73348  21497932.884    21497932.5314   21497940.5414
        -0.000          -0.000
   6313226.552 9   4892363.93547  22529311.869    22529311.7014   22529320.7044
        -0.000          -0.000
  -7675654.500 9  -5967624.92946  22941083.255    22941082.4904   22941095.2234
        -0.000          -0.000
 99  4  6 21  4  0.0000000  0  7 24  4 30  5  8  9 10               -0.000000085
  -5666571.927 9  -4234314.65149  20205832.989    20205832.9634   20205840.6854
        -0.000          -0.000
   6671697.254 9   5170371.32948  21813621.806    21813622.0544   21813628.9924
        -0.000          -0.000
 -13148736.472 9  -8467801.28846  22949057.963    22949058.6874   22949066.9424
        -0.000          -0.000
 -10557611.912 9  -8214999.45149  20563996.089    20563995.6824   20564002.6024
        -0.000          -0.000
  -4567271.418 9  -3545691.47948  21501929.694    21501929.3644   21501937.3254
        -0.000          -0.000
   6391825.855 9   4953610.03747  22544268.876    22544268.6484   22544277.7684
        -0.000          -0.000
  -7764234.839 9  -6036648.35347  22924226.679    22924226.0294   22924238.7324
        -0.000          -0.000
 99  4  6 21  4 30.0000000  0  7 24  4 30  5  8  9 10               -0.000000063
  -5658739.929 9  -4228211.78549  20207323.411    20207323.3714   20207331.0734
        -0.000          -0.000
   6753166.337 9   5233853.68748  21829124.982    21829125.2514   21829132.0944
        -0.000          -0.000
 -13242331.740 9  -8540732.60446  22931247.702    22931248.2564   22931256.2664
        -0.000          -0.000
 -10599095.308 9  -8247324.17149  20556101.930    20556101.5474   20556108.5064
        -0.000          -0.000
  -4545708.130 9  -3528888.95248  21506033.118    21506032.6844   21506040.6764
        -0.000          -0.000
   6470626.344 9   5015012.90747  22559264.135    22559263.9174   22559273.1344
        -0.000          -0.000
  -7852667.108 9  -6105556.37247  22907398.493    22907397.8084   22907410.2494
        -0.000          -0.000
 99  4  6 21  5  0.0000000  0  7 24  4 30  5  8  9 10               -0.000000035
  -5650483.082 9  -4221777.86549  20208894.702    20208894.6334   20208902.3334
        -0.000          -0.000
   6834866.519 9   5297516.13848  21844672.255    21844672.4484   21844679.1434
        -0.000          -0.000
 -13335811.016 9  -8613573.54146  22913459.046    22913459.5734   22913467.6294
        -0.000          -0.000
 -10640269.818 9  -8279408.19649  20548266.632    20548266.2814   20548273.3114
        -0.000          -0.000
  -4523598.422 9  -3511660.63348  21510240.419    21510240.0204   21510248.0354
        -0.000          -0.000
   6549622.957 9   5076568.59747  22574296.766    22574296.4504   22574305.8164
        -0.000          -0.000
  -7940938.847 9  -6174339.31147  22890600.954    22890600.1974   22890612.3874
        -0.000          -0.000
 99  4  6 21  5 30.0000000  0  7 24  4 30  5  8  9 10               -0.000000007
  -5641789.066 9  -4215003.29349  20210549.068    20210549.0084   20210556.7894
        -0.000          -0.000
   6916796.675 9   5361357.77148  21860263.230    21860263.3554   21860269.9254
        -0.000          -0.000
 -13429168.027 9  -8686319.21846  22895693.722    22895694.3114   22895702.2614
        -0.000          -0.000
 -10681132.464 9  -8311249.20949  20540490.779    20540490.3544   20540497.3484
        -0.000          -0.000
  -4500938.921 9  -3494003.92148  21514552.558    21514552.1454   21514560.1564
        -0.000          -0.000
   6628823.618 9   5138283.28547  22589367.777    22589367.6764   22589377.1984
        -0.000          -0.000
  -8029060.462 9  -6243005.28747  22873831.826    22873831.0964   22873843.1234
        -0.000          -0.000
 99  4  6 21  6  0.0000000  0  7 24  4 30  5  8  9 10                0.000000006
  -5632650.100 9  -4207882.01249  20212288.128    20212288.0644   20212295.7844
        -0.000          -0.000
   6998933.951 9   5425360.80547  21875893.325    21875893.4944   21875900.2114
        -0.000          -0.000
 -13522416.101 9  -8758979.98547  22877949.583    22877949.9544   22877957.6474
        -0.000          -0.000
 -10721677.939 9  -8342843.07749  20532775.219    20532774.8164   20532781.7944
        -0.000          -0.000
  -4477724.312 9  -3475914.64148  21518970.272    21518969.8074   21518977.8714
        -0.000          -0.000
   6708245.168 9   5200170.08847  22604481.209    22604481.0934   22604490.6474
        -0.000          -0.000
  -8117026.873 9  -6311550.32247  22857092.213    22857091.4654   22857103.4594
        -0.000          -0.000
 99  4  6 21  6 30.0000000  0  7 24  4 30  5  8  9 10                0.000000007
  -5623030.871 9  -4200386.48249  20214118.622    20214118.5174   20214126.2424
        -0.000          -0.000
   7081295.463 9   5489538.56147  21891566.095    21891566.3044   21891573.2194
        -0.000          -0.000
 -13615536.783 9  -8831541.48547  22860229.614    22860229.7724   22860237.2764
        -0.000          -0.000
 -10761844.418 9  -8374141.62749  20525131.794    20525131.3974   20525138.4274
        -0.000          -0.000
  -4453927.798 9  -3457371.94948  21523498.585    21523498.1424   21523506.3034
        -0.000          -0.000
   6787916.636 9   5262251.64047  22619642.254    22619642.1774   22619651.7444
        -0.000          -0.000
  -8204791.291 9  -6379937.96947  22840391.089    22840390.3374   22840402.1904
        -0.000          -0.000
 99  4  6 21  7  0.0000000  0  7 24  4 30  5  8  9 10               -0.000000001
  -5612880.304 9  -4192476.94549  20216050.191    20216050.0904   20216057.7514
        -0.000          -0.000
   7163921.249 9   5553922.24247  21907289.226    21907289.4594   21907296.4674
        -0.000          -0.000
 -13708496.523 9  -8903977.57547  22842540.045    22842540.1594   22842547.6004
        -0.000          -0.000
 -10801574.709 9  -8405100.28649  20517571.332    20517570.9514   20517578.0884
        -0.000          -0.000
  -4429511.251 9  -3438346.09948  21528144.836    21528144.4464   21528152.7004
        -0.000          -0.000
   6867868.071 9   5324551.33847  22634856.475    22634856.4754   22634866.1834
        -0.000          -0.000
  -8292331.100 9  -6448150.56847  22823732.628    22823731.8304   22823743.5854
        -0.000          -0.000
 99  4  6 21  7 30.0000000  0  7 24  4 30  5  8  9 10               -0.000000016
  -5602173.205 9  -4184133.72149  20218087.602    20218087.5194   20218095.1344
        -0.000          -0.000
   7246836.675 9   5618531.62847  21923067.624    21923067.8564   21923074.8114
        -0.000          -0.000
 -13801272.302 9  -8976270.33147  22824885.248    22824885.5114   22824892.8664
        -0.000          -0.000
 -10840826.750 9  -8435686.29149  20510101.903    20510101.5024   20510108.7174
        -0.000          -0.000
  -4404465.495 9  -3418829.97148  21532910.899    21532910.4974   21532918.7414
        -0.000          -0.000
   6948112.144 9   5387079.07147  22650126.714    22650126.6434   22650136.4064
        -0.000          -0.000
  -8379628.162 9  -6516174.08147  22807120.410    22807119.6604   22807131.4174
        -0.000          -0.000
 99  4  6 21  8  0.0000000  0  7 24  4 30  5  8  9 10               -0.000000053
  -5590929.607 9  -4175372.46549  20220227.154    20220227.0784   20220234.6884
        -0.000          -0.000
   7330021.590 9   5683351.01147  21938897.387    21938897.6374   21938904.4444
        -0.000          -0.000
 -13893888.557 9  -9048438.78647  22807260.807    22807261.2124   22807268.5174
        -0.000          -0.000
 -10879602.383 9  -8465901.07749  20502723.121    20502722.7704   20502729.8974
        -0.000          -0.000
  -4378824.251 9  -3398849.82048  21537790.262    21537789.8284   21537798.0644
        -0.000          -0.000
   7028633.828 9   5449823.12847  22665449.477    22665449.4464   22665459.2684
        -0.000          -0.000
  -8466685.367 9  -6584010.65647  22790553.769    22790553.0194   22790564.7824
        -0.000          -0.000
 99  4  6 21  8 30.0000000  0  7 24  4 30  5  8  9 10               -0.000000091
  -5579133.691 9  -4166180.82549  20222471.788    20222471.7244   20222479.3354
        -0.000          -0.000
   7413499.902 9   5748399.01447  21954783.075    21954783.2794   21954789.9004
        -0.000          -0.000
 -13986315.098 9  -9120459.39847  22789672.599    22789672.9684   22789680.3854
        -0.000          -0.000
 -10917895.672 9  -8495739.99649  20495436.290    20495435.8854   20495442.9364
        -0.000          -0.000
  -4352586.801 9  -3378405.08648  21542782.970    21542782.5924   21542790.9164
        -0.000          -0.000
   7109446.392 9   5512793.84047  22680827.741    22680827.6404   22680837.4794
        -0.000          -0.000
  -8553487.380 9  -6651648.38547  22774035.745    22774035.0144   22774046.8174
        -0.000          -0.000
 99  4  6 21  9  0.0000000  0  7 24  4 30  5  8  9 10               -0.000000109
  -5566768.508 9  -4156545.59649  20224824.743    20224824.6954   20224832.3264
        -0.000          -0.000
   7497287.932 9   5813688.34247  21970727.628    21970727.7814   21970734.2644
        -0.000          -0.000
 -14078516.004 9  -9192304.19047  22772127.323    22772127.7244   22772135.1894
        -0.000          -0.000
 -10955704.123 9  -8525201.12549  20488241.658    20488241.2464   20488248.2054
        -0.000          -0.000
  -4325746.905 9  -3357490.92748  21547890.320    21547889.9864   21547898.4334
        -0.000          -0.000
   7190559.515 9   5575998.75147  22696263.066    22696263.0244   22696272.8904
        -0.000          -0.000
  -8640015.152 9  -6719072.41847  22757569.802    22757569.1134   22757580.9534
        -0.000          -0.000
 99  4  6 21  9 30.0000000  0  7 24  4 30  5  8  9 10               -0.000000120
  -5553868.366 9  -4146493.52449  20227279.499    20227279.4564   20227287.1424
        -0.000          -0.000
   7581346.417 9   5879188.43547  21986723.592    21986723.7474   21986730.1554
        -0.000          -0.000
 -14170521.035 9  -9263996.37547  22754619.356    22754619.7554   22754627.2224
        -0.000          -0.000
 -10993057.717 9  -8554307.82249  20481133.478    20481133.0674   20481140.0324
        -0.000          -0.000
  -4298340.861 9  -3336135.60748  21553105.618    21553105.3054   21553113.7214
        -0.000          -0.000
   7271943.276 9   5639414.55347  22711750.023    22711749.9624   22711759.7634
        -0.000          -0.000
  -8726280.982 9  -6786292.31147  22741153.705    22741153.0484   22741164.6914
        -0.000          -0.000
 99  4  6 21 10  0.0000000  0  7 24  4 30  5  8  9 10               -0.000000109
  -5540435.213 9  -4136026.12249  20229835.714    20229835.6764   20229843.3924
        -0.000          -0.000
   7665668.463 9   5944893.87047  22002769.747    22002769.8504   22002776.2574
        -0.000          -0.000
 -14262310.935 9  -9335520.89547  22737152.429    22737152.7464   22737160.3224
        -0.000          -0.000
 -11029962.780 9  -8583065.01649  20474110.611    20474110.2384   20474117.2434
        -0.000          -0.000
  -4270352.765 9  -3314326.73248  21558431.823    21558431.3784   21558439.6444
        -0.000          -0.000
   7353601.255 9   5703044.03047  22727289.317    22727289.1544   22727298.7684
        -0.000          -0.000
  -8812270.687 9  -6853297.10347  22724790.217    22724789.5654   22724801.0014
        -0.000          -0.000
 99  4  6 21 10 30.0000000  0  7 24  4 30  5  8  9 10               -0.000000086
  -5526532.402 9  -4125192.75549  20232481.269    20232481.2154   20232488.9594
        -0.000          -0.000
   7750222.656 9   6010780.19747  22018859.819    22018859.9104   22018866.4514
        -0.000          -0.000
 -14353916.972 9  -9406902.17047  22719720.411    22719720.6454   22719728.2794
        -0.000          -0.000
 -11066461.659 9  -8611505.69849  20467165.087    20467164.7364   20467171.7634
        -0.000          -0.000
  -4241811.910 9  -3292087.14248  21563863.130    21563862.6084   21563870.6434
        -0.000          -0.000
   7435474.451 9   5766841.22547  22742869.450    22742869.3194   22742878.9074
        -0.000          -0.000
  -8898019.121 9  -6920113.89147  22708472.710    22708472.0334   22708483.3814
        -0.000          -0.000
 99  4  6 21 11  0.0000000  0  7 24  4 30  5  8  9 10               -0.000000061
  -5512186.458 9  -4114014.08649  20235211.240    20235211.1754   20235218.8864
        -0.000          -0.000
   7835001.463 9   6076841.54747  22034992.618    22034992.6524   22034999.2774
        -0.000          -0.000
 -14445355.862 9  -9478153.17447  22702320.206    22702320.4104   22702327.9724
        -0.000          -0.000
 -11102552.414 9  -8639628.35949  20460297.297    20460296.9014   20460303.9034
        -0.000          -0.000
  -4212722.871 9  -3269420.38348  21569398.598    21569398.0674   21569406.1304
        -0.000          -0.000
   7517538.417 9   5830787.04647  22758485.882    22758485.7684   22758495.2964
        -0.000          -0.000
  -8983538.692 9  -6986752.34447  22692198.574    22692197.9684   22692209.4574
        -0.000          -0.000
 99  4  6 21 11 30.0000000  0  7 24  4 30  5  8  9 10               -0.000000014
  -5497401.062 9  -4102492.98749  20238024.824    20238024.7574   20238032.4974
        -0.000          -0.000
   7920039.567 9   6143104.98447  22051174.698    22051174.7794   22051181.4784
        -0.000          -0.000
 -14536620.307 9  -9549268.27947  22684953.084    22684953.3044   22684960.7914
        -0.000          -0.000
 -11138200.917 9  -8667406.40249  20453513.583    20453513.1884   20453520.0864
        -0.000          -0.000
  -4183058.925 9  -3246305.67548  21575043.240    21575042.8584   21575051.1684
        -0.000          -0.000
   7599816.296 9   5894899.57247  22774142.900    22774142.7694   22774152.3794
        -0.000          -0.000
  -9068806.625 9  -7053194.71447  22675972.626    22675971.9424   22675983.2954
        -0.000          -0.000
 99  4  6 21 12  0.0000000  0  7 24  4 30  5  8  9 10                0.000000020
  -5482276.196 9  -4090707.37049  20240902.932    20240902.8754   20240910.6354
        -0.000          -0.000
   8005265.317 9   6209514.59247  22067392.439    22067392.5834   22067399.5124
        -0.000          -0.000
 -14627776.375 9  -9620298.92947  22667606.480    22667606.8324   22667614.2194
        -0.000          -0.000
 -11173490.715 9  -8694904.94649  20446798.135    20446797.7664   20446804.6684
        -0.000          -0.000
  -4152895.016 9  -3222801.38548  21580783.232    21580782.9944   21580791.3654
        -0.000          -0.000
   7682219.075 9   5959109.39347  22789823.528    22789823.4244   22789833.2314
        -0.000          -0.000
  -9153904.674 9  -7119504.73547  22659778.873    22659778.1834   22659789.3524
        -0.000          -0.000
 99  4  6 21 12 30.0000000  0  7 24  4 30  5  8  9 10                0.000000045
  -5466796.336 9  -4078645.13949  20243848.690    20243848.6254   20243856.3554
        -0.000          -0.000
   8090695.934 9   6276083.87647  22083649.274    22083649.4584   22083656.5924
        -0.000          -0.000
 -14718823.465 9  -9691244.65047  22650280.664    22650281.0174   22650288.3534
        -0.000          -0.000
 -11208409.296 9  -8722114.22749  20440153.289    20440152.9274   20440159.9304
        -0.000          -0.000
  -4122216.353 9  -3198895.96148  21586621.307    21586620.9834   21586629.5354
        -0.000          -0.000
   7764759.931 9   6023426.80047  22805530.406    22805530.3804   22805540.3684
        -0.000          -0.000
  -9238818.162 9  -7185670.91447  22643620.196    22643619.4594   22643630.6904
        -0.000          -0.000
 99  4  6 21 13  0.0000000  0  7 24  4 30  5  8  9 10                0.000000059
  -5450918.468 9  -4066272.77449  20246870.129    20246870.0844   20246877.8544
        -0.000          -0.000
   8176338.764 9   6342818.49447  22099946.450    22099946.6264   22099953.8814
        -0.000          -0.000
 -14809739.110 9  -9762087.95047  22632979.844    22632980.2744   22632987.5064
        -0.000          -0.000
 -11242937.670 9  -8749019.45549  20433582.761    20433582.4054   20433589.4634
        -0.000          -0.000
  -4091008.312 9  -3174578.04548  21592560.032    21592559.6724   21592568.1864
        -0.000          -0.000
   7847460.128 9   6087868.39547  22821267.748    22821267.6854   22821277.8174
        -0.000          -0.000
  -9323528.300 9  -7251678.66147  22627500.128    22627499.4594   22627510.7754
        -0.000          -0.000
 99  4  6 21 13 30.0000000  0  7 24  4 30  5  8  9 10                0.000000072
  -5434608.809 9  -4053563.93149  20249973.690    20249973.6454   20249981.5124
        -0.000          -0.000
   8262196.129 9   6409720.27847  22116284.443    22116284.6754   22116292.0304
        -0.000          -0.000
 -14900500.598 9  -9832811.12647  22615708.466    22615708.8914   22615716.0744
        -0.000          -0.000
 -11277057.302 9  -8775606.17049  20427090.026    20427089.6504   20427096.7364
        -0.000          -0.000
  -4059252.391 9  -3149833.22348  21598603.117    21598602.6984   21598611.0704
        -0.000          -0.000
   7930354.396 9   6152461.22947  22837042.242    22837042.1644   22837052.1634
        -0.000          -0.000
  -9408001.939 9  -7317502.11547  22611425.287    22611424.6564   22611435.9764
        -0.000          -0.000
 99  4  6 21 14  0.0000000  0  7 24  4 30  5  8  9 10                0.000000059
  -5417865.734 9  -4040517.36649  20253159.811    20253159.7494   20253167.6214
        -0.000          -0.000
   8348222.717 9   6476753.92247  22132654.834    22132655.0324   22132662.3264
        -0.000          -0.000
 -14991115.971 9  -9903420.44847  22598464.645    22598465.1194   22598472.4674
        -0.000          -0.000
 -11310795.811 9  -8801895.91049  20420669.743    20420669.3754   20420676.4504
        -0.000          -0.000
  -4026973.189 9  -3124680.63248  21604745.705    21604745.2564   21604753.6954
        -0.000          -0.000
   8013422.706 9   6217189.65147  22852849.981    22852849.8014   22852859.6444
        -0.000          -0.000
  -9492259.448 9  -7383157.19747  22595391.674    22595391.0164   22595402.2804
        -0.000          -0.000
 99  4  6 21 14 30.0000000  0  7 24  4 30  5  8  9 10                0.000000037
  -5400613.501 9  -4027074.06049  20256442.870    20256442.8064   20256450.6304
        -0.000          -0.000
   8434463.981 9   6543954.88546  22149066.062    22149066.2214   22149073.3504
        -0.000          -0.000
 -15081535.071 9  -9973876.85947  22581258.127    22581258.7814   22581266.1754
        -0.000          -0.000
 -11344091.219 9  -8827840.38049  20414333.743    20414333.4214   20414340.4644
        -0.000          -0.000
  -3994114.454 9  -3099076.47748  21610998.565    21610998.1474   21611006.5294
        -0.000          -0.000
   8096727.196 9   6282102.14747  22868702.260    22868702.1474   22868712.1134
        -0.000          -0.000
  -9576244.665 9  -7448600.10547  22579409.792    22579409.0014   22579420.2764
        -0.000          -0.000
 99  4  6 21 15  0.0000000  0  7 24  4 30  5  8  9 10                0.000000027
  -5382826.960 9  -4013214.41949  20259827.560    20259827.5134   20259835.1694
        -0.000          -0.000
   8520951.399 9   6611347.64546  22165524.249    22165524.3964   22165531.3754
        -0.000          -0.000
 -15171725.338 9 -10044154.93947  22564095.474    22564096.0514   22564103.3514
        -0.000          -0.000
 -11376905.262 9  -8853409.76149  20408089.491    20408089.1344   20408096.2034
        -0.000          -0.000
  -3960658.462 9  -3073006.92448  21617365.143    21617364.6704   21617373.0934
        -0.000          -0.000
   8180292.880 9   6347218.13247  22884604.462    22884604.3184   22884614.3754
        -0.000          -0.000
  -9659925.280 9  -7513805.63447  22563485.692    22563484.9944   22563496.1914
        -0.000          -0.000
 99  4  6 21 15 30.0000000  0  7 24  4 30  5  8  9 10                0.000000008
  -5364567.431 9  -3998986.21649  20263302.281    20263302.2174   20263309.7664
        -0.000          -0.000
   8607637.690 9   6678895.34446  22182020.349    22182020.4564   22182027.3024
        -0.000          -0.000
 -15261730.376 9 -10114288.69347  22546968.125    22546968.5784   22546975.9004
        -0.000          -0.000
 -11409288.072 9  -8878643.11549  20401927.315    20401926.9404   20401933.9714
        -0.000          -0.000
  -3926654.072 9  -3046510.05848  21623836.018    21623835.5504   21623844.0364
        -0.000          -0.000
   8264075.901 9   6412503.47847  22900547.899    22900547.7904   22900557.9924
        -0.000          -0.000
  -9743344.921 9  -7578807.80347  22547611.374    22547610.6644   22547621.8464
        -0.000          -0.000
 99  4  6 21 16  0.0000000  0  7 24  4 30  5  8  9 10               -0.000000010
  -5345822.033 9  -3984379.41049  20266869.499    20266869.4384   20266876.8904
        -0.000          -0.000
   8694535.659 9   6746607.98246  22198556.672    22198556.6894   22198563.6224
        -0.000          -0.000
 -15351522.390 9 -10184256.43247  22529881.454    22529881.7274   22529888.9894
        -0.000          -0.000
 -11441231.755 9  -8903534.29349  20395848.692    20395848.2884   20395855.2894
        -0.000          -0.000
  -3892087.601 9  -3019575.19748  21630413.782    21630413.3664   21630421.7704
        -0.000          -0.000
   8348067.277 9   6477951.17947  22916530.935    22916530.8954   22916541.2554
        -0.000          -0.000
  -9826495.718 9  -7643600.48947  22531788.348    22531787.5784   22531798.5874
        -0.000          -0.000
 99  4  6 21 16 30.0000000  0  7 24  4 30  5  8  9 10               -0.000000004
  -5326571.990 9  -3969379.37149  20270532.653    20270532.5924   20270540.0074
        -0.000          -0.000
   8781674.376 9   6814508.25646  22215138.676    22215138.7204   22215145.6834
        -0.000          -0.000
 -15441075.120 9 -10254037.75047  22512840.224    22512840.4244   22512847.7834
        -0.000          -0.000
 -11472715.508 9  -8928067.09049  20389857.599    20389857.1664   20389864.1564
        -0.000          -0.000
  -3856946.332 9  -2992192.45348  21637101.008    21637100.5964   21637108.9364
        -0.000          -0.000
   8432278.406 9   6543570.11547  22932555.962    22932555.8324   22932566.1884
        -0.000          -0.000
  -9909341.571 9  -7708155.57747  22516023.268    22516022.4714   22516033.2334
        -0.000          -0.000
 99  4  6 21 17  0.0000000  0  7 24  4 30  5  8  9 10                0.000000003
  -5306861.241 9  -3954020.34549  20274283.520    20274283.4464   20274290.7794
        -0.000          -0.000
   8869012.714 9   6882564.03146  22231758.678    22231758.7334   22231765.8564
        -0.000          -0.000
 -15530424.966 9 -10323660.95347  22495837.519    22495837.6864   22495845.2414
        -0.000          -0.000
 -11503784.428 9  -8952276.64149  20383945.367    20383944.9294   20383951.9424
        -0.000          -0.000
  -3821287.436 9  -2964406.34248  21643886.779    21643886.3194   21643894.6224
        -0.000          -0.000
   8516669.736 9   6609329.47047  22948615.074    22948614.9254   22948625.4184
        -0.000          -0.000
  -9991916.869 9  -7772499.82747  22500309.423    22500308.7004   22500319.4154
        -0.000          -0.000
 99  4  6 21 17 30.0000000  0  7 24  4 30  5  8  9 10                0.000000008
  -5286688.483 9  -3938301.29949  20278122.271    20278122.2084   20278129.4484
        -0.000          -0.000
   8956536.809 9   6950764.56546  22248414.003    22248414.0834   22248421.3564
        -0.000          -0.000
 -15619564.502 9 -10393120.27547  22478874.837    22478874.9384   22478882.6184
        -0.000          -0.000
 -11534438.147 9  -8976162.66649  20378112.027    20378111.6374   20378118.7104
        -0.000          -0.000
  -3785111.431 9  -2936217.30948  21650770.845    21650770.4434   21650778.7664
        -0.000          -0.000
   8601239.071 9   6675227.52847  22964707.964    22964707.9234   22964718.5374
        -0.000          -0.000
 -10074228.879 9  -7836638.93247  22484646.033    22484645.2544   22484655.9024
        -0.000          -0.000
 99  4  6 21 18  0.0000000  0  7 24  4 30  5  8  9 10               -0.000000003
  -5266050.820 9  -3922219.99649  20282049.487    20282049.4204   20282056.6754
        -0.000          -0.000
   9044243.182 9   7019107.15046  22265104.116    22265104.2284   22265111.4654
        -0.000          -0.000
 -15708494.664 9 -10462416.45647  22461951.985    22461952.1544   22461959.7354
        -0.000          -0.000
 -11564660.553 9  -8999712.59649  20372360.880    20372360.5384   20372367.5574
        -0.000          -0.000
  -3748417.536 9  -2907624.72348  21657753.411    21657753.0604   21657761.6184
        -0.000          -0.000
   8685982.143 9   6741260.96547  22980834.225    22980834.0604   22980844.7764
        -0.000          -0.000
 -10156277.108 9  -7900572.48247  22469032.587    22469031.8644   22469042.6404
        -0.000          -0.000
 99  4  6 21 18 30.0000000  0  7 24  4 30  5  8  9 10               -0.000000007
  -5244919.516 9  -3905754.03949  20286070.570    20286070.5164   20286077.8804
        -0.000          -0.000
   9132179.896 9   7087629.25446  22281838.051    22281838.1544   22281845.2644
        -0.000          -0.000
 -15797195.495 9 -10531533.91347  22445072.810    22445073.0294   22445080.4694
        -0.000          -0.000
 -11594392.239 9  -9022880.13349  20366703.205    20366702.8354   20366709.7944
        -0.000          -0.000
  -3711166.176 9  -2878597.73847  21664842.075    21664841.6634   21664850.5704
        -0.000          -0.000
   8770945.789 9   6807466.26847  22997002.276    22997002.1764   22997012.8384
        -0.000          -0.000
 -10238020.099 9  -7964268.19247  22453477.266    22453476.5324   22453487.3114
        -0.000          -0.000
 99  4  6 21 19  0.0000000  0  7 24  4 30  5  8  9 10               -0.000000008
  -5223316.219 9  -3888920.30349  20290181.541    20290181.5094   20290188.9064
        -0.000          -0.000
   9220348.242 9   7156331.82146  22298616.009    22298616.0794   22298623.1564
        -0.000          -0.000
 -15885675.269 9 -10600479.15547  22428235.687    22428235.9454   22428243.2214
        -0.000          -0.000
 -11623623.853 9  -9045658.00949  20361140.653    20361140.2564   20361147.2144
        -0.000          -0.000
  -3673344.120 9  -2849126.05547  21672039.040    21672038.7804   21672047.9654
        -0.000          -0.000
   8856122.454 9   6873837.55447  23013210.866    23013210.8254   23013221.2234
        -0.000          -0.000
 -10319471.284 9  -8027736.51747  22437977.451    22437976.7124   22437987.4544
        -0.000          -0.000
 99  4  6 21 19 30.0000000  0  7 24  4 30  5  8  9 10               -0.000000021
  -5201271.808 9  -3871742.84249  20294376.533    20294376.4654   20294383.8434
        -0.000          -0.000
   9308724.848 9   7225196.65446  22315433.703    22315433.7574   22315440.7724
        -0.000          -0.000
 -15973951.864 9 -10669266.07847  22411437.245    22411437.5444   22411444.6734
        -0.000          -0.000
 -11652359.963 9  -9068049.78849  20355672.315    20355671.9024   20355678.8414
        -0.000          -0.000
  -3634953.856 9  -2819211.62647  21679344.619    21679344.3424   21679353.3974
        -0.000          -0.000
   8941467.830 9   6940340.30547  23029451.820    23029451.7724   23029462.0824
        -0.000          -0.000
 -10400645.364 9  -8090988.91447  22422530.383    22422529.7254   22422540.3334
        -0.000          -0.000
 99  4  6 21 20  0.0000000  0  7 24  4 30  5  8  9 10               -0.000000042
  -5178792.279 9  -3854226.30949  20298654.357    20298654.2544   20298661.5184
        -0.000          -0.000
   9397308.398 9   7294222.74546  22332290.768    22332290.7764   22332297.7764
        -0.000          -0.000
 -16062029.705 9 -10737898.10347  22394676.593    22394676.8484   22394683.9214
        -0.000          -0.000
 -11680608.744 9  -9090061.83049  20350296.679    20350296.3034   20350303.2504
        -0.000          -0.000
  -3595994.968 9  -2788854.08747  21686758.470    21686758.1394   21686766.9664
        -0.000          -0.000
   9026969.215 9   7006964.62747  23045722.412    23045722.3184   23045732.5254
        -0.000          -0.000
 -10481529.401 9  -8154015.31047  22407138.721    22407138.0314   22407148.4224
        -0.000          -0.000
 99  4  6 21 20 30.0000000  0  7 24  4 30  5  8  9 10               -0.000000040
  -5155852.900 9  -3836351.46749  20303019.605    20303019.5024   20303026.6924
        -0.000          -0.000
   9486137.284 9   7363439.98646  22349194.474    22349194.5244   22349201.5644
        -0.000          -0.000
 -16149874.084 9 -10806348.21647  22377960.267    22377960.5504   22377967.4944
        -0.000          -0.000
 -11708349.757 9  -9111678.20449  20345017.713    20345017.3484   20345024.2004
        -0.000          -0.000
  -3556454.787 9  -2758043.60647  21694282.887    21694282.5114   21694291.1394
        -0.000          -0.000
   9112651.088 9   7073729.60447  23062027.204    23062027.1814   23062037.3374
        -0.000          -0.000
 -10562076.999 9  -8216779.52447  22391811.015    22391810.2634   22391820.6254
        -0.000          -0.000
 99  4  6 21 21  0.0000000  0  7 24  4 30  5  8  9 10               -0.000000038
  -5132484.027 9  -3818141.94749  20307466.565    20307466.4344   20307473.5784
        -0.000          -0.000
   9575151.537 9   7432801.67446  22366133.349    22366133.4584   22366140.3494
        -0.000          -0.000
 -16237505.512 9 -10874632.40647  22361284.388    22361284.7254   22361291.4844
        -0.000          -0.000
 -11735648.947 9  -9132950.29749  20339822.968    20339822.5444   20339829.3064
        -0.000          -0.000
  -3516397.599 9  -2726830.25847  21701905.588    21701905.1944   21701913.8334
        -0.000          -0.000
   9198465.894 9   7140598.11647  23078357.320    23078357.2654   23078367.3744
        -0.000          -0.000
 -10642322.196 9  -8279308.10647  22376540.728    22376539.9644   22376550.3704
        -0.000          -0.000
 99  4  6 21 21 30.0000000  0  7 24  4 30  5  8  9 10               -0.000000037
  -5108653.107 9  -3799572.40349  20312001.313    20312001.2444   20312008.5254
        -0.000          -0.000
   9664347.967 9   7502305.32246  22383106.604    22383106.7784   22383113.6694
        -0.000          -0.000
 -16324903.910 9 -10942735.01647  22344652.794    22344653.1494   22344659.9214
        -0.000          -0.000
 -11762504.305 9  -9153876.55749  20334712.524    20334712.1424   20334718.9344
        -0.000          -0.000
  -3475838.219 9  -2695225.58947  21709623.744    21709623.3704   21709632.1594
        -0.000          -0.000
   9284435.195 9   7207587.03047  23094716.937    23094716.8704   23094726.9364
        -0.000          -0.000
 -10722252.686 9  -8341591.47147  22361330.276    22361329.5444   22361339.9404
        -0.000          -0.000
 99  4  6 21 22  0.0000000  0  7 24  4 30  5  8  9 10               -0.000000030
  -5084360.731 9  -3780643.28449  20316623.976    20316623.8844   20316631.2844
        -0.000          -0.000
   9753723.096 9   7571948.20646  22400113.831    22400114.2134   22400121.1914
        -0.000          -0.000
 -16412062.321 9 -11010650.61147  22328066.845    22328067.2414   22328074.2014
        -0.000          -0.000
 -11788927.566 9  -9174466.11049  20329684.376    20329683.9734   20329690.8454
        -0.000          -0.000
  -3434793.873 9  -2663243.05047  21717434.252    21717433.8934   21717442.6384
        -0.000          -0.000
   9370567.571 9   7274703.02647  23111107.345    23111107.3844   23111117.4714
        -0.000          -0.000
 -10801871.009 9  -8403631.56447  22346179.235    22346178.4934   22346188.8204
        -0.000          -0.000
 99  4  6 21 22 30.0000000  0  7 24  4 30  5  8  9 10               -0.000000040
  -5059626.711 9  -3761370.01949  20321330.699    20321330.6264   20321338.1134
        -0.000          -0.000
   9843243.780 9   7641704.52946  22417149.100    22417149.3314   22417156.2144
        -0.000          -0.000
 -16499000.834 9 -11078394.85947  22311522.814    22311523.2444   22311530.3024
        -0.000          -0.000
 -11814939.155 9  -9194734.88849  20324734.494    20324734.0804   20324741.0584
        -0.000          -0.000
  -3393295.232 9  -2630906.49647  21725331.082    21725330.7764   21725339.6534
        -0.000          -0.000
   9456840.860 9   7341928.81947  23127524.826    23127524.8374   23127534.7934
        -0.000          -0.000
 -10881212.397 9  -8465455.84447  22331081.066    22331080.2854   22331090.3894
        -0.000          -0.000
 99  4  6 21 23  0.0000000  0  7 24  4 30  5  8  9 10               -0.000000041
  -5034393.421 9  -3741707.72949  20326132.395    20326132.3214   20326139.8284
        -0.000          -0.000
   9932953.904 9   7711608.46246  22434220.327    22434220.5724   22434227.4304
        -0.000          -0.000
 -16585666.065 9 -11145926.16247  22295030.786    22295031.2624   22295038.3294
        -0.000          -0.000
 -11840480.606 9  -9214637.31549  20319873.961    20319873.6044   20319880.6564
        -0.000          -0.000
  -3351265.032 9  -2598155.73847  21733329.179    21733328.8504   21733337.7894
        -0.000          -0.000
   9543310.300 9   7409307.46947  23143979.469    23143979.4664   23143989.4084
        -0.000          -0.000
 -10960232.186 9  -8527029.56047  22316044.082    22316043.2954   22316053.3074
        -0.000          -0.000
 99  4  6 21 23 30.0000000  0  7 24  4 30  5  8  9 10               -0.000000042
  -5008703.204 9  -3721689.37949  20331021.078    20331020.9774   20331028.4954
        -0.000          -0.000
  10022846.170 9   7781654.32645  22451326.269    22451326.4494   22451333.3774
        -0.000          -0.000
 -16672093.293 9 -11213272.00047  22278584.238    22278584.6474   22278591.6174
        -0.000          -0.000
 -11865549.270 9  -9234171.34349  20315103.563    20315103.1974   20315110.2714
        -0.000          -0.000
  -3308695.570 9  -2564984.79447  21741430.014    21741429.5624   21741438.4774
        -0.000          -0.000
   9629950.547 9   7476819.20047  23160466.417    23160466.5524   23160476.6074
        -0.000          -0.000
 -11038946.809 9  -8588365.50047  22301065.080    22301064.3054   22301074.5064
        -0.000          -0.000
 99  4  6 21 24  0.0000000  0  7 24  4 30  5  8  9 10               -0.000000034
  -4982576.284 9  -3701330.74949  20335992.876    20335992.7654   20336000.3054
        -0.000          -0.000
  10112919.631 9   7851841.34945  22468466.829    22468467.0044   22468473.9064
        -0.000          -0.000
 -16758291.488 9 -11280439.37747  22262181.176    22262181.5534   22262188.4814
        -0.000          -0.000
 -11890144.707 9  -9253336.62549  20310423.257    20310422.9074   20310429.9714
        -0.000          -0.000
  -3265579.274 9  -2531387.71147  21749634.793    21749634.3524   21749643.1884
        -0.000          -0.000
   9716753.249 9   7544457.50747  23176984.784    23176984.6784   23176994.8294
        -0.000          -0.000
 -11117339.492 9  -8649450.56647  22286147.254    22286146.4824   22286156.8694
        -0.000          -0.000
 99  4  6 21 24 30.0000000  0  7 24  4 30  5  8  9 10               -0.000000046
  -4956057.810 9  -3680666.99949  20341039.162    20341039.0324   20341046.5734
        -0.000          -0.000
  10203130.059 9   7922135.13245  22485633.577    22485633.4894   22485640.4884
        -0.000          -0.000
 -16844309.163 9 -11347466.09747  22245812.245    22245812.8054   22245819.7854
        -0.000          -0.000
 -11914308.364 9  -9272165.45049  20305825.196    20305824.8204   20305831.7624
        -0.000          -0.000
  -3221962.493 9  -2497400.64147  21757934.842    21757934.3764   21757943.1044
        -0.000          -0.000
   9803678.910 9   7612191.62347  23193526.241    23193526.1454   23193536.5234
        -0.000          -0.000
 -11195443.243 9  -8710310.50347  22271284.283    22271283.5824   22271294.0614
        -0.000          -0.000
 99  4  6 21 25  0.0000000  0  7 24  4 30  5  8  9 10               -0.000000039
  -4929136.389 9  -3659689.27749  20346162.141    20346162.0154   20346169.5774
        -0.000          -0.000
  10293519.730 8   7992568.57745  22502834.190    22502834.0324   22502841.1584
        -0.000          -0.000
 -16930104.472 9 -11414319.54247  22229485.796    22229486.4964   22229493.4124
        -0.000          -0.000
 -11937993.595 9  -9290621.46949  20301318.091    20301317.6804   20301324.5904
        -0.000          -0.000
  -3177817.893 9  -2463002.33047  21766335.112    21766334.6804   21766343.6364
        -0.000          -0.000
   9890760.023 9   7680046.87147  23210097.393    23210097.3234   23210107.8834
        -0.000          -0.000
 -11273206.367 9  -8770905.00447  22256486.385    22256485.6764   22256495.9964
        -0.000          -0.000
 99  4  6 21 25 30.0000000  0  7 24  4 30  5  8  9 10               -0.000000011
  -4901815.315 9  -3638400.13549  20351361.222    20351361.0964   20351368.6064
        -0.000          -0.000
  10384081.008 9   8063135.75345  22520067.567    22520067.4414   22520074.5324
        -0.000          -0.000
 -17015658.431 9 -11480984.91047  22213205.511    22213206.1674   22213212.9884
        -0.000          -0.000
 -11961192.743 9  -9308698.73049  20296903.418    20296903.0364   20296909.9324
        -0.000          -0.000
  -3133164.745 9  -2428207.72947  21774832.358    21774831.9874   21774840.8794
        -0.000          -0.000
   9977995.977 9   7748022.81247  23226698.277    23226698.0514   23226708.6754
        -0.000          -0.000
 -11350611.149 9  -8831220.27447  22241756.625    22241755.9234   22241766.1054
        -0.000          -0.000
 99  4  6 21 26  0.0000000  0  7 24  4 30  5  8  9 10                0.000000012
  -4874131.220 9  -3616828.11149  20356629.416    20356629.2794   20356636.7754
        -0.000          -0.000
  10474760.942 8   8133795.38845  22537323.534    22537323.3664   22537330.6134
        -0.000          -0.000
 -17100985.310 9 -11547473.32347  22196968.476    22196969.0084   22196975.7464
        -0.000          -0.000
 -11983955.342 9  -9326435.81849  20292571.829    20292571.4454   20292578.4304
        -0.000          -0.000
  -3088071.226 9  -2393069.99247  21783413.479    21783413.0764   21783421.9124
        -0.000          -0.000
  10065347.338 9   7816088.62847  23243320.813    23243320.6144   23243331.3654
        -0.000          -0.000
 -11427702.178 9  -8891291.08947  22227086.576    22227085.8984   22227096.0134
        -0.000          -0.000
 99  4  6 21 26 30.0000000  0  7 24  4 30  5  8  9 10                0.000000027
  -4846075.080 9  -3594966.18949  20361968.358    20361968.2234   20361975.7094
        -0.000          -0.000
  10565566.256 8   8204552.70745  22554603.148    22554603.0234   22554610.4064
        -0.000          -0.000
 -17186063.047 9 -11613767.61147  22180778.768    22180779.2664   22180786.0114
        -0.000          -0.000
 -12006263.456 9  -9343818.76749  20288326.656    20288326.2844   20288333.3524
        -0.000          -0.000
  -3042531.437 9  -2357584.49647  21792079.520    21792079.1374   21792087.9604
        -0.000          -0.000
  10152801.272 9   7884234.41047  23259962.826    23259962.6534   23259973.5584
        -0.000          -0.000
 -11504478.608 9  -8951116.76547  22212476.465    22212475.7934   22212485.8184
        -0.000          -0.000
 99  4  6 21 27  0.0000000  0  7 24  4 30  5  8  9 10                0.000000034
  -4817641.258 9  -3572809.97049  20367379.127    20367378.9874   20367386.4834
        -0.000          -0.000
  10656500.844 8   8275410.76445  22571907.302    22571907.2754   22571914.7344
        -0.000          -0.000
 -17270880.405 9 -11679859.02847  22164638.648    22164639.1794   22164645.8454
        -0.000          -0.000
 -12028111.479 9  -9360843.20549  20284169.074    20284168.7224   20284175.8404
        -0.000          -0.000
  -2996536.934 9  -2321744.67347  21800832.112    21800831.6494   21800840.4984
        -0.000          -0.000
  10240352.254 9   7952455.78047  23276623.255    23276623.0494   23276634.1074
        -0.000          -0.000
 -11580942.343 9  -9010698.75747  22197925.904    22197925.1764   22197935.1824
        -0.000          -0.000
 99  4  6 21 27 30.0000000  0  7 24  4 30  5  8  9 10                0.000000030
  -4788784.711 9  -3550324.35949  20372870.337    20372870.2054   20372877.6624
        -0.000          -0.000
  10747574.902 7   8346377.51945  22589238.000    22589238.0864   22589245.6704
        -0.000          -0.000
 -17355422.253 9 -11745735.74147  22148551.061    22148551.4764   22148558.1064
        -0.000          -0.000
 -12049485.253 9  -9377498.10149  20280101.811    20280101.4784   20280108.5804
        -0.000          -0.000
  -2950062.096 9  -2285530.57047  21809675.906    21809675.4864   21809684.4224
        -0.000          -0.000
  10328020.164 9   8020768.27246  23293305.679    23293305.6604   23293316.9404
        -0.000          -0.000
 -11657083.273 9  -9070029.23347  22183436.650    22183435.9274   22183446.0744
        -0.000          -0.000
 99  4  6 21 28  0.0000000  0  7 24  4 30  5  8  9 10                0.000000022
  -4759475.246 9  -3527485.81449  20378447.705    20378447.5554   20378455.0064
        -0.000          -0.000
  10838822.265 8   8417479.23945  22606601.057    22606601.6554   22606609.5804
        -0.000          -0.000
 -17439686.286 9 -11811395.96947  22132516.246    22132516.6674   22132523.2324
        -0.000          -0.000
 -12070357.455 9  -9393762.15549  20276130.092    20276129.7174   20276136.7244
        -0.000          -0.000
  -2903075.854 9  -2248917.99347  21818617.202    21818616.7754   21818625.6884
        -0.000          -0.000
  10415819.048 9   8089182.83246  23310013.183    23310013.2244   23310024.6234
        -0.000          -0.000
 -11732883.401 9  -9129094.12047  22169012.277    22169011.5824   22169021.7774
        -0.000          -0.000
 99  4  6 21 28 30.0000000  0  7 24  4 30  5  8  9 10                0.000000021
  -4729695.899 9  -3504281.12949  20384114.519    20384114.4014   20384121.8304
        -0.000          -0.000
  10930269.984 7   8488737.10945  22624002.657    22624003.2594   22624011.5274
        -0.000          -0.000
 -17523676.216 9 -11876842.61247  22116533.646    22116533.9224   22116540.5684
        -0.000          -0.000
 -12090707.746 9  -9409619.52549  20272257.650    20272257.2484   20272264.1514
        -0.000          -0.000
  -2855546.244 9  -2211882.00247  21827661.841    21827661.3754   21827670.2414
        -0.000          -0.000
  10503749.850 9   8157700.16246  23326746.084    23326746.0004   23326757.4184
        -0.000          -0.000
 -11808319.848 9  -9187875.67447  22154657.086    22154656.3704   22154666.4754
        -0.000          -0.000
 99  4  6 21 29  0.0000000  0  7 24  4 30  5  8  9 10               -0.000000001
  -4699496.246 9  -3480748.93349  20389861.380    20389861.2834   20389868.6084
        -0.000          -0.000
  11021864.233 8   8560109.26845  22641431.976    22641433.2524   22641441.7204
        -0.000          -0.000
 -17607453.143 9 -11942123.29447  22100591.398    22100591.6594   22100598.4404
        -0.000          -0.000
 -12110603.493 9  -9425122.72049  20268471.585    20268471.1794   20268478.0814
        -0.000          -0.000
  -2807531.730 9  -2174468.15347  21836798.767    21836798.2794   21836807.1354
        -0.000          -0.000
  10591773.900 9   8226290.13546  23343496.651    23343496.5244   23343507.9064
        -0.000          -0.000
 -11883440.352 9  -9246411.00147  22140361.949    22140361.3074   22140371.2904
        -0.000          -0.000
 99  4  6 21 29 30.0000000  0  7 24  4 30  5  8  9 10               -0.000000000
  -4668820.669 9  -3456845.89449  20395698.768    20395698.6724   20395705.9394
        -0.000          -0.000
  11113665.601 8   8631642.77645  22658901.089    22658901.2694   22658911.4434
        -0.000          -0.000
 -17690959.724 9 -12007193.31147  22084700.521    22084700.8304   22084707.7444
        -0.000          -0.000
 -12129979.337 9  -9440220.78849  20264784.418    20264784.0524   20264790.9084
        -0.000          -0.000
  -2758971.059 9  -2136628.72847  21846039.589    21846039.1314   21846048.0334
        -0.000          -0.000
  10679950.288 9   8294998.83346  23360276.166    23360276.0674   23360287.4134
        -0.000          -0.000
 -11958163.394 9  -9304636.63247  22126142.494    22126141.8214   22126151.8214
        -0.000          -0.000
 99  4  6 21 30  0.0000000  0  7 24  4 30  5  8  9 10                0.000000010
  -4637748.436 9  -3432633.77749  20401611.627    20401611.5584   20401618.7964
        -0.000          -0.000
  11205622.568 8   8703297.46845  22676400.065    22676399.8254   22676410.3834
        -0.000          -0.000
 -17774236.057 9 -12072083.92547  22068853.650    22068853.9004   22068860.8084
        -0.000          -0.000
 -12148900.425 9  -9454964.49549  20261183.728    20261183.4344   20261190.3394
        -0.000          -0.000
  -2709920.934 9  -2098407.92347  21855373.691    21855373.2494   21855382.0704
        -0.000          -0.000
  10768216.799 9   8363777.75346  23377073.022    23377072.8794   23377084.0364
        -0.000          -0.000
 -12032525.166 9  -9362580.75847  22111991.734    22111991.0974   22112001.1704
        -0.000          -0.000
 99  4  6 21 30 30.0000000  0  7 24  4 30  5  8  9 10                0.000000031
  -4606294.247 9  -3408124.02449  20407597.118    20407597.0354   20407604.3694
        -0.000          -0.000
  11297711.706 8   8775055.19945  22693924.605    22693924.1514   22693934.1884
        -0.000          -0.000
 -17857267.622 9 -12136783.81047  22053053.317    22053053.4994   22053060.4094
        -0.000          -0.000
 -12167382.197 9  -9469365.87849  20257666.796    20257666.4604   20257673.4354
        -0.000          -0.000
  -2660394.188 9  -2059815.71147  21864798.765    21864798.1354   21864806.7434
        -0.000          -0.000
  10856567.352 9   8432622.15946  23393885.799    23393885.5904   23393896.7214
        -0.000          -0.000
 -12106521.238 9  -9420239.92747  22097910.750    22097910.0464   22097920.0144
        -0.000          -0.000
 99  4  6 21 31  0.0000000  0  7 24  4 30  5  8  9 10                0.000000035
  -4574478.143 9  -3383332.26349  20413651.542    20413651.4534   20413658.7824
        -0.000          -0.000
  11389879.215 7   8846873.96945  22711464.228    22711463.6784   22711472.6864
        -0.000          -0.000
 -17940065.562 9 -12201301.64847  22037297.180    22037297.4174   22037304.4404
        -0.000          -0.000
 -12185442.555 9  -9483438.89049  20254229.967    20254229.6294   20254236.6694
        -0.000          -0.000
  -2610431.359 9  -2020883.70847  21874306.258    21874305.7434   21874314.3324
        -0.000          -0.000
  10944991.602 9   8501524.00346  23410712.425    23410712.2814   23410723.6024
        -0.000          -0.000
 -12180168.159 9  -9477627.01847  22083896.040    22083895.3474   22083905.3564
        -0.000          -0.000
 99  4  6 21 31 30.0000000  0  7 24  4 30  5  8  9 10                0.000000030
  -4542270.663 9  -3358235.53049  20419780.425    20419780.3404   20419787.6384
        -0.000          -0.000
  11482147.509 8   8918771.26045  22729023.215    22729022.2954   22729031.0674
        -0.000          -0.000
 -18022583.080 9 -12265600.97847  22021594.461    22021594.7084   22021601.8664
        -0.000          -0.000
 -12203024.730 9  -9497139.30349  20250884.180    20250883.8554   20250890.8894
        -0.000          -0.000
  -2559997.240 9  -1981584.47447  21883903.533    21883903.0194   21883911.6894
        -0.000          -0.000
  11033518.671 9   8570505.95446  23427558.676    23427558.5584   23427570.0174
        -0.000          -0.000
 -12253439.415 9  -9534721.38847  22069952.956    22069952.2704   22069962.2844
        -0.000          -0.000
 99  4  6 21 32  0.0000000  0  7 24  4 30  5  8  9 10                0.000000019
  -4509654.491 9  -3332820.34849  20425987.081    20425987.0234   20425994.4004
        -0.000          -0.000
  11574523.758 7   8990752.66344  22746602.378    22746600.9874   22746609.4604
        -0.000          -0.000
 -18104798.795 9 -12329665.13047  22005949.109    22005949.4484   22005956.6534
        -0.000          -0.000
 -12220113.785 9  -9510455.45949  20247632.331    20247631.9864   20247638.9034
        -0.000          -0.000
  -2509090.295 9  -1941916.78547  21893590.882    21893590.3824   21893599.0274
        -0.000          -0.000
  11122164.312 9   8639580.29146  23444427.538    23444427.3514   23444439.0514
        -0.000          -0.000
 -12326349.718 9  -9591534.52147  22056078.581    22056077.8854   22056087.8564
        -0.000          -0.000
 99  4  6 21 32 30.0000000  0  7 24  4 30  5  8  9 10               -0.000000024
  -4476639.422 9  -3307094.32449  20432269.617    20432269.5544   20432277.0164
        -0.000          -0.000
  11666984.866 8   9062800.09744  22764197.894    22764196.7444   22764203.9544
        -0.000          -0.000
 -18186746.174 9 -12393520.20047  21990354.788    21990355.1944   21990362.5044
        -0.000          -0.000
 -12236718.125 9  -9523393.90549  20244472.784    20244472.4034   20244479.1554
        -0.000          -0.000
  -2457740.050 9  -1901903.67447  21903362.418    21903362.0184   21903370.7064
        -0.000          -0.000
  11210911.249 9   8708733.57746  23461315.579    23461315.4494   23461327.4674
        -0.000          -0.000
 -12398928.523 9  -9648089.32847  22042267.261    22042266.5564   22042276.4524
        -0.000          -0.000
 99  4  6 21 33  0.0000000  0  7 24  4 30  5  8  9 10               -0.000000055
  -4443169.944 9  -3281014.21849  20438638.621    20438638.5654   20438646.0404
        -0.000          -0.000
  11759605.619 8   9134972.07944  22781823.471    22781822.6504   22781828.7264
        -0.000          -0.000
 -18268376.725 9 -12457128.38347  21974820.800    21974821.2184   21974828.6844
        -0.000          -0.000
 -12252782.862 9  -9535911.88649  20241415.831    20241415.3804   20241422.0774
        -0.000          -0.000
  -2405894.173 9  -1861504.35347  21913228.284    21913227.8194   21913236.7844
        -0.000          -0.000
  11299815.054 9   8778009.06546  23478233.606    23478233.4564   23478245.4734
        -0.000          -0.000
 -12471128.911 9  -9704349.25748  22028527.994    22028527.2584   22028537.1144
        -0.000          -0.000
 99  4  6 21 33 30.0000000  0  7 24  4 30  5  8  9 10               -0.000000058
  -4409248.457 9  -3254581.90449  20445093.633    20445093.5764   20445101.0614
        -0.000          -0.000
  11852408.67517   9207286.00144  22799483.404    22799482.3395   22799488.2394
        -0.000          -0.000
 -18349687.797 9 -12520487.63747  21959347.617    21959348.1004   21959355.7084
        -0.000          -0.000
 -12268309.370 9  -9548010.47549  20238461.095    20238460.6854   20238467.3824
        -0.000          -0.000
  -2353545.244 9  -1820713.04347  21923190.035    21923189.6714   21923198.5554
        -0.000          -0.000
  11388867.125 9   8847400.10246  23495179.835    23495179.7254   23495191.5514
        -0.000          -0.000
 -12542946.227 9  -9760310.68648  22014861.542    22014860.8194   22014870.6384
        -0.000          -0.000
 99  4  6 21 34  0.0000000  0  7 24  4 30  5  8  9 10               -0.000000050
  -4374917.964 9  -3227830.87949  20451626.643    20451626.5734   20451634.0014
        -0.000          -0.000
  11945372.627 7   9279725.40944  22817173.782    22817172.7094   22817178.9114
        -0.000          -0.000
 -18430731.667 9 -12583638.66747  21943925.532    21943925.9564   21943933.5474
        -0.000          -0.000
 -12283347.057 9  -9559728.17049  20235599.451    20235599.0964   20235605.8134
        -0.000          -0.000
  -2300739.885 9  -1779566.07947  21933238.901    21933238.3754   21933247.0874
        -0.000          -0.000
  11478012.212 9   8916863.60746  23512143.375    23512143.4724   23512155.3934
        -0.000          -0.000
 -12614399.971 9  -9815988.80847  22001264.254    22001263.5224   22001273.4374
        -0.000          -0.000
 99  4  6 21 34 30.0000000  0  7 24  4 30  5  8  9 10               -0.000000033
  -4340180.774 9  -3200762.95149  20458237.040    20458236.9574   20458244.2784
        -0.000          -0.000
  12038495.867 8   9352288.89744  22834894.246    22834892.7544   22834898.9614
        -0.000          -0.000
 -18511508.349 9 -12646581.51547  21928554.360    21928554.7474   21928562.2314
        -0.000          -0.000
 -12297883.702 9  -9571055.43649  20232833.218    20232832.8614   20232839.5834
        -0.000          -0.000
  -2247478.002 9  -1738063.38847  21943374.285    21943373.7694   21943382.4714
        -0.000          -0.000
  11567242.729 9   8986393.68546  23529123.455    23529123.5664   23529135.4884
        -0.000          -0.000
 -12685455.832 9  -9871356.90347  21987742.659    21987741.8834   21987751.8084
        -0.000          -0.000
 99  4  6 21 35  0.0000000  0  7 24  4 30  5  8  9 10               -0.000000017
  -4305063.236 9  -3173398.64649  20464919.737    20464919.6614   20464926.9264
        -0.000          -0.000
  12131758.05017   9424960.68454  22852640.971    22852640.0705          0.0005
        -0.000          -0.000
 -18592020.025 9 -12709317.83647  21913233.668    21913233.9344   21913241.2254
        -0.000          -0.000
 -12311925.250 9  -9581996.91049  20230161.228    20230160.8614   20230167.6204
        -0.000          -0.000
  -2193777.223 9  -1696218.69247  21953593.023    21953592.5954   21953601.4304
        -0.000          -0.000
  11656534.808 9   9055971.72646  23546115.383    23546115.3844   23546127.3824
        -0.000          -0.000
 -12756132.522 9  -9926429.55447  21974293.234    21974292.4744   21974302.3624
        -0.000          -0.000
 99  4  6 21 35 30.0000000  0  7 24  4 30  5  8  9 10               -0.000000014
  -4269567.029 9  -3145739.27749  20471674.419    20471674.3254   20471681.5814
        -0.000          -0.000
  12225139.57518   9497725.65853         0.000           0.0005          0.0005
        -0.000          -0.000
 -18672252.099 9 -12771836.30447  21897966.055    21897966.2834   21897973.4494
        -0.000          -0.000
 -12325445.123 9  -9592531.88649  20227588.447    20227588.0824   20227594.9074
        -0.000          -0.000
  -2139625.417 9  -1654022.56147  21963897.780    21963897.3104   21963906.1984
        -0.000          -0.000
  11745894.419 9   9125602.39146  23563120.066    23563120.1504   23563132.0124
        -0.000          -0.000
 -12826416.732 9  -9981196.35648  21960918.555    21960917.7534   21960927.6014
        -0.000          -0.000
 99  4  6 21 36  0.0000000  0  7 24  4 30  5  8  9 10               -0.000000034
  -4233705.988 9  -3117795.62749  20478498.494    20478498.4114   20478505.6524
        -0.000          -0.000
  12318608.31218   9570558.46954         0.000           0.0005          0.0005
        -0.000          -0.000
 -18752204.747 9 -12834137.02947  21882751.509    21882751.7764   21882758.8904
        -0.000          -0.000
 -12338454.171 9  -9602668.81349  20225112.847    20225112.5064   20225119.3974
        -0.000          -0.000
  -2085034.803 9  -1611484.48847  21974285.976    21974285.5984   21974294.6444
        -0.000          -0.000
  11835316.287 9   9195281.56946  23580136.872    23580136.9114   23580148.5674
        -0.000          -0.000
 -12896314.788 9 -10035662.25048  21947617.200    21947616.4314   21947626.3664
        -0.000          -0.000
 99  4  6 21 36 30.0000000  0  7 24  4 30  5  8  9 10               -0.000000029
  -4197403.093 9  -3089507.67349  20485406.665    20485406.5884   20485413.8904
        -0.000          -0.000
  12412227.769 7    931765.49542         0.000           0.0004          0.0004
        -0.000          -0.000
 -18831783.272 9 -12896146.25347  21867608.120    21867608.4204   21867615.5464
        -0.000          -0.000
 -12350879.132 9  -9612350.60849  20222748.485    20222748.1334   20222755.0424
        -0.000          -0.000
  -2029922.985 9  -1568540.30247  21984773.494    21984773.1684   21984782.1604
        -0.000          -0.000
  11924877.818 9   9265069.57646  23597180.148    23597180.1714   23597191.8974
        -0.000          -0.000
 -12965749.160 9 -10089766.85048  21934404.160    21934403.4594   21934413.3534
        -0.000          -0.000
 99  4  6 21 37  0.0000000  0  7 24  4 30  5  8  9 10               -0.000000008
  -4160698.387 9  -3060906.61349  20492391.349    20492391.2834   20492398.6084
        -0.000          -0.000
  12505971.400 8   1004811.57042         0.000           0.0004          0.0004
        -0.000          -0.000
 -18911008.784 9 -12957880.37947  21852531.729    21852532.1574   21852539.4554
        -0.000          -0.000
 -12362763.580 9  -9621611.21949  20220486.982    20220486.5994   20220493.5024
        -0.000          -0.000
  -1974321.640 9  -1525214.65647  21995354.221    21995353.8034   21995362.8154
        -0.000          -0.000
  12014535.667 9   9334932.61446  23614241.777    23614241.6614   23614253.4844
        -0.000          -0.000
 -13034761.806 9 -10143542.84848  21921271.525    21921270.8004   21921280.5924
        -0.000          -0.000
 99  4  6 21 37 30.0000000  0  8  6 24  4 30  5  8  9 10            -0.000000002
   -559372.763 8   -425795.31252         0.000           0.0004          0.0005
        -0.000          -0.000
  -4123627.871 9  -3032020.50649  20499445.651    20499445.5994   20499452.8914
        -0.000          -0.000
  12599797.672 7   1077920.11252         0.000           0.0004          0.0005
        -0.000          -0.000
 -18989926.837 9 -13019374.95147  21837514.059    21837514.5234   21837521.7244
        -0.000          -0.000
 -12374157.695 9  -9630489.76249  20218318.690    20218318.3594   20218325.3444
        -0.000          -0.000
  -1918276.258 9  -1481542.99447  22006019.372    22006018.9404   22006027.8034
        -0.000          -0.000
  12104236.096 9   9404828.82746  23631311.258    23631311.2434   23631323.2614
        -0.000          -0.000
 -13103375.775 9 -10197008.17047  21908214.686    21908213.9394   21908223.6244
        -0.000          -0.000
 99  4  6 21 38  0.0000000  0  8  6 24  4 30  5  8  9 10             0.000000042
   -625474.48218   -477303.02545         0.000           0.0005   23723861.3564
        -0.000          -0.000
  -4086209.496 9  -3002863.33749  20506566.152    20506566.0804   20506573.3644
        -0.000          -0.000
  12693703.673 8    956167.18142         0.000           0.0004          0.0004
        -0.000          -0.000
 -19068552.764 9 -13080641.86947  21822552.108    21822552.4824   21822559.5504
        -0.000          -0.000
 -12385093.079 9  -9639010.84949  20216237.863    20216237.5104   20216244.4674
        -0.000          -0.000
  -1861819.196 9  -1437550.55647  22016762.861    22016762.4724   22016771.0584
        -0.000          -0.000
  12193951.365 9   9474736.64146  23648383.889    23648383.7654   23648395.8804
        -0.000          -0.000
 -13171602.264 9 -10250171.55748  21895231.533    21895230.7374   21895240.3514
        -0.000          -0.000
 99  4  6 21 38 30.0000000  0  8  6 24  4 30  5  8  9 10             0.000000017
   -691585.619 8   -528818.09645  23711268.379    23711269.6604   23711279.2894
        -0.000          -0.000
  -4048434.203 9  -2973428.05649  20513754.578    20513754.5134   20513761.7854
        -0.000          -0.000
  12787700.305 7   1029411.81242         0.000           0.0004          0.0004
        -0.000          -0.000
 -19146883.977 9 -13141679.14848  21807646.267    21807646.6004   21807653.5624
        -0.000          -0.000
 -12395552.799 9  -9647161.28749  20214247.538    20214247.1684   20214254.1094
        -0.000          -0.000
  -1804949.204 9  -1393236.34447  22027584.950    22027584.4904   22027593.0104
        -0.000          -0.000
  12283681.958 9   9544656.35146  23665459.054    23665458.9734   23665471.3644
        -0.000          -0.000
 -13239431.618 9 -10303025.50748  21882323.924    21882323.2034   21882332.7334
        -0.000          -0.000
 99  4  6 21 39  0.0000000  0  8  6 24  4 30  5  8  9 10            -0.000000002
   -757676.771 8   -580317.62345  23698692.047    23698691.9174   23698702.4214
        -0.000          -0.000
  -4010265.956 9  -2943686.57749  20521017.790    20521017.6754   20521024.9894
        -0.000          -0.000
  12881828.641 7   1102760.78852         0.000           0.0004          0.0005
        -0.000          -0.000
 -19224895.120 9 -13202467.02748  21792801.384    21792801.6574   21792808.5524
        -0.000          -0.000
 -12405496.239 9  -9654909.43249  20212355.406    20212355.0084   20212361.8764
        -0.000          -0.000
  -1747638.283 9  -1348578.55247  22038490.909    22038490.4704   22038499.0174
        -0.000          -0.000
  12373469.689 9   9614620.61646  23682544.992    23682545.0054   23682557.6374
        -0.000          -0.000
 -13306838.902 9 -10355550.58048  21869496.695    21869495.9834   21869505.4804
        -0.000          -0.000
 99  4  6 21 39 30.0000000  0  8  6 24  4 30  5  8  9 10            -0.000000013
   -823743.964 8   -631798.46645  23686120.048    23686120.1504   23686130.2754
        -0.000          -0.000
  -3971705.279 9  -2913639.30449  20528355.621    20528355.5154   20528362.8904
        -0.000          -0.000
  12976070.14017    979461.70752         0.000           0.0005          0.0005
        -0.000          -0.000
 -19302599.947 9 -13263016.20448  21778014.741    21778014.9744   21778021.7574
        -0.000          -0.000
 -12414938.194 9  -9662266.80849  20210558.676    20210558.3024   20210565.0634
        -0.000          -0.000
  -1689889.587 9  -1303579.62247  22049480.177    22049479.6734   22049488.2574
        -0.000          -0.000
  12463323.317 9   9684636.20346  23699643.761    23699643.6484   23699656.3614
        -0.000          -0.000
 -13373825.399 9 -10407747.76548  21856749.509    21856748.8184   21856758.3414
        -0.000          -0.000
 99  4  6 21 40  0.0000000  0  8  6 24  4 30  5  8  9 10            -0.000000021
   -889800.522 9   -683271.02745  23673549.990    23673549.8624   23673559.9774
        -0.000          -0.000
  -3932769.747 9  -2883299.94149  20535764.832    20535764.7264   20535772.0764
        -0.000          -0.000
  13070407.818 8   1052972.92842         0.000           0.0004          0.0004
        -0.000          -0.000
 -19380011.426 9 -13323336.80448  21763283.693    21763283.9134   21763290.7354
        -0.000          -0.000
 -12423899.860 9  -9669249.93549  20208853.363    20208852.9824   20208859.7094
        -0.000          -0.000
  -1631720.236 9  -1258252.94147  22060549.318    22060548.9204   22060557.5904
        -0.000          -0.000
  12553231.592 9   9754694.37946  23716752.785    23716752.7144   23716765.6694
        -0.000          -0.000
 -13440407.143 9 -10459629.55448  21844079.353    21844078.6594   21844088.1264
        -0.000          -0.000
 99  4  6 21 40 30.0000000  0  8  6 24  4 30  5  8  9 10            -0.000000032
   -955831.427 9   -734723.58145  23660985.205    23660984.9204   23660994.4914
        -0.000          -0.000
  -3893444.717 9  -2852657.07049  20543248.209    20543248.0454   20543255.3554
        -0.000          -0.000
  13164827.952 8   1126554.01152         0.000           0.0004          0.0005
        -0.000          -0.000
 -19457117.797 9 -13383419.65848  21748610.591    21748610.9504   21748617.8624
        -0.000          -0.000
 -12432371.638 9  -9675851.33149  20207241.297    20207240.8884   20207247.6384
        -0.000          -0.000
  -1573112.349 9  -1212584.53947  22071702.152    22071701.7684   22071710.3584
        -0.000          -0.000
  12643200.162 9   9824799.53846  23733873.413    23733873.3614   23733886.2044
        -0.000          -0.000
 -13506591.354 9 -10511201.58048  21831484.877    21831484.1884   21831493.6024
        -0.000          -0.000
 99  4  6 21 41  0.0000000  0  8  6 24  4 30  5  8  9 10            -0.000000045
  -1021847.715 8   -786164.73845  23648422.926    23648422.4584   23648432.0384
        -0.000          -0.000
  -3853758.269 9  -2821732.57849  20550800.194    20550800.0574   20550807.4204
        -0.000          -0.000
  13259315.862 8   1200187.82252         0.000           0.0004          0.0005
        -0.000          -0.000
 -19533930.850 9 -13443273.96448  21733993.373    21733993.7994   21734000.8434
        -0.000          -0.000
 -12440369.787 9  -9682083.66649  20205719.337    20205718.9224   20205725.7694
        -0.000          -0.000
  -1514080.866 9  -1166586.06947  22082935.672    22082935.2414   22082943.7634
        -0.000          -0.000
  12733222.757 9   9894946.79446  23751004.383    23751004.3524   23751016.9374
        -0.000          -0.000
 -13572391.210 9 -10562474.11748  21818963.429    21818962.7474   21818972.1884
        -0.000          -0.000
 99  4  6 21 41 30.0000000  0  8  6 24  4 30  5  8  9 10            -0.000000040
  -1087813.175 8   -837566.30945  23635870.046    23635869.7084   23635879.3464
        -0.000          -0.000
  -3813678.627 9  -2790501.68949  20558427.052    20558426.9374   20558434.3254
        -0.000          -0.000
  13353904.830 8   1076410.75242         0.000           0.0004          0.0004
        -0.000          -0.000
 -19610406.383 9 -13502865.26048  21719440.479    21719440.9544   21719448.0394
        -0.000          -0.000
 -12447847.639 9  -9687910.55849  20204296.274    20204295.8574   20204302.7714
        -0.000          -0.000
  -1454594.123 9  -1120232.82047  22094255.816    22094255.3554   22094263.7414
        -0.000          -0.000
  12823332.703 9   9965162.11246  23768151.917    23768151.7604   23768164.2084
        -0.000          -0.000
 -13637758.035 9 -10613409.20848  21806524.388    21806523.6884   21806533.2274
        -0.000          -0.000
 99  4  6 21 42  0.0000000  0  8  6 24  4 30  5  8  9 10            -0.000000027
  -1153745.834 8   -888942.33645  23623323.452    23623323.1434   23623332.7404
        -0.000          -0.000
  -3773221.876 9  -2758976.94849  20566125.747    20566125.6374   20566132.9914
        -0.000          -0.000
  13448590.733 8   1150188.62952         0.000           0.0004          0.0005
        -0.000          -0.000
 -19686542.141 9 -13562191.78648  21704952.460    21704952.8934   21704959.9674
        -0.000          -0.000
 -12454794.434 9  -9693323.64949  20202974.298    20202973.8924   20202980.8344
        -0.000          -0.000
  -1394675.997 9  -1073543.43747  22105657.834    22105657.3724   22105665.8094
        -0.000          -0.000
  12913519.422 9  10035437.25446  23785313.910    23785313.8404   23785326.1774
        -0.000          -0.000
 -13702706.168 9 -10664018.06348  21794165.037    21794164.3744   21794173.9514
        -0.000          -0.000
 99  4  6 21 42 30.0000000  0  8  6 24  4 30  5  8  9 10            -0.000000027
  -1219692.454 9   -940329.20045  23610774.342    23610774.1104   23610783.6264
        -0.000          -0.000
  -3732446.467 9  -2727203.90049  20573885.123    20573884.9964   20573892.3004
        -0.000          -0.000
  13543342.398 8   1224017.55952         0.000           0.0004          0.0005
        -0.000          -0.000
 -19762371.588 9 -13621279.63848  21690522.854    21690523.2234   21690530.1144
        -0.000          -0.000
 -12461243.298 9  -9698348.75249  20201747.147    20201746.7424   20201753.7164
        -0.000          -0.000
  -1334374.468 9  -1026555.31647  22117132.917    22117132.4974   22117140.9744
        -0.000          -0.000
  13003752.360 9  10105748.41546  23802484.588    23802484.6534   23802497.0194
        -0.000          -0.000
 -13767282.677 9 -10714337.33148  21781876.482    21781875.7824   21781885.4154
        -0.000          -0.000
 99  4  6 21 43  0.0000000  0  8  6 24  4 30  5  8  9 10            -0.000000017
  -1285646.206 9   -991721.66945  23598223.911    23598223.7204   23598233.1084
        -0.000          -0.000
  -3691361.979 9  -2695190.03349  20581703.218    20581703.0844   20581710.4394
        -0.000          -0.000
  13638185.695 8   1099807.83342         0.000           0.0004          0.0004
        -0.000          -0.000
 -19837888.780 9 -13680124.17848  21676152.609    21676152.9324   21676159.6614
        -0.000          -0.000
 -12467182.648 9  -9702976.82349  20200616.896    20200616.4844   20200623.4604
        -0.000          -0.000
  -1273696.554 9   -979273.89747  22128679.868    22128679.3644   22128687.8604
        -0.000          -0.000
  13094038.501 9  10176101.02046  23819665.685    23819665.6694   23819677.9994
        -0.000          -0.000
 -13831447.234 9 -10764335.60748  21769666.301    21769665.5844   21769675.2644
        -0.000          -0.000
 99  4  6 21 43 30.0000000  0  8  6 24  4 30  5  8  9 10             0.000000011
  -1351568.890 9  -1043089.89246  23585679.199    23585678.9844   23585688.3004
        -0.000          -0.000
  -3649925.779 9  -2662902.08749  20589588.184    20589588.0854   20589595.5144
        -0.000          -0.000
  13733136.370 8   1173687.66452         0.000           0.0004          0.0005
        -0.000          -0.000
 -19913057.308 9 -13738697.01348  21661848.592    21661848.8544   21661855.5144
        -0.000          -0.000
 -12472596.000 9  -9707195.03749  20199586.670    20199586.3074   20199593.2674
        -0.000          -0.000
  -1212621.158 9   -931682.75047  22140302.082    22140301.5784   22140310.2234
        -0.000          -0.000
  13184379.442 9  10246496.30146  23836857.388    23836857.2364   23836869.5834
        -0.000          -0.000
 -13895176.355 9 -10813994.56948  21757539.005    21757538.2304   21757547.9314
        -0.000          -0.000
 99  4  6 21 44  0.0000000  0  8  6 24  4 30  5  8  9 10             0.000000048
  -1417468.208 9  -1094439.91046  23573138.841    23573138.7274   23573147.9064
        -0.000          -0.000
  -3608153.430 9  -2630352.21049  20597537.206    20597537.0724   20597544.5544
        -0.000          -0.000
  13828179.341 8   1247639.26152         0.000           0.0004          0.0005
        -0.000          -0.000
 -19987889.558 9 -13797007.82548  21647608.414    21647608.7124   21647615.2384
        -0.000          -0.000
 -12477511.794 9  -9711025.53649  20198651.224    20198650.8754   20198657.6984
        -0.000          -0.000
  -1151165.821 9   -883795.54847  22151996.792    22151996.2424   22152005.0034
        -0.000          -0.000
  13274737.738 9  10316905.12646  23854052.662    23854052.2724   23854064.3414
        -0.000          -0.000
 -13958483.232 9 -10863324.54148  21745491.913    21745491.1704   21745500.8954
        -0.000          -0.000
 99  4  6 21 44 30.0000000  0  8  6 24  4 30  5  8  9 10             0.000000066
  -1483368.765 9  -1145790.91746  23560598.110    23560598.0684   23560607.5694
        -0.000          -0.000
  -3566067.623 9  -2597558.09349  20605545.817    20605545.6884   20605553.2264
        -0.000          -0.000
  13923274.790 8   1123041.56042         0.000           0.0004          0.0004
        -0.000          -0.000
 -20062420.710 9 -13855084.01948  21633425.474    21633425.7814   21633432.2104
        -0.000          -0.000
 -12481962.198 9  -9714493.39049  20197804.397    20197804.0614   20197810.8494
        -0.000          -0.000
  -1089351.982 9   -835629.02447  22163759.730    22163759.1684   22163768.0104
        -0.000          -0.000
  13365061.829 9  10387287.31546  23871241.155    23871240.7534   23871252.5494
        -0.000          -0.000
 -14021377.935 9 -10912333.31248  21733523.375    21733522.6554   21733532.3684
        -0.000          -0.000
 99  4  6 21 45  0.0000000  0  8  6 24  4 30  5  8  9 10             0.000000075
  -1549221.812 9  -1197104.90746  23548066.497    23548066.6634   23548076.1264
        -0.000          -0.000
  -3523603.914 9  -2564469.49849  20613626.475    20613626.3334   20613633.8534
        -0.000          -0.000
  14018441.637 8   1197062.87552         0.000           0.0004          0.0005
        -0.000          -0.000
 -20136609.218 9 -13912893.20948  21619307.760    21619308.0744   21619314.5064
        -0.000          -0.000
 -12485901.442 9  -9717562.94449  20197054.834    20197054.4704   20197061.3214
        -0.000          -0.000
  -1027140.792 9   -787152.85047  22175598.266    22175597.6334   22175606.4174
        -0.000          -0.000
  13455369.179 9  10457656.44746  23888426.144    23888425.7874   23888437.7654
        -0.000          -0.000
 -14083804.820 9 -10960977.56048  21721643.991    21721643.2304   21721652.7284
        -0.000          -0.000
 99  4  6 21 45 30.0000000  0  8  6 24  4 30  5  8  9 10             0.000000059
  -1615044.646 9  -1248395.32246  23535540.910    23535541.0354   23535550.2244
        -0.000          -0.000
  -3480768.849 9  -2531091.53249  20621777.749    20621777.6114   20621785.1404
        -0.000          -0.000
  14113654.732 8   1271108.29852         0.000           0.0004          0.0005
        -0.000          -0.000
 -20210458.694 9 -13970438.22248  21605254.652    21605254.9244   21605261.4324
        -0.000          -0.000
 -12489337.312 9  -9720240.25549  20196401.068    20196400.6834   20196407.6154
        -0.000          -0.000
   -964541.863 9   -738374.52747  22187510.435    22187509.7474   22187518.6484
        -0.000          -0.000
  13545649.268 9  10528004.31046  23905605.921    23905605.6534   23905617.6554
        -0.000          -0.000
 -14145789.260 9 -11009277.02548  21709848.623    21709847.9054   21709857.2714
        -0.000          -0.000
 99  4  6 21 46  0.0000000  0  8  6 24  4 30  5  8  9 10             0.000000044
  -1680817.843 9  -1299647.06646  23523024.684    23523024.7304   23523033.8524
        -0.000          -0.000
  -3437549.419 9  -2497414.05949  20630002.120    20630002.0274   20630009.5394
        -0.000          -0.000
  14208955.180 8   1146122.91042         0.000           0.0004          0.0004
        -0.000          -0.000
 -20283928.116 9 -14027687.08248  21591273.918    21591274.1624   21591280.6044
        -0.000          -0.000
 -12492217.446 9  -9722484.52649  20195852.984    20195852.6024   20195859.5444
        -0.000          -0.000
   -901518.017 9   -689265.13047  22199503.363    22199502.8344   22199511.6724
        -0.000          -0.000
  13635954.128 9  10598371.50146  23922790.409    23922790.2264   23922802.4624
        -0.000          -0.000
 -14207278.109 9 -11057190.31848  21698147.579    21698146.8854   21698156.1074
        -0.000          -0.000
 99  4  6 21 46 30.0000000  0  8  6 24  4 30  5  8  9 10             0.000000020
  -1746562.554 9  -1350876.64946  23510513.331    23510513.5814   23510522.5864
        -0.000          -0.000
  -3393967.340 9  -2463454.00449  20638295.570    20638295.4554   20638302.9944
        -0.000          -0.000
  14304321.789 8   1220435.20552         0.000           0.0004          0.0005
        -0.000          -0.000
 -20357025.646 9 -14084646.16048  21577364.002    21577364.2214   21577370.5644
        -0.000          -0.000
 -12494543.339 9  -9724296.91449  20195410.299    20195409.9594   20195416.9614
        -0.000          -0.000
   -838085.742 9   -639837.45847  22211574.174    22211573.6484   22211582.4604
        -0.000          -0.000
  13726283.923 9  10668758.11846  23939979.502    23939979.4464   23939991.9474
        -0.000          -0.000
 -14268284.107 9 -11104727.36348  21686538.513    21686537.7824   21686546.9494
        -0.000          -0.000
 99  4  6 21 47  0.0000000  0  8  6 24  4 30  5  8  9 10            -0.000000005
  -1812277.135 9  -1402082.76646  23498008.076    23498008.2984   23498017.3684
        -0.000          -0.000
  -3350023.965 9  -2429212.42749  20646657.724    20646657.6064   20646665.1204
        -0.000          -0.000
  14399762.761 8   1294804.68652         0.000           0.0004          0.0005
        -0.000          -0.000
 -20429738.763 9 -14141305.71548  21563527.231    21563527.4304   21563533.5914
        -0.000          -0.000
 -12496300.425 9  -9725666.08049  20195075.921    20195075.5904   20195082.6544
        -0.000          -0.000
   -774241.461 9   -590088.74647  22223723.445    22223722.8974   22223731.7454
        -0.000          -0.000
  13816653.992 9  10739176.11146  23957176.258    23957176.3024   23957189.2614
        -0.000          -0.000
 -14328811.709 9 -11151891.64648  21675020.442    21675019.7364   21675028.8534
        -0.000          -0.000
 99  4  6 21 47 30.0000000  0  8  6 24  4 30  5  8  9 10            -0.000000035
  -1877981.516 9  -1453280.88946  23485504.797    23485504.9144   23485514.2964
        -0.000          -0.000
  -3305745.494 9  -2394709.73649  20655083.654    20655083.5334   20655091.1544
        -0.000          -0.000
  14495270.286 8   1169289.02142         0.000           0.0004          0.0004
        -0.000          -0.000
 -20502073.849 9 -14197670.67448  21549762.188    21549762.4604   21549768.6484
        -0.000          -0.000
 -12497500.499 9  -9726601.21249  20194847.579    20194847.2084   20194854.2604
        -0.000          -0.000
   -709990.632 9   -540023.26247  22235949.928    22235949.4234   22235958.3614
        -0.000          -0.000
  13907061.384 9  10809623.17546  23974380.386    23974380.5314   23974393.5614
        -0.000          -0.000
 -14388886.216 9 -11198702.87548  21663588.693    21663587.9504   21663596.9184
        -0.000          -0.000
 99  4  6 21 48  0.0000000  0  8  6 24  4 30  5  8  9 10            -0.000000050
  -1943648.310 9  -1504449.77346  23473008.682    23473008.8544   23473018.3284
        -0.000          -0.000
  -3261094.298 9  -2359916.61049  20663580.431    20663580.3514   20663588.0084
        -0.000          -0.000
  14590874.680 7   1243781.85652         0.000           0.0004          0.0005
        -0.000          -0.000
 -20574007.014 9 -14253722.45348  21536073.719    21536074.0364   21536080.2464
        -0.000          -0.000
 -12498118.997 9  -9727083.16449  20194729.904    20194729.4904   20194736.5354
        -0.000          -0.000
   -645306.160 9   -489619.85547  22248258.945    22248258.5414   22248267.4764
        -0.000          -0.000
  13997530.515 9  10880118.32246  23991596.456    23991596.5834   23991609.5844
        -0.000          -0.000
 -14448480.743 9 -11245140.08848  21652248.198    21652247.4814   21652256.4234
        -0.000          -0.000
 99  4  6 21 48 30.0000000  0  8  6 24  4 30  5  8  9 10            -0.000000040
  -2009255.308 9  -1555572.00546  23460524.257    23460524.2974   23460533.6304
        -0.000          -0.000
  -3216046.079 9  -2324814.11349  20672152.827    20672152.7664   20672160.4174
        -0.000          -0.000
  14686588.841 7   1318358.85652         0.000           0.0004          0.0005
        -0.000          -0.000
 -20645531.025 9 -14309455.43248  21522463.131    21522463.4894   21522469.6824
        -0.000          -0.000
 -12498155.116 9  -9727111.33049  20194723.008    20194722.6244   20194729.6434
        -0.000          -0.000
   -580179.990 9   -438872.26347  22260652.169    22260651.7124   22260660.7834
        -0.000          -0.000
  14088066.398 9  10950665.50146  24008825.266    24008825.3164   24008838.5184
        -0.000          -0.000
 -14507585.167 9 -11291195.40448  21641000.994    21641000.2474   21641009.2594
        -0.000          -0.000
 99  4  6 21 49  0.0000000  0  8  6 24  4 30  5  8  9 10            -0.000000021
  -2074850.374 9  -1606684.92646  23448042.151    23448042.0594   23448050.9304
        -0.000          -0.000
  -3170654.142 9  -2289443.79149  20680790.735    20680790.6464   20680798.1314
        -0.000          -0.000
  14782377.487 7   1192780.86342         0.000           0.0004          0.0004
        -0.000          -0.000
 -20716695.968 9 -14364908.59548  21508920.724    21508921.1044   21508927.4054
        -0.000          -0.000
 -12497674.322 9  -9726736.69649  20194814.421    20194814.0914   20194821.1554
        -0.000          -0.000
   -514666.932 9   -387823.21847  22273118.996    22273118.5314   22273127.7004
        -0.000          -0.000
  14178625.682 9  11021230.92946  24026058.362    24026058.3254   24026071.7754
        -0.000          -0.000
 -14566246.061 9 -11336905.10748  21629838.127    21629837.3754   21629846.4364
        -0.000          -0.000
 99  4  6 21 49 30.0000000  0  8  6 24  4 30  5  8  9 10            -0.000000006
  -2140484.956 9  -1657828.65246  23435552.272    23435552.1254   23435560.7934
        -0.000          -0.000
  -3124983.828 9  -2253856.54749  20689481.595    20689481.4904   20689488.8344
        -0.000          -0.000
  14878197.771 7   1267477.08652         0.000           0.0004          0.0005
        -0.000          -0.000
 -20787559.519 9 -14420126.92148  21495435.653    21495436.0804   21495442.4834
        -0.000          -0.000
 -12496753.624 9  -9726019.27549  20194989.683    20194989.3604   20194996.3714
        -0.000          -0.000
   -448826.756 9   -336519.26747  22285648.135    22285647.5974   22285656.8384
        -0.000          -0.000
  14269158.997 9  11091776.11546  24043286.721    24043286.5984   24043299.7204
        -0.000          -0.000
 -14624503.304 9 -11382300.26848  21618752.074    21618751.3304   21618760.4374
        -0.000          -0.000
 99  4  6 21 50  0.0000000  0  8  6 24  4 30  5  8  9 10             0.000000031
  -2206112.412 9  -1708966.82646  23423063.956    23423063.6504   23423072.1904
        -0.000          -0.000
  -3079004.742 9  -2218028.69849  20698231.178    20698231.0834   20698238.2744
        -0.000          -0.000
  14974089.47417   1342244.52952         0.000           0.0005          0.0005
        -0.000          -0.000
 -20858098.997 9 -14475092.72348  21482012.317    21482012.7024   21482019.3244
        -0.000          -0.000
 -12495367.957 9  -9724939.54549  20195253.469    20195253.1274   20195260.0604
        -0.000          -0.000
   -382645.336 9   -284949.42447  22298242.062    22298241.5384   22298250.6624
        -0.000          -0.000
  14359684.966 9  11162315.58346  24060513.637    24060513.4224   24060526.4994
        -0.000          -0.000
 -14682296.642 9 -11427333.96648  21607754.263    21607753.5144   21607762.6464
        -0.000          -0.000
 99  4  6 21 50 30.0000000  0  8  6 24  4 30  5  8  9 10             0.000000075
  -2271750.407 9  -1760113.23546  23410573.616    23410573.0874   23410581.5544
        -0.000          -0.000
  -3032743.823 9  -2181981.24649  20707034.385    20707034.2494   20707041.3954
        -0.000          -0.000
  15070027.05316   1217208.12042         0.000           0.0005          0.0004
        -0.000          -0.000
 -20928334.595 9 -14529821.73648  21468646.766    21468647.1454   21468653.9794
        -0.000          -0.000
 -12493547.113 9  -9723520.71449  20195599.989    20195599.6274   20195606.5024
        -0.000          -0.000
   -316154.714 9   -233138.61947  22310894.870    22310894.3104   22310903.2134
        -0.000          -0.000
  14450171.681 9  11232824.43346  24077732.960    24077732.6834   24077745.4914
        -0.000          -0.000
 -14739643.435 9 -11472019.69548  21596841.409    21596840.6294   21596849.7024
        -0.000          -0.000
 99  4  6 21 51  0.0000000  0  7  6 24 30  5  8  9 10               -0.000000014
  -2337100.019 9  -1811034.91946  23398138.245    23398137.5864   23398145.9604
        -0.000          -0.000
  -2985895.246 9  -2145475.88649  20715949.379    20715949.2674   20715956.3884
        -0.000          -0.000
 -20997961.621 9 -14584076.53048  21455397.012    21455397.4284   21455404.5004
        -0.000          -0.000
 -12490977.799 9  -9721518.65549  20196088.938    20196088.5794   20196095.3874
        -0.000          -0.000
   -249051.187 9   -180850.24047  22323664.158    22323663.5804   22323672.5864
        -0.000          -0.000
  14540915.323 9  11303533.48545  24095001.041    24095000.8284   24095012.9804
        -0.000          -0.000
 -14796246.236 9 -11516125.69848  21586070.118    21586069.3854   21586078.3584
        -0.000          -0.000
 99  4  6 21 51 30.0000000  0  7  6 24 30  5  8  9 10                0.000000079
  -2402698.208 9  -1862150.30946  23385655.296    23385654.6184   23385663.0634
        -0.000          -0.000
  -2938980.518 9  -2108918.97349  20724876.978    20724876.8464   20724883.9724
        -0.000          -0.000
 -21067505.703 9 -14638266.70248  21442163.197    21442163.6294   21442170.8064
        -0.000          -0.000
 -12488177.047 9  -9719336.25549  20196621.965    20196621.5904   20196628.3474
        -0.000          -0.000
   -181869.362 9   -128500.89147  22336448.088    22336447.7094   22336456.8404
        -0.000          -0.000
  14631361.921 9  11374011.16146  24112212.812    24112212.6424   24112224.4094
        -0.000          -0.000
 -14852629.888 9 -11560060.93448  21575340.735    21575340.0134   21575348.8944
        -0.000          -0.000
 99  4  6 21 52  0.0000000  0  7  6 24 30  5  8  9 10                0.000000087
  -2468420.354 9  -1913362.29346  23373148.677    23373148.1064   23373156.5554
        -0.000          -0.000
  -2891863.839 9  -2072204.69849  20733842.901    20733842.7994   20733849.9614
        -0.000          -0.000
 -21136830.515 9 -14692286.01248  21428971.170    21428971.5814   21428978.7634
        -0.000          -0.000
 -12485005.934 9  -9716865.26949  20197225.446    20197225.0424   20197231.8724
        -0.000          -0.000
   -114487.099 9    -75995.31647  22349270.370    22349270.0824   22349279.2814
        -0.000          -0.000
  14721617.829 9  11444340.20046  24129388.399    24129388.1224   24129400.1244
        -0.000          -0.000
 -14908679.798 9 -11603736.12448  21564674.858    21564674.0674   21564682.9384
        -0.000          -0.000
 99  4  6 21 52 30.0000000  0  7  6 24 30  5  8  9 10                0.000000057
  -2534141.226 9  -1964573.25946  23360642.282    23360641.7054   23360650.3344
        -0.000          -0.000
  -2844416.428 9  -2035232.70049  20742871.729    20742871.6394   20742878.8834
        -0.000          -0.000
 -21205787.227 9 -14746018.48448  21415849.212    21415849.5864   21415856.5924
        -0.000          -0.000
 -12481307.883 9  -9713983.67649  20197929.199    20197928.8154   20197935.6974
        -0.000          -0.000
    -46756.384 9    -23218.21547  22362159.165    22362158.9694   22362168.0464
        -0.000          -0.000
  14811823.405 9  11514629.99146  24146554.296    24146553.9884   24146566.4704
        -0.000          -0.000
 -14964284.140 9 -11647064.10248  21554093.503    21554092.7524   21554101.6674
        -0.000          -0.000
 99  4  6 21 53  0.0000000  0  7  6 24 30  5  8  9 10                0.000000001
  -2599811.093 9  -2015744.50546  23348145.332    23348144.7774   23348153.8674
        -0.000          -0.000
  -2796609.820 9  -1997980.81649  20751968.860    20751968.8114   20751976.1254
        -0.000          -0.000
 -21274321.607 9 -14799421.86548  21402807.608    21402807.9944   21402814.8364
        -0.000          -0.000
 -12477014.491 9  -9710638.18649  20198746.263    20198745.8694   20198752.7734
        -0.000          -0.000
     21378.271 9     29873.64747  22375125.053    22375124.7134   22375133.8244
        -0.000          -0.000
  14902027.484 9  11584918.60446  24163719.703    24163719.4444   24163732.2544
        -0.000          -0.000
 -15019384.427 9 -11689999.32348  21543608.163    21543607.4314   21543616.2824
        -0.000          -0.000
 99  4  6 21 53 30.0000000  0  7  6 24 30  5  8  9 10               -0.000000070
  -2665422.592 9  -2066870.28346  23335659.103    23335658.8604   23335668.5204
        -0.000          -0.000
  -2748451.202 9  -1960454.62949  20761133.173    20761133.0974   20761140.4144
        -0.000          -0.000
 -21342423.849 9 -14852488.51548  21389848.252    21389848.6364   21389855.2394
        -0.000          -0.000
 -12472123.115 9  -9706826.73349  20199676.999    20199676.6154   20199683.5254
        -0.000          -0.000
     89912.183 9     83276.61747  22388166.595    22388166.3454   22388175.6014
        -0.000          -0.000
  14992239.675 9  11655213.53646  24180886.774    24180886.4414   24180899.1664
        -0.000          -0.000
 -15073972.635 9 -11732535.53448  21533220.378    21533219.6624   21533228.4464
        -0.000          -0.000
 99  4  6 21 54  0.0000000  0  7  6 24 30  5  8  9 10               -0.000000117
  -2730916.308 9  -2117904.28446  23323195.351    23323195.4384   23323205.4274
        -0.000          -0.000
  -2699901.106 9  -1922623.40749  20770372.014    20770371.9214   20770379.2524
        -0.000          -0.000
 -21410043.240 9 -14905178.92148  21376980.754    21376981.0844   21376987.5764
        -0.000          -0.000
 -12466582.806 9  -9702509.62649  20200731.222    20200730.8854   20200737.7584
        -0.000          -0.000
    158898.226 9    137031.89447  22401294.263    22401293.9374   22401303.3654
        -0.000          -0.000
  15082527.975 9  11725567.78446  24198068.295    24198068.0554   24198080.6814
        -0.000          -0.000
 -15128002.031 9 -11774636.27948  21522938.863    21522938.0904   21522947.0114
        -0.000          -0.000
 99  4  6 21 54 30.0000000  0  7  6 24 30  5  8  9 10               -0.000000160
  -2796332.498 9  -2168877.86946  23310746.484    23310746.9364   23310756.9344
        -0.000          -0.000
  -2650999.818 9  -1884518.52849  20779677.655    20779677.5394   20779684.9194
        -0.000          -0.000
 -21477213.657 9 -14957519.47748  21364198.619    21364198.9634   21364205.4004
        -0.000          -0.000
 -12460423.599 9  -9697710.25349  20201903.360    20201903.0034   20201909.7684
        -0.000          -0.000
    228299.500 9    191110.73647  22414500.711    22414500.5644   22414510.1264
        -0.000          -0.000
  15172875.850 9  11795968.43946  24215261.174    24215260.9634   24215273.3804
        -0.000          -0.000
 -15181499.208 9 -11816322.33348  21512758.366    21512757.6884   21512766.8694
        -0.000          -0.000
 99  4  6 21 55  0.0000000  0  7  6 24 30  5  8  9 10               -0.000000182
  -2861704.283 9  -2219816.87146  23298306.714    23298307.0874   23298316.7614
        -0.000          -0.000
  -2601782.774 9  -1846167.60249  20789043.339    20789043.2754   20789050.5954
        -0.000          -0.000
 -21543971.408 9 -15009538.48048  21351495.022    21351495.3774   21351501.8364
        -0.000          -0.000
 -12453707.070 9  -9692476.60149  20203181.531    20203181.1594   20203187.8924
        -0.000          -0.000
    298061.963 9    245470.99547  22427776.272    22427776.0644   22427785.6054
        -0.000          -0.000
  15263248.306 9  11866388.24746  24232458.603    24232458.4694   24232471.1594
        -0.000          -0.000
 -15234482.199 9 -11857607.72548  21502675.892    21502675.2284   21502684.4814
        -0.000          -0.000
 99  4  6 21 55 30.0000000  0  7  6 24 30  5  8  9 10               -0.000000167
  -2927026.460 9  -2270717.19746  23285876.475    23285876.7524   23285886.2334
        -0.000          -0.000
  -2552235.865 9  -1807559.64349  20798471.805    20798471.7684   20798479.0414
        -0.000          -0.000
 -21610317.510 9 -15061236.71148  21338869.826    21338870.2074   21338876.6324
        -0.000          -0.000
 -12446441.002 9  -9686814.74249  20204564.272    20204563.8914   20204570.5814
        -0.000          -0.000
    368177.170 9    300106.12947  22441118.875    22441118.6664   22441128.3024
        -0.000          -0.000
  15353638.304 8  11936821.74246  24249659.133    24249658.9914   24249672.2804
        -0.000          -0.000
 -15286946.814 9 -11898489.18448  21492692.227    21492691.5694   21492700.6774
        -0.000          -0.000
 99  4  6 21 56  0.0000000  0  7  6 24 30  5  8  9 10               -0.000000135
  -2992318.434 9  -2321593.98046  23273452.337    23273452.3744   23273461.5934
        -0.000          -0.000
  -2502380.405 9  -1768711.24849  20807958.996    20807958.9604   20807966.2534
        -0.000          -0.000
 -21676271.685 9 -15112629.54348  21326319.228    21326319.5464   21326326.0704
        -0.000          -0.000
 -12438641.653 9  -9680737.34149  20206048.414    20206048.0344   20206054.7444
        -0.000          -0.000
    438627.638 9    355002.48147  22454525.346    22454525.0854   22454534.7634
        -0.000          -0.000
  15444007.102 9  12007238.70146  24266855.591    24266855.5854   24266869.1694
        -0.000          -0.000
 -15338902.446 9 -11938974.04748  21482805.460    21482804.7544   21482813.7424
        -0.000          -0.000
 99  4  6 21 56 30.0000000  0  7  6 24 30  5  8  9 10               -0.000000113
  -3057626.433 9  -2372483.26246  23261024.788    23261024.6974   23261033.9744
        -0.000          -0.000
  -2452262.605 9  -1729658.44349  20817496.171    20817496.0974   20817503.3554
        -0.000          -0.000
 -21741873.628 9 -15163747.91748  21313835.519    21313835.8094   21313842.4304
        -0.000          -0.000
 -12430365.238 9  -9674288.20549  20207623.365    20207622.9644   20207629.7224
        -0.000          -0.000
    509345.374 9    410107.14247  22467982.704    22467982.4594   22467992.0244
        -0.000          -0.000
  15534277.130 9  12077578.69646  24284033.692    24284033.6634   24284047.5254
        -0.000          -0.000
 -15390390.105 9 -11979094.24448  21473007.652    21473006.9774   21473015.9064
        -0.000          -0.000
 99  4  6 21 57  0.0000000  0  7  6 24 30  5  8  9 10               -0.000000095
  -3122937.592 9  -2423375.01346  23248596.406    23248596.4324   23248605.8014
        -0.000          -0.000
  -2401883.187 9  -1690401.76149  20827083.067    20827082.9904   20827090.1914
        -0.000          -0.000
 -21807120.183 9 -15214589.36748  21301419.386    21301419.7044   21301426.4574
        -0.000          -0.000
 -12421610.966 9  -9667466.70749  20209289.257    20209288.8314   20209295.6204
        -0.000          -0.000
    580328.794 9    465418.79147  22481490.621    22481490.3084   22481499.5494
        -0.000          -0.000
  15624434.831 8  12147831.16246  24301190.165    24301190.1274   24301204.5014
        -0.000          -0.000
 -15441394.600 9 -12018837.95448  21463301.840    21463301.1364   21463310.0174
        -0.000          -0.000
 99  4  6 21 57 30.0000000  0  7  6 24 30  5  8  9 10               -0.000000070
  -3188213.575 9  -2474239.34946  23236174.914    23236174.8914   23236184.2024
        -0.000          -0.000
  -2351183.644 9  -1650895.63248  20836730.894    20836730.8314   20836737.9974
        -0.000          -0.000
 -21871951.916 9 -15265107.58148  21289082.066    21289082.4954   21289089.3284
        -0.000          -0.000
 -12412310.430 9  -9660219.54949  20211059.063    20211058.6554   20211065.5204
        -0.000          -0.000
    651634.043 9    520981.25847  22495059.917    22495059.4444   22495068.4214
        -0.000          -0.000
  15714530.529 8  12218035.32046  24318334.778    24318334.7884   24318349.6124
        -0.000          -0.000
 -15491864.683 9 -12058165.22848  21453697.654    21453696.9854   21453705.7674
        -0.000          -0.000
 99  4  6 21 58  0.0000000  0  7  6 24 30  5  8  9 10               -0.000000058
  -3253499.973 9  -2525111.78247  23223751.504    23223751.2624   23223760.5584
        -0.000          -0.000
  -2300205.527 9  -1611172.44748  20846431.645    20846431.5864   20846438.9164
        -0.000          -0.000
 -21936393.682 9 -15315321.91848  21276819.009    21276819.5044   21276826.3704
        -0.000          -0.000
 -12402503.026 9  -9652577.43649  20212925.260    20212924.8634   20212931.8074
        -0.000          -0.000
    723218.823 9    576761.56546  22508682.203    22508681.6444   22508690.5614
        -0.000          -0.000
  15804541.920 8  12288173.75545  24335463.293    24335463.4884   24335478.6224
        -0.000          -0.000
 -15541837.965 9 -12097105.39448  21444188.073    21444187.3284   21444196.0744
        -0.000          -0.000
 99  4  6 21 58 30.0000000  0  7  6 24 30  5  8  9 10               -0.000000042
  -3318783.825 9  -2575982.24247  23211328.199    23211328.0824   23211337.5904
        -0.000          -0.000
  -2248931.549 9  -1571218.71448  20856188.650    20856188.6314   20856196.1254
        -0.000          -0.000
 -22000415.875 9 -15365209.31248  21264636.106    21264636.5484   21264643.4084
        -0.000          -0.000
 -12392176.312 9  -9644530.65849  20214890.361    20214889.9734   20214896.8954
        -0.000          -0.000
    795104.186 9    632776.01346  22522361.624    22522361.0644   22522369.9434
        -0.000          -0.000
  15894507.175 8  12358276.25645  24352583.468    24352583.4474   24352598.7274
        -0.000          -0.000
 -15591299.489 9 -12135646.79548  21434775.675    21434774.9844   21434783.8044
        -0.000          -0.000
 99  4  6 21 59  0.0000000  0  7  6 24 30  5  8  9 10               -0.000000044
  -3384089.825 9  -2626869.95947  23198900.586    23198900.6564   23198910.1794
        -0.000          -0.000
  -2197384.403 9  -1531052.12749  20865997.803    20865997.7314   20866005.3914
        -0.000          -0.000
 -22064032.947 9 -15414781.02948  21252530.299    21252530.6594   21252537.5254
        -0.000          -0.000
 -12381330.650 9  -9636079.51149  20216954.247    20216953.8844   20216960.7854
        -0.000          -0.000
    867302.147 9    689034.07947  22536099.964    22536099.5334   22536109.0454
        -0.000          -0.000
  15984445.998 8  12428358.19045  24369698.211    24369698.2404   24369713.8184
        -0.000          -0.000
 -15640269.489 9 -12173805.20248  21425456.942    21425456.2754   21425465.0734
        -0.000          -0.000
 99  4  6 21 59 30.0000000  0  7  6 24 30  5  8  9 10               -0.000000052
  -3449399.178 9  -2677760.28546  23186472.479    23186472.6094   23186481.9934
        -0.000          -0.000
  -2145546.039 9  -1490658.61348  20875862.235    20875862.1424   20875869.9234
        -0.000          -0.000
 -22127210.508 9 -15464010.27748  21240508.071    21240508.3924   21240515.2544
        -0.000          -0.000
 -12369940.391 9  -9627204.01349  20219121.726    20219121.3344   20219128.2754
        -0.000          -0.000
    939836.835 9    745554.51547  22549902.656    22549902.2784   22549912.2114
        -0.000          -0.000
  16074393.750 8  12498447.00145  24386814.715    24386814.7504   24386830.7144
        -0.000          -0.000
 -15688730.928 9 -12211567.32348  21416235.163    21416234.4594   21416243.1644
        -0.000          -0.000
 99  4  6 22  0  0.0000000  0  7  6 24 30  5  8  9 10               -0.000000067
  -3514697.283 9  -2728641.83446  23174046.555    23174046.5724   23174055.9824
        -0.000          -0.000
  -2093444.123 9  -1450059.73448  20885776.820    20885776.7584   20885784.6054
        -0.000          -0.000
 -22189959.287 9 -15512905.41448  21228567.249    21228567.6584   21228574.5374
        -0.000          -0.000
 -12358017.184 9  -9617913.20849  20221390.613    20221390.2534   20221397.1684
        -0.000          -0.000
   1012705.291 9    802335.02147  22563768.992    22563768.7284   22563778.6324
        -0.000          -0.000
  16164331.516 8  12568528.08445  24403929.603    24403929.3814   24403945.6244
        -0.000          -0.000
 -15736699.062 9 -12248945.05248  21407107.238    21407106.5284   21407115.0474
        -0.000          -0.000
 99  4  6 22  0 30.0000000  0  7  6 24 30  5  8  9 10               -0.000000088
  -3579944.818 9  -2779483.99546  23161630.110    23161630.1384   23161639.6314
        -0.000          -0.000
  -2041052.904 9  -1409235.43148  20895746.422    20895746.4064   20895754.3794
        -0.000          -0.000
 -22252260.664 9 -15561451.92548  21216711.585    21216712.0064   21216718.9444
        -0.000          -0.000
 -12345518.174 9  -9608173.73949  20223769.127    20223768.7764   20223775.6884
        -0.000          -0.000
   1085936.888 9    859398.50847  22577704.558    22577704.3304   22577714.1444
        -0.000          -0.000
  16254273.845 8  12638612.72145  24421045.479    24421045.2734   24421061.0364
        -0.000          -0.000
 -15784148.227 9 -12285918.36848  21398078.003    21398077.2494   21398085.6754
        -0.000          -0.000
 99  4  6 22  1  0.0000000  0  7  6 24 30  5  8  9 10               -0.000000090
  -3645097.496 9  -2830252.22646  23149231.690    23149231.8014   23149241.2274
        -0.000          -0.000
  -1988335.832 9  -1368157.21748  20905778.143    20905778.1514   20905786.1334
        -0.000          -0.000
 -22314093.339 9 -15609633.20548  21204945.165    21204945.6514   21204952.5034
        -0.000          -0.000
 -12332405.262 9  -9597955.89349  20226264.539    20226264.1394   20226271.0954
        -0.000          -0.000
   1159542.441 9    916753.39247  22591711.500    22591711.2034   22591720.9434
        -0.000          -0.000
  16344225.851 9  12708704.86445  24438163.237    24438163.0214   24438178.5014
        -0.000          -0.000
 -15831034.084 9 -12322452.75148  21389155.894    21389155.1364   21389163.5714
        -0.000          -0.000
 99  4  6 22  1 30.0000000  0  7  6 24 30  5  8  9 10               -0.000000087
  -3710172.470 9  -2880959.95247  23136848.274    23136848.4534   23136857.6594
        -0.000          -0.000
  -1935309.741 9  -1326838.19848  20915868.817    20915868.7754   20915876.6884
        -0.000          -0.000
 -22375486.132 9 -15657471.71448  21193262.633    21193263.0594   21193269.7904
        -0.000          -0.000
 -12318708.708 9  -9587283.26449  20228870.983    20228870.5344   20228877.5144
        -0.000          -0.000
   1233470.200 9    974359.35046  22605779.758    22605779.3444   22605788.9324
        -0.000          -0.000
  16434117.932 8  12778750.35545  24455269.404    24455269.2394   24455284.6664
        -0.000          -0.000
 -15877370.146 9 -12358558.72648  21380338.344    21380337.6404   21380346.0954
        -0.000          -0.000
 99  4  6 22  2  0.0000000  0  7  6 24 30  5  8  9 10               -0.000000065
  -3775142.523 9  -2931585.84447  23124485.242    23124485.3014   23124494.1904
        -0.000          -0.000
  -1881950.393 9  -1285259.50448  20926022.808    20926022.7664   20926030.5894
        -0.000          -0.000
 -22436429.209 9 -15704959.80548  21181665.585    21181666.0084   21181672.6214
        -0.000          -0.000
 -12304417.059 9  -9576146.93349  20231590.532    20231590.1224   20231597.1294
        -0.000          -0.000
   1307734.283 9   1032227.37846  22619911.852    22619911.3914   22619921.0574
        -0.000          -0.000
  16523941.807 8  12848742.66845  24472362.516    24472362.3664   24472377.7674
        -0.000          -0.000
 -15923145.999 9 -12394228.16448  21371627.523    21371626.7914   21371635.2744
        -0.000          -0.000
 99  4  6 22  2 30.0000000  0  7  6 24 30  5  8  9 10               -0.000000037
  -3840058.150 9  -2982169.38347  23112132.475    23112132.3744   23112141.0694
        -0.000          -0.000
  -1828279.506 9  -1243438.05048  20936236.084    20936236.0354   20936243.8174
        -0.000          -0.000
 -22496961.447 9 -15752127.76648  21170146.638    21170147.0324   21170153.6694
        -0.000          -0.000
 -12289577.365 9  -9564583.55249  20234414.411    20234414.0374   20234421.0014
        -0.000          -0.000
   1382287.404 9   1090320.60946  22634098.875    22634098.4304   22634108.1834
        -0.000          -0.000
  16613657.187 9  12918650.44845  24489435.037    24489434.8664   24489450.4074
        -0.000          -0.000
 -15968381.214 9 -12429476.31248  21363019.532    21363018.7704   21363027.2514
        -0.000          -0.000
 99  4  6 22  3  0.0000000  0  7  6 24 30  5  8  9 10                0.000000003
  -3904945.715 9  -3032731.03246  23099784.688    23099784.6024   23099793.2884
        -0.000          -0.000
  -1774315.666 9  -1201388.33248  20946505.094    20946505.0364   20946512.8444
        -0.000          -0.000
 -22557085.885 9 -15798977.96048  21158705.204    21158705.6634   21158712.4354
        -0.000          -0.000
 -12274228.774 9  -9552623.62649  20237335.246    20237334.8544   20237341.7084
        -0.000          -0.000
   1457112.171 9   1148625.51946  22648337.653    22648337.2024   22648347.0894
        -0.000          -0.000
  16703251.970 9  12988464.22645  24506484.789    24506484.4934   24506500.1824
        -0.000          -0.000
 -16013085.448 9 -12464310.73648  21354512.526    21354511.7994   21354520.1934
        -0.000          -0.000
 99  4  6 22  3 30.0000000  0  7  6 24 30  5  8  9 10                0.000000017
  -3969868.274 9  -3083319.95646  23087430.180    23087430.0964   23087438.8174
        -0.000          -0.000
  -1720121.261 9  -1159158.95848  20956818.081    20956818.0064   20956825.6424
        -0.000          -0.000
 -22616839.260 9 -15845539.01548  21147334.402    21147334.8654   21147341.8294
        -0.000          -0.000
 -12258426.938 9  -9540310.52449  20240342.267    20240341.8834   20240348.6924
        -0.000          -0.000
   1532170.534 9   1207112.46046  22662620.719    22662620.3244   22662630.3114
        -0.000          -0.000
  16792692.410 8  13058157.79845  24523505.153    24523504.7804   24523520.3454
        -0.000          -0.000
 -16057321.691 9 -12498780.46848  21346094.583    21346093.8374   21346102.2134
        -0.000          -0.000
 99  4  6 22  4  0.0000000  0  7  6 24 30  5  8  9 10                0.000000027
  -4034810.172 9  -3133923.95946  23075071.709    23075071.7314   23075080.5824
        -0.000          -0.000
  -1665689.717 9  -1116744.79348  20967176.225    20967176.1264   20967183.6064
        -0.000          -0.000
 -22676195.961 9 -15891790.98148  21136039.228    21136039.7244   21136046.7034
        -0.000          -0.000
 -12242160.554 9  -9527635.43849  20243437.671    20243437.2704   20243444.0564
        -0.000          -0.000
   1607487.629 9   1265800.96446  22676953.301    22676952.9124   22676962.9454
        -0.000          -0.000
  16882022.109 8  13127765.01345  24540504.021    24540503.8234   24540519.7834
        -0.000          -0.000
 -16101065.469 9 -12532866.47448  21337770.340    21337769.5804   21337778.0314
        -0.000          -0.000
 99  4  6 22  4 30.0000000  0  7  6 24 30  5  8  9 10                0.000000029
  -4099797.823 9  -3184563.61546  23062704.561    23062704.7824   23062713.6114
        -0.000          -0.000
  -1611044.149 9  -1074163.86049  20977575.102    20977574.9774   20977582.4064
        -0.000          -0.000
 -22735157.979 9 -15937735.38948  21124819.263    21124819.6814   21124826.5894
        -0.000          -0.000
 -12225434.543 9  -9514602.19849  20246620.472    20246620.0474   20246626.9824
        -0.000          -0.000
   1683027.599 9   1324663.17446  22691328.192    22691327.7904   22691337.9244
        -0.000          -0.000
  16971238.738 8  13197284.13545  24557481.671    24557481.6084   24557497.4094
        -0.000          -0.000
 -16144305.364 9 -12566559.84248  21329541.931    21329541.1864   21329549.7374
        -0.000          -0.000
 99  4  6 22  5  0.0000000  0  8  6 24 30  5 17  8  9 10             0.000000010
  -4164832.283 9  -3235239.73746  23050328.614    23050328.9894   23050337.8374
        -0.000          -0.000
  -1556191.175 9  -1031421.30648  20988013.298    20988013.1614   20988020.6104
        -0.000          -0.000
 -22793708.193 9 -15983358.91048  21113677.701    21113678.0444   21113684.8564
        -0.000          -0.000
 -12208233.217 9  -9501198.59249  20249893.710    20249893.3304   20249900.3304
        -0.000          -0.000
  -1573458.880 8  -1213518.32752         0.000           0.0004          0.0005
        -0.000          -0.000
   1758782.450 9   1383692.83947  22705744.146    22705743.7214   22705753.7994
        -0.000          -0.000
  17060353.201 8  13266723.66945  24574439.883    24574439.8794   24574455.6534
        -0.000          -0.000
 -16187045.409 9 -12599863.71048  21321408.582    21321407.8374   21321416.5344
        -0.000          -0.000
 99  4  6 22  5 30.0000000  0  8  6 24 30  5 17  8  9 10             0.000000005
  -4229832.242 9  -3285888.98146  23037959.470    23037959.8334   23037968.8144
        -0.000          -0.000
  -1501047.600 9   -988452.30648  20998506.835    20998506.6574   20998514.1004
        -0.000          -0.000
 -22851772.152 9 -16028603.53848  21102628.684    21102628.9844   21102635.6304
        -0.000          -0.000
 -12190458.391 9  -9487348.09549  20253276.262    20253275.8594   20253282.8644
        -0.000          -0.000
  -1668411.667 8  -1030838.56242         0.000           0.0004          0.0004
        -0.000          -0.000
   1834820.594 9   1442943.22846  22720213.836    22720213.3744   22720223.5404
        -0.000          -0.000
  17149430.674 8  13336134.36845  24591391.018    24591391.0634   24591406.8654
        -0.000          -0.000
 -16229200.126 9 -12632711.47948  21313386.558    21313385.8904   21313394.7004
        -0.000          -0.000
 99  4  6 22  6  0.0000000  0  8  6 24 30  5 17  8  9 10            -0.000000014
  -4294856.903 9  -3336557.50747  23025585.924    23025586.2684   23025595.2254
        -0.000          -0.000
  -1445667.105 9   -945298.69948  21009045.337    21009045.1814   21009052.6984
        -0.000          -0.000
 -22909421.209 9 -16073524.86648  21091658.486    21091658.7984   21091665.3944
        -0.000          -0.000
 -12172171.668 9  -9473098.71649  20256756.125    20256755.7204   20256762.7234
        -0.000          -0.000
  -1763275.662 8  -1104757.83152         0.000           0.0004          0.0005
        -0.000          -0.000
   1911064.532 9   1502353.99946  22734722.585    22734722.2584   22734732.3164
        -0.000          -0.000
  17238402.409 8  13405462.64545  24608322.220    24608322.2824   24608337.6914
        -0.000          -0.000
 -16270824.477 9 -12665145.98148  21305465.770    21305465.0834   21305473.7304
        -0.000          -0.000
 99  4  6 22  6 30.0000000  0  8  6 24 30  5 17  8  9 10            -0.000000027
  -4359863.164 9  -3387211.63447  23013216.280    23013216.3814   23013225.1654
        -0.000          -0.000
  -1389995.114 9   -901917.96448  21019639.261    21019639.1674   21019646.8064
        -0.000          -0.000
 -22966607.786 9 -16118085.81948  21080776.125    21080776.4924   21080783.1194
        -0.000          -0.000
 -12153325.770 9  -9458413.60949  20260342.391    20260341.9974   20260348.9384
        -0.000          -0.000
  -1857999.296 8  -1178568.05553         0.000           0.0004   25508989.7345
        -0.000          -0.000
   1987559.026 9   1561960.00446  22749279.291    22749278.7834   22749288.7314
        -0.000          -0.000
  17327305.199 8  13474737.23545  24625240.444    24625240.3204   24625255.1904
        -0.000          -0.000
 -16311890.327 9 -12697145.29148  21297651.273    21297650.5334   21297659.0524
        -0.000          -0.000
 99  4  6 22  7  0.0000000  0  8  6 24 30  5 17  8  9 10            -0.000000034
  -4424844.284 9  -3437846.20847  23000850.978    23000850.9434   23000859.5854
        -0.000          -0.000
  -1334021.944 9   -858302.53948  21030290.464    21030290.4134   21030298.0884
        -0.000          -0.000
 -23023336.230 9 -16162289.78148  21069981.015    21069981.3564   21069987.9814
        -0.000          -0.000
 -12133924.698 9  -9443295.90849  20264034.267    20264033.8914   20264040.8164
        -0.000          -0.000
  -1952597.762 8  -1252280.83045  25490966.338    25490966.3914   25490985.5454
        -0.000          -0.000
   2064345.502 9   1621793.50146  22763891.278    22763890.7864   22763900.9204
        -0.000          -0.000
  17416137.192 8  13543956.65545  24642145.348    24642144.9874   24642159.7024
        -0.000          -0.000
 -16352406.632 9 -12728716.38448  21289941.214    21289940.5014   21289949.0834
        -0.000          -0.000
 99  4  6 22  7 30.0000000  0  8  6 24 30  5 17  8  9 10            -0.000000044
  -4489792.388 9  -3488455.04847  22988491.767    22988491.7984   22988500.2774
        -0.000          -0.000
  -1277773.741 9   -814472.78548  21040994.187    21040994.1234   21041001.6894
        -0.000          -0.000
 -23079619.082 9 -16206146.53448  21059270.686    21059270.9614   21059277.5464
        -0.000          -0.000
 -12113978.115 9  -9427753.13749  20267829.994    20267829.6234   20267836.5764
        -0.000          -0.000
  -2047083.269 8  -1325905.49845  25472986.466    25472986.6384   25473005.6294
        -0.000          -0.000
   2141423.661 9   1681854.28346  22778558.822    22778558.2224   22778568.6904
        -0.000          -0.000
  17504876.767 8  13613104.07145  24659032.228    24659031.8774   24659046.6954
        -0.000          -0.000
 -16392379.468 9 -12759864.01548  21282334.521    21282333.8374   21282342.4754
        -0.000          -0.000
 99  4  6 22  8  0.0000000  0  8  6 24 30  5 17  8  9 10            -0.000000050
  -4554694.675 9  -3539028.18447  22976141.618    22976141.5084   22976149.8184
        -0.000          -0.000
  -1221259.388 9   -770435.65148  21051748.421    21051748.3584   21051755.8374
        -0.000          -0.000
 -23135445.098 9 -16249647.31148  21048647.222    21048647.5154   21048654.0994
        -0.000          -0.000
 -12093488.081 9  -9411786.90049  20271729.101    20271728.7544   20271735.7644
        -0.000          -0.000
  -2141445.146 8  -1399433.85945  25455029.772    25455028.3004   25455048.3614
        -0.000          -0.000
   2218800.392 9   1742147.72146  22793282.911    22793282.3984   22793292.9684
        -0.000          -0.000
  17593528.606 8  13682183.08545  24675902.338    24675901.7194   24675916.7464
        -0.000          -0.000
 -16431814.266 9 -12790592.39248  21274830.274    21274829.6124   21274838.2594
        -0.000          -0.000
 99  4  6 22  8 30.0000000  0  8  6 24 30  5 17  8  9 10            -0.000000080
  -4619561.732 9  -3589573.87247  22963797.804    22963797.5944   22963806.0524
        -0.000          -0.000
  -1164518.421 9   -726221.93948  21062545.822    21062545.7634   21062553.0924
        -0.000          -0.000
 -23190822.449 9 -16292798.48548  21038109.182    21038109.5304   21038116.1554
        -0.000          -0.000
 -12072472.277 9  -9395410.97149  20275728.395    20275727.9864   20275735.0424
        -0.000          -0.000
  -2235710.453 8  -1472886.93245  25437092.810    25437092.0784   25437109.5024
        -0.000          -0.000
   2296459.013 9   1802660.84346  22808060.731    22808060.3384   22808070.9584
        -0.000          -0.000
  17682060.120 8  13751168.32545  24692749.280    24692748.6754   24692763.9304
        -0.000          -0.000
 -16470727.774 9 -12820914.57048  21267425.297    21267424.6284   21267433.2504
        -0.000          -0.000
 99  4  6 22  9  0.0000000  0  8  6 24 30  5 17  8  9 10            -0.000000123
  -4684369.588 9  -3640073.45447  22951464.830    22951464.7824   22951473.3664
        -0.000          -0.000
  -1107557.732 9   -681837.00948  21073385.160    21073385.0794   21073392.3434
        -0.000          -0.000
 -23245726.017 9 -16335580.47048  21027661.366    21027661.7334   21027668.4564
        -0.000          -0.000
 -12050906.288 9  -9378606.33049  20279832.172    20279831.7654   20279838.8964
        -0.000          -0.000
  -2329857.501 8  -1546247.83245  25419177.075    25419175.4434   25419194.3384
        -0.000          -0.000
   2374394.095 9   1863389.37146  22822891.237    22822890.8914   22822901.5114
        -0.000          -0.000
  17770492.089 8  13820076.04445  24709577.889    24709577.2644   24709592.2314
        -0.000          -0.000
 -16509090.592 9 -12850807.64948  21260125.122    21260124.4424   21260132.9484
        -0.000          -0.000
 99  4  6 22  9 30.0000000  0  8  6 24 30  5 17  8  9 10            -0.000000147
  -4749060.353 9  -3690481.77947  22939154.350    22939154.4054   22939162.9284
        -0.000          -0.000
  -1050326.985 9   -637241.64848  21084276.000    21084275.8994   21084283.1524
        -0.000          -0.000
 -23300094.431 9 -16377945.45548  21017315.408    21017315.7954   21017322.5204
        -0.000          -0.000
 -12028726.659 9  -9361323.53049  20284052.656    20284052.3234   20284059.5264
        -0.000          -0.000
  -2423801.870 8  -1619450.83345  25401299.456    25401298.4374   25401317.1814
        -0.000          -0.000
   2452621.891 9   1924345.98846  22837777.578    22837777.2654   22837787.8044
        -0.000          -0.000
  17858882.516 8  13888951.34245  24726398.149    24726397.7114   24726412.6234
        -0.000          -0.000
 -16546849.924 9 -12880230.46248  21252939.829    21252939.1564   21252947.5954
        -0.000          -0.000
 99  4  6 22 10  0.0000000  0  8  6 24 30  5 17  8  9 10            -0.000000165
  -4813701.512 9  -3740851.44847  22926853.628    22926853.6794   22926861.8734
        -0.000          -0.000
   -992859.735 9   -592462.00048  21095211.759    21095211.6494   21095219.0264
        -0.000          -0.000
 -23353982.812 9 -16419936.39448  21007060.918    21007061.2844   21007067.9774
        -0.000          -0.000
 -12006007.127 9  -9343620.01349  20288376.076    20288375.7404   20288382.9034
        -0.000          -0.000
  -2517598.865 8  -1692538.97245  25383450.947    25383449.5034   25383467.7864
        -0.000          -0.000
   2531072.357 9   1985476.09046  22852706.594    22852706.0804   22852716.6604
        -0.000          -0.000
  17947183.611 8  13957757.07945  24743201.395    24743201.0984   24743216.1884
        -0.000          -0.000
 -16584062.477 9 -12909227.21748  21245858.627    21245857.9194   21245866.1984
        -0.000          -0.000
 99  4  6 22 10 30.0000000  0  8  6 24 30  5 17  8  9 10            -0.000000147
  -4878267.626 9  -3791162.63547  22914567.272    22914567.1454   22914575.1724
        -0.000          -0.000
   -935111.559 9   -547463.45348  21106200.958    21106200.8414   21106208.4484
        -0.000          -0.000
 -23407345.507 9 -16461517.69848  20996906.402    20996906.7744   20996913.3534
        -0.000          -0.000
 -11982709.598 9  -9325466.11449  20292809.511    20292809.1804   20292816.3524
        -0.000          -0.000
  -2611226.851 8  -1765495.39645  25365633.547    25365632.5684   25365650.1234
        -0.000          -0.000
   2609783.076 9   2046808.99446  22867685.067    22867684.3424   22867694.9494
        -0.000          -0.000
  18035439.189 8  14026527.30845  24759996.328    24759995.9214   24760010.9114
        -0.000          -0.000
 -16620671.909 9 -12937754.00948  21238892.030    21238891.3324   21238899.6064
        -0.000          -0.000
 99  4  6 22 11  0.0000000  0  8  6 24 30  5 17  8  9 10            -0.000000138
  -4942849.414 9  -3841486.04747  22902277.698    22902277.5334   22902285.6174
        -0.000          -0.000
   -877136.360 9   -502288.00948  21117233.195    21117233.0644   21117241.0204
        -0.000          -0.000
 -23460256.339 9 -16502746.90548  20986837.990    20986838.2944   20986844.6764
        -0.000          -0.000
 -11958908.751 9  -9306920.01949  20297338.677    20297338.3154   20297345.5024
        -0.000          -0.000
  -2704764.702 8  -1838381.61845  25347833.256    25347832.5824   25347850.1324
        -0.000          -0.000
   2688675.658 9   2108283.59846  22882697.734    22882697.1194   22882707.7084
        -0.000          -0.000
  18123576.386 8  14095205.31245  24776768.559    24776767.9314   24776783.2644
        -0.000          -0.000
 -16656754.769 9 -12965870.49448  21232025.633    21232024.9554   21232033.2254
        -0.000          -0.000
 99  4  6 22 11 30.0000000  0  8  6 24 30  5 17  8  9 10            -0.000000106
  -5007405.266 9  -3891789.22247  22889993.081    22889992.8484   22890001.0274
        -0.000          -0.000
   -818872.429 9   -456887.57348  21128320.324    21128320.2394   21128328.3814
        -0.000          -0.000
 -23512690.065 9 -16543604.33548  20976860.244    20976860.5024   20976866.7814
        -0.000          -0.000
 -11934572.158 9  -9287956.46149  20301969.752    20301969.4094   20301976.5634
        -0.000          -0.000
  -2798176.809 8  -1911169.79345  25330057.230    25330056.6574   25330074.2584
        -0.000          -0.000
   2767805.501 9   2169943.08646  22897755.445    22897755.0644   22897765.7334
        -0.000          -0.000
  18211612.861 8  14163804.86045  24793520.868    24793520.4844   24793536.3764
        -0.000          -0.000
 -16692263.134 9 -12993539.30048  21225268.518    21225267.8334   21225276.1444
        -0.000          -0.000
 99  4  6 22 12  0.0000000  0  8  6 24 30  5 17  8  9 10            -0.000000072
  -5071970.861 9  -3942100.00247  22877706.398    22877706.1444   22877714.3374
        -0.000          -0.000
   -760355.708 9   -411290.14548  21139455.596    21139455.5204   21139463.7114
        -0.000          -0.000
 -23564670.337 9 -16584108.43448  20966968.690    20966968.9504   20966975.2084
        -0.000          -0.000
 -11909727.545 9  -9268597.03949  20306697.569    20306697.2064   20306704.2504
        -0.000          -0.000
  -2891516.845 8  -1983901.83345  25312294.961    25312294.3744   25312311.8814
        -0.000          -0.000
   2847150.996 9   2231770.63346  22912854.555    22912854.1914   22912864.6674
        -0.000          -0.000
  18299515.717 8  14232300.22445  24810247.432    24810247.5844   24810264.1544
        -0.000          -0.000
 -16727213.660 9 -13020773.44848  21218617.545    21218616.8874   21218625.2334
        -0.000          -0.000
 99  4  6 22 12 30.0000000  0  8  6 24 30  5 17  8  9 10            -0.000000062
  -5136554.761 9  -3992425.04747  22865416.344    22865416.1824   22865424.0204
        -0.000          -0.000
   -701604.132 9   -365509.71548  21150635.650    21150635.6004   21150643.7404
        -0.000          -0.000
 -23616206.397 9 -16624266.38848  20957161.523    20957161.8994   20957168.1964
        -0.000          -0.000
 -11884358.618 9  -9248829.06549  20311525.177    20311524.8044   20311531.6564
        -0.000          -0.000
  -2984779.357 9  -2056573.46545  25294547.334    25294546.5014   25294564.4874
        -0.000          -0.000
   2926714.714 9   2293768.22546  22927994.990    22927994.7304   22928005.0794
        -0.000          -0.000
  18387268.457 8  14300678.69745  24826945.923    24826946.4124   24826963.0494
        -0.000          -0.000
 -16761603.522 9 -13047570.70848  21212073.405    21212072.7384   21212081.0594
        -0.000          -0.000
 99  4  6 22 13  0.0000000  0  8  6 24 30  5 17  8  9 10            -0.000000063
  -5201138.977 9  -4042750.34247  22853126.327    22853126.1504   22853133.9794
        -0.000          -0.000
   -642622.343 9   -319549.91048  21161859.611    21161859.5294   21161867.5874
        -0.000          -0.000
 -23667310.940 9 -16664088.10648  20947436.564    20947436.9714   20947443.2724
        -0.000          -0.000
 -11858470.715 9  -9228656.69949  20316451.497    20316451.1234   20316457.8964
        -0.000          -0.000
  -3077929.468 8  -2129157.49745  25276821.279    25276820.5624   25276838.2874
        -0.000          -0.000
   3006491.623 9   2355931.89746  22943175.858    22943175.6504   22943186.2564
        -0.000          -0.000
  18474867.957 8  14368937.77645  24843615.918    24843616.2424   24843632.7414
        -0.000          -0.000
 -16795439.541 9 -13073936.41648  21205634.589    21205633.9054   21205642.2124
        -0.000          -0.000
 99  4  6 22 13 30.0000000  0  8  6 24 30  5 17  8  9 10            -0.000000063
  -5265693.567 9  -4093052.56647  22840841.939    22840841.7254   22840849.7554
        -0.000          -0.000
   -583413.015 9   -273412.79648  21173126.862    21173126.7294   21173134.6384
        -0.000          -0.000
 -23717964.042 9 -16703558.04148  20937797.530    20937797.9444   20937804.2964
        -0.000          -0.000
 -11832050.534 9  -9208069.56849  20321479.107    20321478.7334   20321485.5514
        -0.000          -0.000
  -3170939.896 8  -2201632.64445  25259121.416    25259120.6274   25259138.8744
        -0.000          -0.000
   3086498.104 9   2418274.50446  22958400.450    22958400.3504   22958411.1414
        -0.000          -0.000
  18562337.571 8  14437095.60145  24860261.198    24860261.4784   24860277.7424
        -0.000          -0.000
 -16828694.056 9 -13099848.97748  21199306.235    21199305.5874   21199314.0434
        -0.000          -0.000
 99  4  6 22 14  0.0000000  0  8  6 24 30  5 17  8  9 10            -0.000000057
  -5330225.454 9  -4143337.12047  22828561.756    22828561.5664   22828569.6424
        -0.000          -0.000
   -523991.544 9   -227110.36948  21184434.364    21184434.2714   21184442.0924
        -0.000          -0.000
 -23768160.286 9 -16742671.98348  20928245.439    20928245.8474   20928252.2524
        -0.000          -0.000
 -11805107.740 9  -9187075.21549  20326606.135    20326605.7544   20326612.6544
        -0.000          -0.000
  -3263819.448 8  -2274005.89145  25241446.011    25241445.8124   25241463.7924
        -0.000          -0.000
   3166720.121 9   2480785.02446  22973666.706    22973666.4314   22973677.1074
        -0.000          -0.000
  18649693.069 8  14505164.52445  24876884.778    24876884.7214   24876901.1144
        -0.000          -0.000
 -16861382.357 9 -13125320.32648  21193085.748    21193085.1234   21193093.6344
        -0.000          -0.000
 99  4  6 22 14 30.0000000  0  8  6 24 30  5 17  8  9 10            -0.000000049
  -5394736.344 9  -4193605.27747  22816285.592    22816285.4244   22816293.4134
        -0.000          -0.000
   -464373.992 9   -180655.15848  21195779.298    21195779.2074   21195786.9934
        -0.000          -0.000
 -23817923.639 9 -16781448.61048  20918775.673    20918776.0434   20918782.6224
        -0.000          -0.000
 -11777669.213 9  -9165694.57049  20331827.578    20331827.1694   20331834.1154
        -0.000          -0.000
  -3356577.908 8  -2346284.73145  25223794.378    25223794.1914   25223811.7224
        -0.000          -0.000
   3247134.710 9   2543445.62146  22988969.439    22988968.9784   22988979.8124
        -0.000          -0.000
  18736902.598 8  14573119.67045  24893480.395    24893480.3834   24893497.1514
        -0.000          -0.000
 -16893526.617 9 -13150367.75248  21186968.851    21186968.2274   21186976.6274
        -0.000          -0.000
 99  4  6 22 15  0.0000000  0  8  6 24 30  5 17  8  9 10            -0.000000038
  -5459209.114 9  -4243843.72947  22804016.852    22804016.8084   22804024.4804
        -0.000          -0.000
   -404567.816 9   -134052.97148  21207160.169    21207160.0584   21207167.8374
        -0.000          -0.000
 -23867239.084 9 -16819876.21248  20909391.117    20909391.5394   20909398.1924
        -0.000          -0.000
 -11749735.956 9  -9143928.42149  20337143.111    20337142.7194   20337149.6874
        -0.000          -0.000
  -3449231.837 8  -2418482.09145  25206162.851    25206162.1194   25206179.9664
        -0.000          -0.000
   3327727.857 9   2606245.33746  23004306.136    23004305.6294   23004316.5104
        -0.000          -0.000
  18823964.047 8  14640959.42745  24910047.601    24910047.8324   24910065.0924
        -0.000          -0.000
 -16925131.483 9 -13174994.90048  21180954.609    21180953.9614   21180962.2984
        -0.000          -0.000
 99  4  6 22 15 30.0000000  0  8  6 24 30  5 17  8  9 10            -0.000000034
  -5523643.202 9  -4294052.03947  22791755.498    22791755.3864   22791763.0024
        -0.000          -0.000
   -344560.593 9    -87294.12048  21218579.213    21218579.0634   21218586.8364
        -0.000          -0.000
 -23916069.815 9 -16857926.11348  20900098.813    20900099.2334   20900106.0074
        -0.000          -0.000
 -11721278.604 9  -9121753.89349  20342558.373    20342557.9604   20342565.0154
        -0.000          -0.000
  -3541786.538 8  -2490602.19245  25188549.759    25188549.1114   25188566.6544
        -0.000          -0.000
   3408510.143 9   2669192.42446  23019678.666    23019678.1484   23019689.1564
        -0.000          -0.000
  18910890.160 8  14708693.76145  24926589.541    24926589.7614   24926607.1574
        -0.000          -0.000
 -16956183.827 9 -13199191.49648  21175045.450    21175044.8024   21175053.2274
        -0.000          -0.000
 99  4  6 22 16  0.0000000  0  9  6 24 25 30  5 17  8  9 10          0.000000030
  -5588013.429 9  -4344210.59447  22779505.981    22779505.9874   22779513.7264
        -0.000          -0.000
   -284319.646 9    -40353.15548  21230042.623    21230042.5184   21230050.2944
        -0.000          -0.000
  -1149877.252 8   -884815.87352         0.000           0.0004          0.0005
        -0.000          -0.000
 -23964393.688 9 -16895581.06548  20890903.003    20890903.4294   20890910.2904
        -0.000          -0.000
 -11692257.262 9  -9099139.90349  20348080.852    20348080.4574   20348087.5874
        -0.000          -0.000
  -3634211.334 8  -2562621.01345  25170961.703    25170961.0964   25170977.6824
        -0.000          -0.000
   3489502.363 9   2732303.11546  23035091.104    23035090.4294   23035101.7194
        -0.000          -0.000
  18997697.605 8  14776335.63145  24943109.134    24943108.9844   24943126.4664
        -0.000          -0.000
 -16986663.615 9 -13222941.94348  21169245.351    21169244.7174   21169253.0864
        -0.000          -0.000
 99  4  6 22 16 30.0000000  0  9  6 24 25 30  5 17  8  9 10         -0.000000016
  -5652340.109 9  -4394335.20547  22767264.719    22767264.8224   22767272.9394
        -0.000          -0.000
   -223869.290 9      6750.99548  21241545.905    21241545.8444   21241553.6034
        -0.000          -0.000
  -1184539.477 8   -797117.01542         0.000           0.0004          0.0004
        -0.000          -0.000
 -24012220.950 9 -16932849.04648  20881801.569    20881802.0204   20881809.0714
        -0.000          -0.000
 -11662675.893 9  -9076089.50949  20353709.966    20353709.6404   20353716.8004
        -0.000          -0.000
  -3726503.499 8  -2634536.51345  25153398.689    25153398.1364   25153414.5734
        -0.000          -0.000
   3570689.035 9   2795565.30046  23050540.702    23050540.0734   23050551.0694
        -0.000          -0.000
  19084359.681 8  14843864.19445  24959600.837    24959600.6074   24959617.8174
        -0.000          -0.000
 -17016576.128 9 -13246250.34248  21163553.298    21163552.6574   21163561.0374
        -0.000          -0.000
 99  4  6 22 17  0.0000000  0  9  6 24 25 30  5 17  8  9 10         -0.000000052
  -5716567.207 9  -4444382.24247  22755042.398    22755042.7524   22755050.9964
        -0.000          -0.000
   -163138.719 9     54073.50348  21253102.641    21253102.5334   21253110.2454
        -0.000          -0.000
  -1218654.456 8   -823698.53252         0.000           0.0004          0.0005
        -0.000          -0.000
 -24059475.330 9 -16969670.63648  20872809.209    20872809.7144   20872816.9054
        -0.000          -0.000
 -11632464.591 9  -9052548.26949  20359459.131    20359458.7704   20359465.8014
        -0.000          -0.000
  -3818579.888 9  -2706283.88545  25135876.681    25135876.2554   25135892.8094
        -0.000          -0.000
   3652152.624 9   2859043.29146  23066042.607    23066042.1114   23066052.9454
        -0.000          -0.000
  19170961.128 8  14911345.52445  24976080.791    24976080.6794   24976097.6234
        -0.000          -0.000
 -17045845.986 9 -13269057.98448  21157983.474    21157982.8034   21157991.2504
        -0.000          -0.000
 99  4  6 22 17 30.0000000  0  9  6 24 25 30  5 17  8  9 10         -0.000000081
  -5780761.232 9  -4494403.49447  22742826.855    22742827.1284   22742835.2784
        -0.000          -0.000
   -102159.946 9    101589.40948  21264706.514    21264706.3704   21264714.1264
        -0.000          -0.000
  -1252273.837 8   -849893.74052         0.000           0.0004          0.0005
        -0.000          -0.000
 -24106217.381 9 -17006093.01548  20863914.548    20863915.0824   20863922.2464
        -0.000          -0.000
 -11601682.776 9  -9028562.47149  20365316.770    20365316.3654   20365323.3954
        -0.000          -0.000
  -3910471.039 8  -2777886.89645  25118390.089    25118389.5834   25118406.3594
        -0.000          -0.000
   3733845.146 9   2922699.64746  23081588.380    23081587.9494   23081598.7224
        -0.000          -0.000
  19257460.153 8  14978747.03145  24992541.163    24992541.1334   24992558.2804
        -0.000          -0.000
 -17074514.449 9 -13291397.01048  21152528.090    21152527.3604   21152535.7314
        -0.000          -0.000
 99  4  6 22 18  0.0000000  0  9  6 24 25 30  5 17  8  9 10         -0.000000072
  -5844907.203 9  -4544387.28047  22730620.444    22730620.6294   22730628.5924
        -0.000          -0.000
    -40916.693 9    149311.39148  21276360.737    21276360.6124   21276368.4454
        -0.000          -0.000
  -1285400.860 8   -764550.33942         0.000           0.0004          0.0004
        -0.000          -0.000
 -24152449.095 9 -17042117.71448  20855117.178    20855117.6424   20855124.5934
        -0.000          -0.000
 -11570337.772 9  -9004137.82449  20371281.546    20371281.1554   20371288.2094
        -0.000          -0.000
  -4002159.892 8  -2849332.28345  25100941.420    25100940.9614   25100958.1274
        -0.000          -0.000
   3815769.874 9   2986536.93446  23097178.385    23097177.9474   23097188.6814
        -0.000          -0.000
  19343862.208 8  15046072.96445  25008983.261    25008983.3414   25009000.5274
        -0.000          -0.000
 -17102564.949 9 -13313254.51848  21147190.179    21147189.4754   21147197.8224
        -0.000          -0.000
 99  4  6 22 18 30.0000000  0  9  6 24 25 30  5 17  8  9 10         -0.000000059
  -5909073.257 9  -4594386.74147  22718410.215    22718410.3424   22718418.1824
        -0.000          -0.000
     20521.642 9    197185.39548  21288052.072    21288051.9184   21288059.8304
        -0.000          -0.000
  -1318106.891 8   -790035.52052         0.000           0.0004          0.0005
        -0.000          -0.000
 -24198223.149 9 -17077785.78848  20846406.854    20846407.2824   20846413.9794
        -0.000          -0.000
 -11538517.963 9  -8979343.18249  20377336.718    20377336.3334   20377343.4054
        -0.000          -0.000
  -4093721.427 8  -2920678.49845  25083517.083    25083516.6944   25083534.5544
        -0.000          -0.000
   3897856.294 9   3050500.25246  23112798.801    23112798.4434   23112809.2304
        -0.000          -0.000
  19430085.205 8  15113259.41645  25025391.358    25025391.3914   25025408.7674
        -0.000          -0.000
 -17130067.808 9 -13334685.28848  21141956.525    21141955.8384   21141964.0824
        -0.000          -0.000
 99  4  6 22 19  0.0000000  0  9  6 24 25 30  5 17  8  9 10         -0.000000021
  -5973219.434 9  -4644370.71947  22706203.574    22706203.6734   22706211.6174
        -0.000          -0.000
     82192.565 9    245240.62748  21299787.653    21299787.5444   21299795.4024
        -0.000          -0.000
  -1350369.684 8   -815175.48243         0.000           0.0004   25333076.2864
        -0.000          -0.000
 -24243498.256 9 -17113065.08748  20837791.523    20837791.8974   20837798.3314
        -0.000          -0.000
 -11506199.571 9  -8954160.04249  20383486.804    20383486.3864   20383493.5474
        -0.000          -0.000
  -4185137.674 8  -2991911.47845  25066121.081    25066120.5364   25066138.1964
        -0.000          -0.000
   3980129.398 9   3114608.99846  23128454.858    23128454.5644   23128465.3284
        -0.000          -0.000
  19516141.837 8  15180316.21545  25041767.496    25041767.6954   25041785.4824
        -0.000          -0.000
 -17157001.977 9 -13355672.92048  21136831.132    21136830.3974   21136838.6044
        -0.000          -0.000
 99  4  6 22 19 30.0000000  0  9  6 24 25 30  5 17  8  9 10         -0.000000062
  -6037343.890 9  -4694337.79247  22694000.802    22694001.0104   22694009.0644
        -0.000          -0.000
    144081.337 9    293465.62748  21311564.747    21311564.6414   21311572.3454
        -0.000          -0.000
  -1382217.681 8   -839992.14045  25327005.068    25327005.0094   25327013.0614
        -0.000          -0.000
 -24288270.539 9 -17147952.57048  20829271.618    20829271.9754   20829278.4114
        -0.000          -0.000
 -11473395.420 9  -8928598.39449  20389729.140    20389728.7844   20389736.0174
        -0.000          -0.000
  -4276425.760 8  -3063044.58645  25048749.681    25048748.8934   25048766.0824
        -0.000          -0.000
   4062559.561 9   3178840.15846  23144140.644    23144140.3964   23144151.3504
        -0.000          -0.000
  19602009.337 8  15247225.65845  25058107.695    25058107.5234   25058125.1324
        -0.000          -0.000
 -17183374.009 9 -13376222.53448  21131812.780    21131812.0314   21131820.2294
        -0.000          -0.000
 99  4  6 22 20  0.0000000  0  9  6 24 25 30  5 17  8  9 10         -0.000000002
  -6101447.072 9  -4744288.28547  22681802.277    22681802.4854   22681810.4464
        -0.000          -0.000
    206150.041 9    341830.82648  21323376.126    21323375.9844   21323383.5914
        -0.000          -0.000
  -1413666.871 8   -864498.02545  25321020.706    25321020.7024   25321029.8984
        -0.000          -0.000
 -24332541.351 9 -17182449.30448  20820847.081    20820847.4974   20820853.9344
        -0.000          -0.000
 -11440120.059 9  -8902669.56749  20396061.208    20396060.8514   20396068.0754
        -0.000          -0.000
  -4367615.164 8  -3134100.79145  25031396.006    25031395.1984   25031413.0974
        -0.000          -0.000
   4145128.689 9   3243179.56446  23159852.997    23159852.8474   23159863.9104
        -0.000          -0.000
  19687653.069 8  15313960.69045  25074405.541    25074405.1294   25074422.5844
        -0.000          -0.000
 -17209205.376 9 -13396350.83448  21126897.231    21126896.4644   21126904.6854
        -0.000          -0.000
 99  4  6 22 20 30.0000000  0  9  6 24 25 30  5 17  8  9 10          0.000000006
  -6165530.727 9  -4794223.53947  22669607.730    22669607.7984   22669615.6194
        -0.000          -0.000
    268384.090 9    390324.86148  21335218.919    21335218.7954   21335226.3594
        -0.000          -0.000
  -1444711.891 8   -888689.00545  25315112.963    25315112.8324   25315122.1684
        -0.000          -0.000
 -24376303.892 9 -17216549.97948  20812519.304    20812519.7324   20812526.1964
        -0.000          -0.000
 -11406361.829 9  -8876364.47849  20402485.200    20402484.8444   20402492.0194
        -0.000          -0.000
  -4458712.801 8  -3205085.55345  25014059.971    25014059.1984   25014077.4824
        -0.000          -0.000
   4227837.425 9   3307627.77046  23175592.317    23175592.0014   23175603.2694
        -0.000          -0.000
  19773068.012 8  15380517.46345  25090659.913    25090659.6464   25090676.2554
        -0.000          -0.000
 -17234491.738 9 -13416054.47048  21122085.227    21122084.4954   21122092.8724
        -0.000          -0.000
 99  4  6 22 21  0.0000000  0  9  6 24 25 30  5 17  8  9 10          0.000000012
  -6229562.095 9  -4844118.05547  22657423.039    22657423.1124   22657431.0014
        -0.000          -0.000
    330823.827 9    438979.16548  21347100.926    21347100.7804   21347108.3164
        -0.000          -0.000
  -1475301.110 8   -912524.82845  25309292.108    25309291.8824   25309302.0164
        -0.000          -0.000
 -24419528.201 9 -17250231.24648  20804294.044    20804294.4574   20804300.9294
        -0.000          -0.000
 -11372063.808 9  -8849638.77049  20409011.929    20409011.5754   20409018.7354
        -0.000          -0.000
  -4549679.346 8  -3275968.14045  24996749.185    24996748.7324   24996766.6984
        -0.000          -0.000
   4310719.752 9   3372211.24246  23191364.506    23191364.1224   23191375.3144
        -0.000          -0.000
  19858323.701 8  15446950.15045  25106884.150    25106884.0734   25106899.8384
        -0.000          -0.000
 -17259173.748 9 -13435287.18248  21117388.402    21117387.6474   21117396.0044
        -0.000          -0.000
 99  4  6 22 21 30.0000000  0  9  6 24 25 30  5 17  8  9 10         -0.000000009
  -6293568.863 9  -4893993.41347  22645242.925    22645243.0054   22645251.1424
        -0.000          -0.000
    393442.159 9    487772.63948  21359016.856    21359016.7104   21359024.2894
        -0.000          -0.000
  -1505441.725 8   -936011.03745  25303556.319    25303555.9434   25303567.4374
        -0.000          -0.000
 -24462251.486 9 -17283522.10148  20796164.148    20796164.4654   20796171.0154
        -0.000          -0.000
 -11337239.705 9  -8822503.13649  20415638.843    20415638.4484   20415645.5764
        -0.000          -0.000
  -4640530.107 8  -3346760.55645  24979460.417    24979460.1994   24979477.5594
        -0.000          -0.000
   4393746.885 9   3436907.55346  23207164.309    23207163.7544   23207175.0154
        -0.000          -0.000
  19943423.118 8  15513261.02745  25123078.573    25123078.3444   25123093.8434
        -0.000          -0.000
 -17283264.837 9 -13454059.43448  21112803.949    21112803.2404   21112811.5404
        -0.000          -0.000
 99  4  6 22 22  0.0000000  0  9  6 24 25 30  5 17  8  9 10         -0.000000033
  -6357515.366 9  -4943821.80447  22633074.116    22633074.3294   22633082.6544
        -0.000          -0.000
    456280.714 9    536737.71448  21370974.623    21370974.4824   21370982.1494
        -0.000          -0.000
  -1535068.185 8   -959096.61345  25297918.481    25297918.3654   25297930.1484
        -0.000          -0.000
 -24504440.631 9 -17316396.76748  20788135.712    20788136.0334   20788142.6694
        -0.000          -0.000
 -11301830.780 9  -8794911.81149  20422376.958    20422376.5534   20422383.7154
        -0.000          -0.000
  -4731214.990 8  -3417423.66945  24962203.467    24962203.0684   24962220.4034
        -0.000          -0.000
   4476960.720 9   3501749.33946  23222999.536    23222998.8924   23223010.5524
        -0.000          -0.000
  20028410.563 7  15579484.67945  25139250.873    25139251.0874   25139267.3814
        -0.000          -0.000
 -17306728.236 9 -13472342.58648  21108339.128    21108338.3914   21108346.5034
        -0.000          -0.000
 99  4  6 22 22 30.0000000  0  9  6 24 25 30  5 17  8  9 10         -0.000000040
  -6421392.302 9  -4993595.99147  22620918.709    22620918.9034   22620927.3694
        -0.000          -0.000
    519361.035 9    585891.18148  21382978.381    21382978.2524   21382986.0094
        -0.000          -0.000
  -1564153.928 8   -981760.86345  25292384.043    25292383.6564   25292394.8634
        -0.000          -0.000
 -24546087.446 9 -17348848.82348  20780210.568    20780210.9194   20780217.6064
        -0.000          -0.000
 -11265813.818 9  -8766846.68249  20429230.738    20429230.3384   20429237.6044
        -0.000          -0.000
  -4821704.407 9  -3487934.50245  24944983.674    24944983.3284   24945000.7074
        -0.000          -0.000
   4560382.486 9   3566753.15546  23238874.179    23238873.7124   23238885.2304
        -0.000          -0.000
  20113308.672 7  15645638.75445  25155406.730    25155406.9234   25155423.5254
        -0.000          -0.000
 -17329545.962 9 -13490122.60148  21103997.044    21103996.3174   21104004.4414
        -0.000          -0.000
 99  4  6 22 23  0.0000000  0  9  6 24 25 30  5 17  8  9 10         -0.000000024
  -6485199.351 9  -5043315.73547  22608776.757    22608776.8794   22608785.3314
        -0.000          -0.000
    582674.305 9    635226.16648  21395026.474    21395026.3614   21395034.0884
        -0.000          -0.000
  -1592697.144 8  -1004002.42845  25286952.790    25286952.5684   25286963.0444
        -0.000          -0.000
 -24587200.216 9 -17380884.74648  20772387.140    20772387.4654   20772394.1634
        -0.000          -0.000
 -11229198.420 9  -8738315.23049  20436198.384    20436198.0044   20436205.2904
        -0.000          -0.000
  -4911990.661 8  -3558287.04145  24927802.759    24927802.2024   24927819.3354
        -0.000          -0.000
   4644013.351 9   3631919.90846  23254788.775    23254788.2554   23254799.6284
        -0.000          -0.000
  20198112.608 8  15711719.37545  25171544.976    25171544.8814   25171561.7974
        -0.000          -0.000
 -17351732.034 9 -13507410.43148  21099775.128    21099774.4004   21099782.5504
        -0.000          -0.000
 99  4  6 22 23 30.0000000  0  9  6 24 25 30  5 17  8  9 10         -0.000000011
  -6548971.272 9  -5093008.09347  22596641.341    22596641.3714   22596649.7094
        -0.000          -0.000
    646170.152 9    684703.40548  21407109.230    21407109.1874   21407116.9404
        -0.000          -0.000
  -1620753.095 8  -1025864.19345  25281613.620    25281613.2434   25281623.8724
        -0.000          -0.000
 -24627820.861 9 -17412537.19649  20764657.318    20764657.6664   20764664.2524
        -0.000          -0.000
 -11192036.013 9  -8709357.54549  20443270.285    20443269.8894   20443277.0934
        -0.000          -0.000
  -5002109.459 8  -3628509.07645  24910653.218    24910652.6764   24910669.8174
        -0.000          -0.000
   4727821.112 9   3697224.50446  23270737.033    23270736.4944   23270747.7864
        -0.000          -0.000
  20282751.582 8  15777671.48845  25187651.200    25187650.9714   25187668.5184
        -0.000          -0.000
 -17373340.094 9 -13524247.85648  21095663.195    21095662.4974   21095670.6864
        -0.000          -0.000
 99  4  6 22 24  0.0000000  0  9  6 24 25 30  5 17  8  9 10          0.000000005
  -6612713.485 9  -5142677.29347  22584511.564    22584511.5794   22584519.5524
        -0.000          -0.000
    709843.301 9    734318.80648  21419225.722    21419225.6794   21419233.5084
        -0.000          -0.000
  -1648340.863 8  -1047361.16945  25276363.807    25276363.6364   25276374.1064
        -0.000          -0.000
 -24667950.835 9 -17443807.30449  20757020.939    20757021.2934   20757027.7104
        -0.000          -0.000
 -11154346.091 9  -8679988.81149  20450442.457    20450442.0444   20450449.2784
        -0.000          -0.000
  -5092077.600 8  -3698613.70945  24893532.354    24893531.8384   24893549.1834
        -0.000          -0.000
   4811811.083 9   3762671.05546  23286720.026    23286719.3494   23286730.7974
        -0.000          -0.000
  20367204.461 8  15843478.61645  25203722.111    25203722.0364   25203739.6054
        -0.000          -0.000
 -17394372.070 9 -13540636.37148  21091661.002    21091660.2974   21091668.4724
        -0.000          -0.000
 99  4  6 22 24 30.0000000  0  9  6 24 25 30  5 17  8  9 10          0.000000029
  -6676430.236 9  -5192326.66947  22572386.661    22572386.6624   22572394.4104
        -0.000          -0.000
    773682.367 9    784063.50048  21431373.844    21431373.8194   21431381.6154
        -0.000          -0.000
  -1675489.096 8  -1068515.71545  25271198.188    25271197.8844   25271208.0134
        -0.000          -0.000
 -24707600.128 9 -17474702.84849  20749475.991    20749476.3064   20749482.6714
        -0.000          -0.000
 -11116152.285 9  -8650227.44349  20457710.467    20457710.0924   20457717.3564
        -0.000          -0.000
  -5181918.526 8  -3768619.23245  24876436.277    24876435.6224   24876453.0564
        -0.000          -0.000
   4895981.429 9   3828258.13546  23302737.189    23302736.5714   23302747.9904
        -0.000          -0.000
  20451468.622 8  15909138.67045  25219757.211    25219756.8384   25219774.6174
        -0.000          -0.000
 -17414823.038 9 -13556572.16448  21087769.347    21087768.6714   21087776.7864
        -0.000          -0.000
 99  4  6 22 25  0.0000000  0  9  6 24 25 30  5 17  8  9 10          0.000000037
  -6740144.360 9  -5241973.98047  22560262.227    22560262.2364   22560269.8224
        -0.000          -0.000
    837654.914 9    833912.21648  21443547.471    21443547.4214   21443555.1364
        -0.000          -0.000
  -1702243.421 8  -1089363.33445  25266107.356    25266106.7584   25266116.9694
        -0.000          -0.000
 -24746790.489 9 -17505240.79049  20742018.262    20742018.5994   20742024.9654
        -0.000          -0.000
 -11077491.465 9  -8620102.14649  20465067.452    20465067.0894   20465074.2944
        -0.000          -0.000
  -5271670.384 8  -3838555.32945  24859356.631    24859356.0774   24859373.6384
        -0.000          -0.000
   4980283.501 9   3893947.90346  23318779.640    23318778.9854   23318790.1824
        -0.000          -0.000
  20535517.620 8  15974631.06145  25235751.124    25235750.7824   25235768.5074
        -0.000          -0.000
 -17434710.960 9 -13572069.22148  21083984.849    21083984.1324   21083992.2304
        -0.000          -0.000
 99  4  6 22 25 30.0000000  0  9  6 24 25 30  5 17  8  9 10          0.000000033
  -6803839.278 9  -5291606.33847  22548141.470    22548141.4274   22548148.8934
        -0.000          -0.000
    901771.066 9    883872.81448  21455748.346    21455748.3044   21455756.0404
        -0.000          -0.000
  -1728603.689 8  -1109903.86145  25261091.009    25261090.6414   25261100.9434
        -0.000          -0.000
 -24785505.321 9 -17535408.18449  20734651.037    20734651.3704   20734657.7304
        -0.000          -0.000
 -11038364.198 9  -8589613.41049  20472513.260    20472512.8244   20472519.9814
        -0.000          -0.000
  -5361338.481 8  -3908426.17145  24842293.037    24842292.5804   24842310.0854
        -0.000          -0.000
   5064697.186 9   3959724.65546  23334843.074    23334842.3954   23334853.7804
        -0.000          -0.000
  20619350.123 7  16039954.78745  25251703.972    25251703.7294   25251721.5554
        -0.000          -0.000
 -17454019.731 9 -13587114.99648  21080310.364    21080309.7164   21080317.9054
        -0.000          -0.000
 99  4  6 22 26  0.0000000  0  9  6 24 25 30  5 17  8  9 10          0.000000030
  -6867480.773 9  -5341197.06947  22536030.900    22536030.8804   22536038.3484
        -0.000          -0.000
    966049.853 9    933960.15948  21467980.190    21467980.1864   21467987.9374
        -0.000          -0.000
  -1754541.585 8  -1130115.26645  25256155.184    25256154.7404   25256164.6884
        -0.000          -0.000
 -24823706.288 9 -17565175.16549  20727381.561    20727381.9324   20727388.3454
        -0.000          -0.000
 -10998751.990 9  -8558746.79049  20480051.095    20480050.7164   20480057.8784
        -0.000          -0.000
  -5450888.642 8  -3978205.11245  24825252.204    24825251.6774   24825268.7084
        -0.000          -0.000
   5149219.786 9   4025586.22046  23350927.398    23350926.8104   23350938.1654
        -0.000          -0.000
  20702993.215 8  16105130.87345  25267621.073    25267621.1194   25267638.8474
        -0.000          -0.000
 -17472722.431 9 -13601688.50048  21076751.309    21076750.6694   21076758.8094
        -0.000          -0.000
 99  4  6 22 26 30.0000000  0  9  6 24 25 30  5 17  8  9 10          0.000000004
  -6931076.094 9  -5390751.81047  22523929.176    22523929.0894   22523936.6394
        -0.000          -0.000
   1030472.939 9    984159.94448  21480239.503    21480239.4704   21480247.3374
        -0.000          -0.000
  -1780069.706 8  -1150007.31645  25251297.149    25251296.4014   25251306.7714
        -0.000          -0.000
 -24861383.112 9 -17594533.72349  20720211.870    20720212.2664   20720218.6464
        -0.000          -0.000
 -10958650.218 9  -8527498.69449  20487682.068    20487681.7234   20487688.8984
        -0.000          -0.000
  -5540303.935 8  -4047878.96745  24808236.428    24808236.1074   24808252.9364
        -0.000          -0.000
   5233820.349 8   4091508.58046  23367026.441    23367025.9054   23367037.3154
        -0.000          -0.000
  20786429.620 8  16170145.97945  25283498.781    25283498.9364   25283516.7014
        -0.000          -0.000
 -17490840.135 9 -13615806.17548  21073303.591    21073302.9264   21073311.0474
        -0.000          -0.000
 99  4  6 22 27  0.0000000  0  9  6 24 25 30  5 17  8  9 10         -0.000000039
  -6994610.496 9  -5440259.07247  22511838.964    22511838.8584   22511846.4914
        -0.000          -0.000
   1095057.484 9   1034485.53348  21492529.476    21492529.4924   21492537.4744
        -0.000          -0.000
  -1805162.737 8  -1169560.37145  25246521.939    25246521.3064   25246531.5614
        -0.000          -0.000
 -24898509.563 9 -17623463.41849  20713146.978    20713147.3274   20713153.7394
        -0.000          -0.000
 -10918042.685 9  -8495856.49649  20495409.466    20495409.1434   20495416.2834
        -0.000          -0.000
  -5629550.595 8  -4117421.40545  24791252.862    24791252.4144   24791268.9834
        -0.000          -0.000
   5318504.925 9   4157496.37746  23383141.386    23383140.8994   23383152.3554
        -0.000          -0.000
  20869658.837 8  16234999.57745  25299337.175    25299337.1744   25299355.3764
        -0.000          -0.000
 -17508370.095 9 -13629465.86848  21069967.783    21069967.1054   21069975.1954
        -0.000          -0.000
 99  4  6 22 27 30.0000000  0  9  6 24 25 30  5 17  8  9 10         -0.000000061
  -7058060.311 9  -5489700.43447  22499764.903    22499764.6874   22499772.3634
        -0.000          -0.000
   1159852.429 9   1084975.07348  21504859.503    21504859.5464   21504867.6374
        -0.000          -0.000
  -1829772.378 8  -1188736.80245  25241838.963    25241838.7874   25241848.7824
        -0.000          -0.000
 -24935036.966 9 -17651926.32349  20706196.056    20706196.4284   20706202.8714
        -0.000          -0.000
 -10876891.402 9  -8463790.59549  20503240.461    20503240.1024   20503247.2424
        -0.000          -0.000
  -5718570.976 9  -4186787.50545  24774312.799    24774312.2814   24774328.1054
        -0.000          -0.000
   5403324.319 9   4223589.20746  23399282.417    23399281.7534   23399293.0984
        -0.000          -0.000
  20952720.317 8  16299722.46745  25315143.807    25315143.5984   25315161.5394
        -0.000          -0.000
 -17525274.106 9 -13642637.80048  21066751.017    21066750.3024   21066758.4634
        -0.000          -0.000
 99  4  6 22 28  0.0000000  0  9  6 24 25 30  5 17  8  9 10         -0.000000052
  -7121424.310 9  -5539074.93547  22487707.026    22487706.8354   22487714.6894
        -0.000          -0.000
   1224890.113 9   1135653.75648  21517235.798    21517235.8774   21517244.0434
        -0.000          -0.000
  -1853871.035 8  -1207515.05645  25237253.730    25237253.4714   25237263.3634
        -0.000          -0.000
 -24970932.843 9 -17679897.13649  20699365.314    20699365.6674   20699372.1724
        -0.000          -0.000
 -10835159.848 9  -8431272.53349  20511181.787    20511181.4244   20511188.5814
        -0.000          -0.000
  -5807334.565 8  -4255953.54145  24757421.305    24757420.9244   24757436.2754
        -0.000          -0.000
   5488318.873 9   4289818.56446  23415456.522    23415455.7774   23415467.3464
        -0.000          -0.000
  21035653.936 8  16364345.73945  25330925.960    25330925.8444   25330943.7454
        -0.000          -0.000
 -17541529.142 9 -13655304.02048  21063657.704    21063656.9844   21063665.2934
        -0.000          -0.000
 99  4  6 22 28 30.0000000  0  9  6 24 25 30  5 17  8  9 10         -0.000000059
  -7184808.430 9  -5588465.10347  22475645.305    22475645.1454   22475653.1504
        -0.000          -0.000
   1290093.133 9   1186461.26648  21529643.661    21529643.6784   21529651.8234
        -0.000          -0.000
  -1877538.631 8  -1225957.41645  25232749.667    25232749.1224   25232759.7714
        -0.000          -0.000
 -25006290.887 9 -17707448.85249  20692636.859    20692637.2354   20692643.7824
        -0.000          -0.000
 -10792933.470 9  -8398368.89849  20519217.149    20519216.8024   20519224.0584
        -0.000          -0.000
  -5895943.474 8  -4324999.02245  24740559.186    24740558.8184   24740574.0244
        -0.000          -0.000
   5573425.955 9   4356135.54946  23431652.111    23431651.3254   23431662.9564
        -0.000          -0.000
  21118371.929 8  16428801.00945  25346666.655    25346666.8964   25346685.1024
        -0.000          -0.000
 -17557208.758 9 -13667521.86948  21060673.805    21060673.1304   21060681.5254
        -0.000          -0.000
 99  4  6 22 29  0.0000000  0  9  6 24 25 30  5 17  8  9 10         -0.000000023
  -7248152.519 9  -5637824.08647  22463591.187    22463591.0304   22463599.1174
        -0.000          -0.000
   1355528.516 9   1237449.84648  21542095.706    21542095.6874   21542103.7384
        -0.000          -0.000
  -1900706.323 7  -1244010.15345  25228340.624    25228339.9954   25228350.9524
        -0.000          -0.000
 -25041068.331 9 -17734548.15549  20686018.975    20686019.3074   20686025.8194
        -0.000          -0.000
 -10750174.836 9  -8365050.52749  20527353.825    20527353.5194   20527360.8224
        -0.000          -0.000
  -5984366.294 9  -4393899.49245  24723732.778    24723732.4564   24723747.4224
        -0.000          -0.000
   5658700.017 9   4422582.66546  23447879.604    23447878.7414   23447890.1644
        -0.000          -0.000
  21200942.313 8  16493141.23945  25362379.742    25362379.9894   25362397.9694
        -0.000          -0.000
 -17572228.553 9 -13679225.57148  21057815.550    21057814.8984   21057823.2604
        -0.000          -0.000
 99  4  6 22 29 30.0000000  0  9  6 24 25 30  5 17  8  9 10         -0.000000010
  -7311546.763 9  -5687222.14347  22451527.386    22451527.2824   22451535.5204
        -0.000          -0.000
   1421098.337 9   1288543.18748  21554573.424    21554573.3494   21554581.1744
        -0.000          -0.000
  -1923468.124 8  -1261746.63945  25224008.866    25224008.7804   25224019.6354
        -0.000          -0.000
 -25075359.697 9 -17761268.69049  20679493.499    20679493.8244   20679500.3574
        -0.000          -0.000
 -10706978.288 9  -8331390.91349  20535574.030    20535573.6484   20535580.9334
        -0.000          -0.000
  -6072711.177 8  -4462739.23745  24706921.260    24706920.7954   24706935.5244
        -0.000          -0.000
   5744041.501 9   4489082.32746  23464119.664    23464118.7384   23464130.3344
        -0.000          -0.000
  21283280.695 8  16557300.71345  25378048.513    25378048.7114   25378067.0384
        -0.000          -0.000
 -17586673.337 9 -13690481.20648  21055066.842    21055066.1814   21055074.4624
        -0.000          -0.000
 99  4  6 22 30  0.0000000  0  9  6 24 25 30  5 17  8  9 10          0.000000011
  -7374908.789 9  -5736595.11447  22439469.644    22439469.6194   22439477.9334
        -0.000          -0.000
   1486845.241 9   1339774.50848  21567084.767    21567084.6484   21567092.3744
        -0.000          -0.000
  -1945766.245 8  -1279121.92045  25219766.034    25219766.1594   25219776.2624
        -0.000          -0.000
 -25109120.071 9 -17787575.46649  20673069.078    20673069.4524   20673075.9674
        -0.000          -0.000
 -10663279.265 9  -8297339.76049  20543889.707    20543889.2814   20543896.6454
        -0.000          -0.000
  -6160928.150 8  -4531479.30045  24690133.880    24690133.2874   24690148.1194
        -0.000          -0.000
   5829505.435 9   4555677.42246  23480383.138    23480382.1294   23480393.7774
        -0.000          -0.000
  21365433.157 8  16621315.33445  25393681.972    25393682.0904   25393700.7604
        -0.000          -0.000
 -17600487.596 9 -13701245.53548  21052438.062    21052437.4114   21052445.6654
        -0.000          -0.000
 99  4  6 22 30 30.0000000  0  9  6 24 25 30  5 17  8  9 10          0.000000043
  -7438219.693 9  -5785928.24247  22427421.919    22427421.9594   22427430.0874
        -0.000          -0.000
   1552749.823 9   1391128.69948  21579626.068    21579625.9664   21579633.6814
        -0.000          -0.000
  -1967608.083 8  -1296141.60645  25215610.192    25215610.1274   25215619.5014
        -0.000          -0.000
 -25142372.376 9 -17813486.35349  20666741.327    20666741.7124   20666748.2284
        -0.000          -0.000
 -10619089.077 9  -8262905.90149  20552298.666    20552298.3104   20552305.8094
        -0.000          -0.000
  -6249018.713 8  -4600120.88445  24673370.416    24673369.9134   24673384.9454
        -0.000          -0.000
   5915077.485 9   4622356.72446  23496666.868    23496665.9274   23496677.4294
        -0.000          -0.000
  21447386.655 8  16685174.89545  25409277.312    25409277.6024   25409296.3064
        -0.000          -0.000
 -17613678.545 9 -13711524.17048  21049927.890    21049927.2394   21049935.4534
        -0.000          -0.000
 99  4  6 22 31  0.0000000  0  9  6 24 25 30  5 17  8  9 10          0.000000047
  -7501495.854 9  -5835234.30747  22415380.864    22415380.8844   22415388.7864
        -0.000          -0.000
   1618758.206 9   1442563.76548  21592186.952    21592186.9104   21592194.6964
        -0.000          -0.000
  -1989042.685 8  -1312843.87345  25211531.163    25211531.3124   25211540.7944
        -0.000          -0.000
 -25175151.339 9 -17839028.39249  20660503.658    20660504.0514   20660510.6434
        -0.000          -0.000
 -10574437.010 9  -8228112.11649  20560795.671    20560795.3474   20560802.7574
        -0.000          -0.000
  -6337008.660 8  -4668684.04345  24656626.211    24656625.5844   24656640.8074
        -0.000          -0.000
   6000705.663 9   4689079.83946  23512961.091    23512960.4064   23512971.9884
        -0.000          -0.000
  21529113.480 8  16748857.83045  25424829.865    25424829.9474   25424848.5604
        -0.000          -0.000
 -17626305.716 9 -13721363.49648  21047524.959    21047524.3124   21047532.4174
        -0.000          -0.000
 99  4  6 22 31 30.0000000  0  9  6 24 25 30  5 17  8  9 10          0.000000033
  -7564712.481 9  -5884493.96047  22403351.137    22403351.1134   22403358.9194
        -0.000          -0.000
   1684881.505 9   1494088.38648  21604769.787    21604769.7194   21604777.5694
        -0.000          -0.000
  -2010056.729 8  -1329218.55344  25207532.084    25207532.0604   25207542.1814
        -0.000          -0.000
 -25207434.017 9 -17864183.71449  20654360.509    20654360.8544   20654367.4944
        -0.000          -0.000
 -10529284.189 9  -8192928.13549  20569388.140    20569387.7594   20569395.0814
        -0.000          -0.000
  -6424849.293 9  -4737130.87245  24639910.274    24639909.7364   24639924.8894
        -0.000          -0.000
   6086429.734 8   4755877.60346  23529273.690    23529273.0044   23529284.9624
        -0.000          -0.000
  21610633.100 8  16812379.31845  25440342.704    25440342.3264   25440361.2674
        -0.000          -0.000
 -17638373.624 9 -13730767.03148  21045228.503    21045227.7924   21045235.8524
        -0.000          -0.000
 99  4  6 22 32  0.0000000  0  9  6 24 25 30  5 17  8  9 10          0.000000019
  -7627845.367 9  -5933688.38147  22391337.224    22391337.1904   22391345.0804
        -0.000          -0.000
   1751140.576 9   1545718.79648  21617378.591    21617378.4504   21617386.2254
        -0.000          -0.000
  -2030617.912 8  -1345240.25245  25203619.111    25203619.3084   25203630.3104
        -0.000          -0.000
 -25239193.323 9 -17888931.22249  20648316.859    20648317.2174   20648323.8244
        -0.000          -0.000
 -10483607.047 9  -8157335.59949  20578080.345    20578079.9314   20578087.1784
        -0.000          -0.000
  -6512502.600 9  -4805431.73245  24623230.025    24623229.5244   24623244.4824
        -0.000          -0.000
   6172267.357 9   4822763.84046  23545607.668    23545607.4454   23545619.8144
        -0.000          -0.000
  21691965.022 8  16875754.52445  25455819.886    25455819.5734   25455837.8684
        -0.000          -0.000
 -17649864.751 9 -13739721.13048  21043041.832    21043041.1064   21043049.1574
        -0.000          -0.000
 99  4  6 22 32 30.0000000  0  9  6 24 25 30  5 17  8  9 10          0.000000006
  -7690879.964 9  -5982806.21447  22379341.944    22379342.0544   22379350.0454
        -0.000          -0.000
   1817558.784 9   1597473.20848  21630017.616    21630017.4504   21630025.3184
        -0.000          -0.000
  -2050697.085 7  -1360886.37144  25199797.582    25199797.9344   25199809.8254
        -0.000          -0.000
 -25270386.759 9 -17913237.79449  20642380.997    20642381.3474   20642387.8694
        -0.000          -0.000
 -10437385.385 9  -8121318.77049  20586876.133    20586875.7124   20586882.9514
        -0.000          -0.000
  -6599948.312 9  -4873570.87145  24606589.580    24606588.9644   24606603.7464
        -0.000          -0.000
   6258225.370 9   4889743.89746  23561965.108    23561964.9414   23561977.3604
        -0.000          -0.000
  21773141.841 8  16939008.86445  25471267.741    25471267.3794   25471285.6124
        -0.000          -0.000
 -17660764.291 9 -13748214.25448  21040967.676    21040966.9724   21040975.0704
        -0.000          -0.000
 99  4  6 22 33  0.0000000  0  9  6 24 25 30  5 17  8  9 10         -0.000000024
  -7753861.987 9  -6031883.07047  22367356.869    22367356.9514   22367365.0194
        -0.000          -0.000
   1884117.881 9   1649337.39448  21642683.549    21642683.3624   21642691.2254
        -0.000          -0.000
  -2070321.967 8  -1376178.50844  25196062.876    25196063.1484   25196075.0784
        -0.000          -0.000
 -25301030.626 9 -17937116.13049  20636549.650    20636550.0144   20636556.5194
        -0.000          -0.000
 -10390653.274 9  -8084904.18649  20595768.981    20595768.5664   20595775.7794
        -0.000          -0.000
  -6687216.009 8  -4941571.29645  24589982.565    24589982.0504   24589996.8274
        -0.000          -0.000
   6344272.389 9   4956793.28946  23578339.513    23578339.3554   23578351.9674
        -0.000          -0.000
  21854123.345 8  17002111.07145  25486677.953    25486677.6404   25486696.4554
        -0.000          -0.000
 -17671095.486 9 -13756264.51948  21039001.692    21039000.9934   21039009.1764
        -0.000          -0.000
 99  4  6 22 33 30.0000000  0  9  6 24 25 30  5 17  8  9 10         -0.000000043
  -7816775.349 9  -6080906.42947  22355384.828    22355384.9294   22355393.0254
        -0.000          -0.000
   1950869.743 9   1701351.80848  21655386.137    21655385.9284   21655393.7764
        -0.000          -0.000
  -2089437.301 8  -1391073.67045  25192425.926    25192426.1254   25192437.4354
        -0.000          -0.000
 -25331082.230 9 -17960532.96149  20630830.999    20630831.4124   20630837.7994
        -0.000          -0.000
 -10343381.174 9  -8048068.82149  20604764.591    20604764.1984   20604771.3704
        -0.000          -0.000
  -6774276.327 8  -5009410.11945  24573415.026    24573414.6414   24573429.1244
        -0.000          -0.000
   6430430.863 9   5023929.54446  23594735.322    23594735.1944   23594747.2844
        -0.000          -0.000
  21934928.731 8  17065075.96445  25502054.937    25502054.6264   25502073.8864
        -0.000          -0.000
 -17680807.966 9 -13763832.64348  21037153.437    21037152.7524   21037160.9504
        -0.000          -0.000
 99  4  6 22 34  0.0000000  0  9  6 24 25 30  5 17  8  9 10         -0.000000048
  -7879602.648 9  -6129862.71747  22343429.207    22343429.2964   22343437.3074
        -0.000          -0.000
   2017831.715 9   1753529.94148  21668128.732    21668128.5274   21668136.3434
        -0.000          -0.000
  -2108023.969 8  -1405556.83345  25188889.606    25188889.4334   25188900.7224
        -0.000          -0.000
 -25360518.694 9 -17983470.46849  20625229.588    20625229.9804   20625236.1404
        -0.000          -0.000
 -10295553.811 9  -8010800.77949  20613865.956    20613865.5484   20613872.6234
        -0.000          -0.000
  -6861136.554 8  -5077093.04445  24556885.791    24556885.4024   24556899.7334
        -0.000          -0.000
   6516701.460 9   5091153.15446  23611152.479    23611152.1894   23611164.1864
        -0.000          -0.000
  22015553.534 8  17127900.20245  25517397.279    25517396.9154   25517416.4744
        -0.000          -0.000
 -17689863.234 9 -13770888.66448  21035430.259    21035429.5854   21035437.7044
        -0.000          -0.000
 99  4  6 22 34 30.0000000  0  9  6 24 25 30  5 17  8  9 10         -0.000000049
  -7942371.645 9  -6178773.58647  22331484.732    22331484.7154   22331492.5884
        -0.000          -0.000
   2084984.497 9   1805856.74548  21680907.563    21680907.2804   21680915.1434
        -0.000          -0.000
  -2126109.008 7  -1419649.17944  25185448.433    25185448.5784   25185458.9184
        -0.000          -0.000
 -25389366.446 9 -18005949.23349  20619740.187    20619740.5014   20619746.6084
        -0.000          -0.000
 -10247184.662 9  -7973110.56849  20623070.370    20623069.9264   20623077.0294
        -0.000          -0.000
  -6947827.923 9  -5144644.39345  24540388.865    24540388.4734   24540402.7604
        -0.000          -0.000
   6603073.502 9   5158455.81246  23627588.923    23627588.5204   23627600.0564
        -0.000          -0.000
  22095961.332 8  17190555.31245  25532698.631    25532698.2404   25532717.5004
        -0.000          -0.000
 -17698269.519 9 -13777438.99248  21033830.649    21033830.0124   21033838.0474
        -0.000          -0.000
 99  4  6 22 35  0.0000000  0  9  6 24 25 30  5 17  8  9 10         -0.000000054
  -8005125.299 9  -6227672.49147  22319543.090    22319543.0824   22319550.7744
        -0.000          -0.000
   2152290.376 9   1858302.85648  21693715.350    21693715.1044   21693723.0314
        -0.000          -0.000
  -2143726.041 8  -1433376.80845  25182095.577    25182095.9284   25182105.9284
        -0.000          -0.000
 -25417668.227 9 -18028002.56149  20614354.467    20614354.8094   20614361.0054
        -0.000          -0.000
 -10198321.522 9  -7935035.41949  20632368.768    20632368.3294   20632375.5084
        -0.000          -0.000
  -7034386.056 9  -5212091.94545  24523917.585    24523916.9854   24523930.9544
        -0.000          -0.000
   6689517.180 9   5225814.31346  23644038.944    23644038.3624   23644050.0204
        -0.000          -0.000
  22176096.655 8  17252998.09945  25547947.877    25547947.5834   25547966.8054
        -0.000          -0.000
 -17706049.372 9 -13783501.20448  21032350.283    21032349.6074   21032357.5894
        -0.000          -0.000
 99  4  6 22 35 30.0000000  0  9  6 24 25 30  5 17  8  9 10         -0.000000059
  -8067820.090 9  -6276525.53447  22307612.838    22307612.7714   22307620.3914
        -0.000          -0.000
   2219753.570 9   1910871.53948  21706553.222    21706552.9464   21706560.8774
        -0.000          -0.000
  -2160852.039 8  -1446721.81945  25178836.845    25178837.0934   25178846.7534
        -0.000          -0.000
 -25445391.802 9 -18049605.34149  20609078.748    20609079.0824   20609085.3774
        -0.000          -0.000
 -10148936.019 9  -7896553.24549  20641766.461    20641766.0334   20641773.2774
        -0.000          -0.000
  -7120778.639 8  -5279410.50445  24507477.396    24507476.7684   24507490.3654
        -0.000          -0.000
   6776060.945 9   5293250.77446  23660507.839    23660507.0924   23660518.9254
        -0.000          -0.000
  22255982.787 8  17315246.76945  25563149.872    25563149.3394   25563168.8344
        -0.000          -0.000
 -17713188.847 9 -13789064.41748  21030991.722    21030991.0384   21030999.0034
        -0.000          -0.000
 99  4  6 22 36  0.0000000  0  9  6 24 25 30  5 17  8  9 10         -0.000000058
  -8130429.692 9  -6325312.19647  22295698.666    22295698.5994   22295706.2374
        -0.000          -0.000
   2287372.418 9   1963561.52148  21719420.642    21719420.4084   21719428.3384
        -0.000          -0.000
  -2177492.069 8  -1459688.11945  25175670.832    25175670.8964   25175680.3164
        -0.000          -0.000
 -25472527.044 9 -18070749.68249  20603915.048    20603915.3964   20603921.6774
        -0.000          -0.000
 -10099018.319 9  -7857656.37249  20651265.485    20651265.0574   20651272.3534
        -0.000          -0.000
  -7206982.238 9  -5346581.81745  24491072.771    24491072.3154   24491085.8184
        -0.000          -0.000
   6862717.702 9   5360775.28446  23676998.150    23676997.4454   23677009.4764
        -0.000          -0.000
  22335644.388 8  17377320.44445  25578309.133    25578308.7144   25578328.1554
        -0.000          -0.000
 -17719682.571 9 -13794124.44348  21029755.984    21029755.2934   21029763.2634
        -0.000          -0.000
 99  4  6 22 36 30.0000000  0  9  6 24 25 30  5 17  8  9 10         -0.000000070
  -8193006.734 9  -6374073.48047  22283790.774    22283790.6824   22283798.1624
        -0.000          -0.000
   2355104.042 9   2016339.38048  21732309.527    21732309.2464   21732317.2434
        -0.000          -0.000
  -2193692.861 8  -1472312.17845  25172587.738    25172587.6814   25172598.0794
        -0.000          -0.000
 -25499107.456 9 -18091461.68749  20598857.015    20598857.3184   20598863.6594
        -0.000          -0.000
 -10048629.646 9  -7818392.51649  20660854.108    20660853.6894   20660861.0574
        -0.000          -0.000
  -7293018.382 9  -5413622.65545  24474700.131    24474699.7894   24474713.1324
        -0.000          -0.000
   6949432.257 9   5428344.82946  23693499.417    23693498.8924   23693511.2034
        -0.000          -0.000
  22415058.655 8  17439201.38145  25593421.682    25593421.3624   25593440.9094
        -0.000          -0.000
 -17725587.775 9 -13798725.88948  21028632.289    21028631.5714   21028639.5324
        -0.000          -0.000
 99  4  6 22 37  0.0000000  0  9  6 24 25 30  5 17  8  9 10         -0.000000073
  -8255508.512 9  -6422776.12047  22271897.209    22271897.0674   22271904.5134
        -0.000          -0.000
   2422982.081 9   2069231.32648  21745226.215    21745225.9644   21745233.8974
        -0.000          -0.000
  -2209443.002 7  -1484585.03345  25169589.834    25169590.5264   25169601.3584
        -0.000          -0.000
 -25525093.312 9 -18111710.41549  20593912.071    20593912.3814   20593918.7804
        -0.000          -0.000
  -9997748.038 9  -7778744.55449  20670536.473    20670536.0864   20670543.5754
        -0.000          -0.000
  -7378839.735 8  -5480496.11645  24458368.112    24458368.0354   24458381.5504
        -0.000          -0.000
   7036225.809 9   5495975.91746  23710015.870    23710015.3084   23710027.9184
        -0.000          -0.000
  22494272.255 8  17500925.93845  25608495.876    25608495.5474   25608515.4444
        -0.000          -0.000
 -17730881.302 9 -13802850.71848  21027625.006    21027624.2894   21027632.2234
        -0.000          -0.000
 99  4  6 22 37 30.0000000  0  9  6 24 25 30  5 17  8  9 10         -0.000000064
  -8317931.624 9  -6471417.47147  22260018.338    22260018.3004   22260025.7894
        -0.000          -0.000
   2491008.948 9   2122239.23648  21758171.306    21758171.0424   21758178.9924
        -0.000          -0.000
  -2224748.132 7  -1496511.17345  25166676.880    25166677.7214   25166688.8864
        -0.000          -0.000
 -25550501.723 9 -18131509.18149  20589077.013    20589077.3584   20589083.7104
        -0.000          -0.000
  -9946366.132 9  -7738706.73649  20680314.133    20680313.7374   20680321.2684
        -0.000          -0.000
  -7464449.902 8  -5547205.06245  24442076.743    24442076.5334   24442090.2474
        -0.000          -0.000
   7123087.950 8   5563660.43546  23726545.179    23726544.7154   23726557.6054
        -0.000          -0.000
  22573293.117 8  17562500.33245  25623533.076    25623532.9364   25623553.1874
        -0.000          -0.000
 -17735567.548 9 -13806502.32348  21026733.262    21026732.5364   21026740.4664
        -0.000          -0.000
